[[{"header":{"parameterUnit":"m.s-1","parameterCategory":1,"la1":30.6,"la2":29.2853,"lo1":-89.7004,"lo2":-87.6739,"dx":0.0162,"dy":0.0183,"nx":112,"ny":82,"refTime":"2023-02-02T06:00:00:Z","depth":0,"parameterNumber":2,"parameterNumberName":"U-component_of_WINDS"},"data":[0.0,0.0,0.0,0.0,0.0,0.0,0.0,0.0,0.0,0.0,0.0,0.0,0.0,0.0,0.0,0.0,0.0,0.0,0.0,0.0,0.0,0.0,0.0,0.0,0.0,0.0,0.0,0.0,0.0,0.0,0.0,0.0,0.0,0.0,0.0,0.0,0.0,0.0,0.0,0.0,0.0,0.0,0.0,0.0,0.0,0.0,0.0,0.0,0.0,0.0,0.0,0.0,0.0,0.0,0.0,0.0,0.0,0.0,0.0,0.0,0.0,0.0,0.0,0.0,0.0,0.0,0.0,0.0,0.0,0.0,0.0,0.0,0.0,0.0,0.0,0.0,0.0,0.0,0.0,0.0,0.0,0.0,0.0,0.0,0.0,0.0,0.0,0.0,0.0,0.0,2.4279,2.4137,2.3945,2.3801,2.3759,2.2845,2.2079,2.1632,0.0,0.0,0.0,0.0,0.0,0.0,0.0,0.0,0.0,0.0,0.0,0.0,0.0,0.0,0.0,0.0,0.0,0.0,0.0,0.0,0.0,0.0,0.0,0.0,0.0,0.0,0.0,0.0,0.0,0.0,0.0,0.0,0.0,0.0,0.0,0.0,0.0,0.0,0.0,0.0,0.0,0.0,0.0,0.0,0.0,0.0,0.0,0.0,0.0,0.0,0.0,0.0,0.0,0.0,0.0,0.0,0.0,0.0,0.0,0.0,0.0,0.0,0.0,0.0,0.0,0.0,0.0,0.0,0.0,0.0,0.0,0.0,0.0,0.0,0.0,0.0,0.0,0.0,0.0,0.0,0.0,0.0,0.0,0.0,0.0,0.0,0.0,0.0,0.0,0.0,0.0,0.0,0.0,0.0,0.0,0.0,0.0,0.0,0.0,0.0,0.0,0.0,0.0,0.0,2.445,2.4659,2.4498,2.4265,2.3968,2.3388,2.2737,2.2051,0.0,0.0,0.0,0.0,0.0,0.0,0.0,0.0,0.0,0.0,0.0,0.0,0.0,0.0,0.0,0.0,0.0,0.0,0.0,0.0,0.0,0.0,0.0,0.0,0.0,0.0,0.0,0.0,0.0,0.0,0.0,0.0,0.0,0.0,0.0,0.0,0.0,0.0,0.0,0.0,0.0,0.0,0.0,0.0,0.0,0.0,0.0,0.0,0.0,0.0,0.0,0.0,0.0,0.0,0.0,0.0,0.0,0.0,0.0,0.0,0.0,0.0,0.0,0.0,0.0,0.0,0.0,0.0,0.0,0.0,0.0,0.0,0.0,0.0,0.0,0.0,0.0,0.0,0.0,0.0,0.0,0.0,0.0,0.0,0.0,0.0,0.0,0.0,0.0,0.0,0.0,0.0,0.0,0.0,0.0,0.0,0.0,0.0,0.0,0.0,0.0,0.0,0.0,2.4877,2.4862,2.4949,2.4712,2.4508,2.4435,2.3848,2.3206,2.2555,2.1549,0.0,0.0,0.0,0.0,0.0,0.0,0.0,0.0,0.0,0.0,0.0,0.0,0.0,0.0,0.0,0.0,0.0,0.0,0.0,0.0,0.0,0.0,0.0,0.0,0.0,0.0,0.0,0.0,0.0,0.0,0.0,0.0,0.0,0.0,0.0,0.0,0.0,0.0,0.0,0.0,0.0,0.0,0.0,0.0,0.0,0.0,0.0,0.0,0.0,0.0,0.0,0.0,0.0,0.0,0.0,0.0,0.0,0.0,0.0,0.0,0.0,0.0,0.0,0.0,0.0,0.0,0.0,0.0,0.0,0.0,0.0,0.0,0.0,0.0,0.0,0.0,0.0,0.0,0.0,0.0,0.0,0.0,0.0,0.0,0.0,0.0,0.0,0.0,0.0,0.0,0.0,0.0,0.0,0.0,0.0,0.0,0.0,0.0,0.0,0.0,0.0,0.0,2.5337,2.5221,2.5193,2.4885,2.4738,2.4865,2.4192,2.3605,2.3187,2.219,0.0,0.0,0.0,0.0,0.0,0.0,0.0,0.0,0.0,0.0,0.0,0.0,0.0,0.0,0.0,0.0,0.0,0.0,0.0,0.0,0.0,0.0,0.0,0.0,0.0,0.0,0.0,0.0,0.0,0.0,0.0,0.0,0.0,0.0,0.0,0.0,0.0,0.0,0.0,0.0,0.0,0.0,0.0,0.0,0.0,0.0,0.0,0.0,0.0,0.0,0.0,0.0,0.0,0.0,0.0,0.0,0.0,0.0,0.0,0.0,0.0,0.0,0.0,0.0,0.0,0.0,0.0,0.0,0.0,0.0,0.0,0.0,0.0,0.0,0.0,0.0,0.0,0.0,0.0,0.0,0.0,0.0,0.0,0.0,0.0,0.0,0.0,0.0,0.0,0.0,0.0,0.0,0.0,0.0,0.0,0.0,0.0,0.0,0.0,0.0,0.0,0.0,2.5331,2.5331,2.5467,2.5172,2.4995,2.5082,2.4402,2.3969,2.3931,2.2758,0.0,0.0,0.0,0.0,0.0,0.0,0.0,0.0,0.0,0.0,0.0,0.0,0.0,0.0,0.0,0.0,0.0,0.0,0.0,0.0,0.0,0.0,0.0,0.0,0.0,0.0,0.0,0.0,0.0,0.0,0.0,0.0,0.0,0.0,0.0,0.0,0.0,0.0,0.0,0.0,0.0,0.0,0.0,0.0,0.0,0.0,0.0,0.0,0.0,0.0,0.0,0.0,0.0,0.0,0.0,0.0,0.0,0.0,0.0,0.0,0.0,0.0,0.0,0.0,0.0,0.0,0.0,0.0,0.0,0.0,0.0,0.0,0.0,0.0,0.0,0.0,0.0,0.0,0.0,0.0,0.0,0.0,0.0,0.0,0.0,0.0,0.0,0.0,0.0,0.0,0.0,0.0,0.0,0.0,0.0,0.0,0.0,0.0,0.0,0.0,0.0,0.0,2.5071,2.5105,0.0,2.5059,2.5029,2.5209,2.4771,2.442,2.4188,0.0,0.0,0.0,0.0,0.0,0.0,0.0,0.0,0.0,0.0,0.0,0.0,0.0,0.0,0.0,0.0,0.0,0.0,0.0,0.0,0.0,0.0,0.0,0.0,0.0,0.0,0.0,0.0,0.0,0.0,0.0,0.0,0.0,0.0,0.0,0.0,0.0,0.0,0.0,0.0,0.0,0.0,0.0,0.0,0.0,0.0,0.0,0.0,0.0,0.0,0.0,0.0,0.0,0.0,0.0,0.0,0.0,0.0,0.0,0.0,0.0,0.0,0.0,0.0,0.0,0.0,0.0,0.0,0.0,0.0,0.0,0.0,0.0,0.0,0.0,0.0,0.0,0.0,0.0,0.0,0.0,0.0,0.0,0.0,0.0,0.0,0.0,0.0,0.0,0.0,0.0,0.0,0.0,0.0,0.0,0.0,0.0,0.0,0.0,0.0,0.0,0.0,2.4342,2.4564,2.4755,0.0,2.4909,2.5014,2.5244,2.5023,2.477,2.4577,0.0,0.0,0.0,0.0,0.0,0.0,0.0,0.0,0.0,0.0,0.0,0.0,0.0,0.0,0.0,0.0,0.0,0.0,0.0,0.0,0.0,0.0,0.0,0.0,0.0,0.0,0.0,0.0,0.0,0.0,0.0,0.0,0.0,0.0,0.0,0.0,0.0,0.0,0.0,0.0,0.0,0.0,0.0,0.0,0.0,0.0,0.0,0.0,0.0,0.0,0.0,0.0,0.0,0.0,0.0,0.0,0.0,0.0,0.0,0.0,0.0,0.0,0.0,0.0,0.0,0.0,0.0,0.0,0.0,0.0,0.0,0.0,0.0,0.0,0.0,0.0,0.0,0.0,0.0,0.0,0.0,0.0,0.0,0.0,0.0,0.0,0.0,0.0,0.0,0.0,0.0,0.0,0.0,0.0,0.0,0.0,0.0,0.0,0.0,0.0,0.0,0.0,2.3166,2.3842,2.4323,2.4375,2.4758,2.5053,2.5192,2.5071,2.5031,0.0,0.0,0.0,0.0,0.0,0.0,0.0,0.0,0.0,0.0,0.0,0.0,0.0,0.0,0.0,0.0,0.0,0.0,0.0,0.0,0.0,0.0,0.0,0.0,0.0,0.0,0.0,0.0,0.0,0.0,0.0,0.0,0.0,0.0,0.0,0.0,0.0,0.0,0.0,0.0,0.0,0.0,0.0,0.0,0.0,0.0,0.0,0.0,0.0,0.0,0.0,0.0,0.0,0.0,0.0,0.0,0.0,0.0,0.0,0.0,0.0,0.0,0.0,0.0,0.0,0.0,0.0,0.0,0.0,0.0,0.0,0.0,0.0,0.0,0.0,0.0,0.0,0.0,0.0,0.0,0.0,0.0,0.0,0.0,0.0,0.0,0.0,0.0,0.0,0.0,0.0,0.0,0.0,0.0,0.0,0.0,0.0,0.0,0.0,0.0,0.0,0.0,0.0,2.2168,2.3187,2.3929,2.41,2.4557,2.4912,2.5052,2.5248,2.5251,2.5047,0.0,0.0,0.0,0.0,0.0,0.0,0.0,0.0,0.0,0.0,0.0,0.0,0.0,0.0,0.0,0.0,0.0,0.0,0.0,0.0,0.0,0.0,0.0,0.0,0.0,0.0,0.0,0.0,0.0,0.0,0.0,0.0,0.0,0.0,0.0,0.0,0.0,0.0,0.0,0.0,0.0,0.0,0.0,0.0,0.0,0.0,0.0,0.0,0.0,0.0,0.0,0.0,0.0,0.0,0.0,0.0,0.0,0.0,0.0,0.0,0.0,0.0,0.0,0.0,0.0,0.0,0.0,0.0,0.0,0.0,0.0,0.0,0.0,0.0,0.0,0.0,0.0,0.0,0.0,0.0,0.0,0.0,0.0,0.0,0.0,0.0,0.0,0.0,0.0,0.0,0.0,0.0,0.0,0.0,0.0,0.0,0.0,0.0,0.0,0.0,0.0,0.0,2.0527,2.2007,2.3112,2.3226,2.3985,2.4569,2.4745,2.5093,2.527,2.5208,0.0,0.0,0.0,0.0,0.0,0.0,0.0,0.0,0.0,0.0,0.0,0.0,0.0,0.0,0.0,0.0,0.0,0.0,0.0,0.0,0.0,0.0,0.0,0.0,0.0,0.0,0.0,0.0,0.0,0.0,0.0,0.0,0.0,0.0,0.0,0.0,0.0,0.0,0.0,0.0,0.0,0.0,0.0,0.0,0.0,0.0,0.0,0.0,0.0,0.0,0.0,0.0,0.0,0.0,0.0,0.0,0.0,0.0,0.0,0.0,0.0,0.0,0.0,0.0,0.0,0.0,0.0,0.0,0.0,0.0,0.0,0.0,0.0,0.0,0.0,0.0,0.0,0.0,0.0,0.0,0.0,0.0,0.0,0.0,0.0,0.0,0.0,0.0,0.0,0.0,0.0,0.0,0.0,0.0,0.0,0.0,0.0,0.0,0.0,0.0,0.0,0.0,1.8521,2.0528,2.1978,2.2006,2.3145,2.4025,2.4336,2.4735,2.5107,2.5426,0.0,0.0,0.0,0.0,0.0,0.0,0.0,0.0,0.0,0.0,0.0,0.0,0.0,0.0,0.0,0.0,0.0,0.0,0.0,0.0,0.0,0.0,0.0,0.0,0.0,0.0,0.0,0.0,0.0,0.0,0.0,0.0,0.0,0.0,0.0,0.0,0.0,0.0,0.0,0.0,0.0,0.0,0.0,0.0,0.0,0.0,0.0,0.0,0.0,0.0,0.0,0.0,0.0,0.0,0.0,0.0,0.0,0.0,0.0,0.0,-2.3777,0.0,0.0,0.0,0.0,0.0,0.0,0.0,0.0,0.0,0.0,0.0,0.0,0.0,0.0,0.0,0.0,0.0,0.0,0.0,0.0,0.0,0.0,0.0,0.0,0.0,0.0,0.0,0.0,0.0,0.0,0.0,0.0,0.0,0.0,0.0,0.0,0.0,0.0,0.0,0.0,0.0,1.7424,1.95,2.1108,2.1453,2.2476,2.3386,2.4025,2.4499,2.4852,2.509,2.5932,0.0,0.0,0.0,0.0,0.0,0.0,0.0,0.0,0.0,0.0,0.0,0.0,0.0,0.0,0.0,0.0,0.0,0.0,0.0,0.0,0.0,0.0,0.0,0.0,0.0,0.0,0.0,0.0,0.0,0.0,0.0,0.0,0.0,0.0,0.0,0.0,0.0,0.0,0.0,0.0,0.0,0.0,0.0,0.0,0.0,0.0,0.0,0.0,0.0,0.0,0.0,0.0,0.0,0.0,0.0,0.0,0.0,0.0,0.0,0.0,-2.4478,0.0,0.0,0.0,0.0,0.0,0.0,0.0,0.0,0.0,0.0,0.0,0.0,0.0,0.0,0.0,0.0,0.0,0.0,0.0,0.0,0.0,0.0,0.0,0.0,0.0,0.0,0.0,0.0,0.0,0.0,0.0,0.0,0.0,0.0,0.0,0.0,0.0,0.0,0.0,0.0,1.6368,1.859,2.0262,2.0445,2.1709,2.2779,2.3419,2.4016,2.4734,2.5628,2.6226,0.0,0.0,0.0,0.0,0.0,0.0,0.0,0.0,0.0,0.0,0.0,0.0,0.0,0.0,0.0,0.0,0.0,0.0,0.0,0.0,0.0,0.0,0.0,0.0,0.0,0.0,0.0,0.0,0.0,0.0,0.0,0.0,0.0,0.0,0.0,0.0,0.0,0.0,0.0,0.0,0.0,0.0,0.0,0.0,0.0,0.0,0.0,0.0,0.0,0.0,0.0,0.0,0.0,-2.8222,-2.8479,-2.9013,-2.941,-2.9579,-2.9454,-2.7133,-2.6056,-2.6011,-2.7012,0.0,0.0,0.0,0.0,0.0,0.0,0.0,0.0,0.0,0.0,0.0,0.0,0.0,0.0,0.0,0.0,0.0,0.0,0.0,0.0,0.0,0.0,0.0,0.0,1.5088,1.5177,1.4772,0.0,0.0,0.0,0.0,0.0,0.0,0.0,0.0,0.0,0.0,0.0,1.5525,1.7827,1.9472,1.9462,2.091,2.219,2.2895,2.3674,2.4761,2.6295,2.6622,2.7477,0.0,0.0,0.0,0.0,0.0,0.0,0.0,0.0,0.0,0.0,0.0,0.0,0.0,0.0,0.0,0.0,0.0,0.0,0.0,0.0,0.0,0.0,0.0,0.0,0.0,0.0,0.0,0.0,0.0,0.0,0.0,0.0,-1.7763,-1.8839,0.0,0.0,0.0,0.0,0.0,0.0,0.0,0.0,0.0,0.0,0.0,0.0,0.0,-2.8755,-2.9505,-2.8825,-2.8845,-2.9554,-2.9375,-2.9473,-2.9849,-3.013,-3.0261,-3.0242,-2.9934,0.0,-2.8853,-2.903,0.0,0.0,0.0,0.0,0.0,0.0,0.0,0.0,0.0,0.0,0.0,0.0,0.0,0.0,0.0,0.0,0.0,0.0,0.0,0.0,0.0,0.0,1.2269,1.308,1.3322,1.3176,0.0,1.2749,1.2923,1.2012,1.308,0.0,0.0,0.0,0.0,0.0,0.0,0.0,1.5418,1.7483,1.8967,1.8925,2.0237,2.1687,2.3056,2.4063,2.5102,2.6239,2.7733,2.8657,2.8838,2.9805,0.0,0.0,0.0,0.0,0.0,0.0,0.0,0.0,0.0,0.0,0.0,0.0,0.0,0.0,0.0,0.0,0.0,0.0,0.0,0.0,0.0,0.0,0.0,0.0,0.0,0.0,0.0,0.0,0.0,-2.0669,-2.2119,-2.2864,-2.4143,-2.5159,0.0,0.0,0.0,0.0,0.0,0.0,0.0,0.0,0.0,-2.9959,-2.9537,-2.9555,-3.0066,-2.9528,-2.9469,-2.9857,-2.9723,-2.9764,-2.9941,-3.0062,-3.0023,-2.9834,-2.9861,-2.9576,-2.909,-2.9623,-2.9585,-2.9113,0.0,0.0,0.0,0.0,-2.2745,-2.0076,-1.3761,-0.7664,-0.2254,0.0229,0.0,0.0,0.0,0.0,0.0,0.0,0.0,0.0,0.0,0.0,0.9277,1.1162,1.126,1.108,1.164,1.1688,1.1494,0.0,1.2058,1.2496,1.1439,0.0,0.0,0.0,0.0,1.6098,1.5825,1.7668,1.9076,1.9404,2.0495,2.1811,2.3288,2.4041,2.5171,2.6933,2.7755,2.8496,2.9268,2.9813,3.0153,0.0,0.0,0.0,0.0,0.0,0.0,0.0,0.0,0.0,0.0,0.0,0.0,0.0,0.0,0.0,0.0,0.0,0.0,0.0,0.0,0.0,0.0,0.0,0.0,0.0,0.0,0.0,0.0,-2.4115,-2.5425,-2.5917,-2.6795,-2.7571,0.0,0.0,0.0,0.0,0.0,0.0,-3.0079,-2.9869,-2.9882,-3.0264,-2.9929,-2.9877,-3.0113,-2.9768,-2.9641,-2.9749,-2.9576,-2.9526,-2.956,-2.944,-2.9219,-2.8978,-2.8852,-2.8596,-2.8331,-2.925,-2.9428,-2.9071,-2.8599,-2.8144,-2.7466,-2.5094,-2.2863,-2.0022,-1.3207,-0.778,-0.4074,-0.4967,-0.1663,0.1695,-0.3747,0.0,0.0,0.0,0.0,0.327,0.5871,0.6603,0.72,0.9336,0.9564,0.9646,1.0899,1.0822,1.0634,0.0,1.1717,1.2143,1.2143,0.0,0.0,0.0,0.0,1.6306,1.6327,1.7873,1.9153,1.9828,2.079,2.2026,2.3612,2.4214,2.5362,2.7405,2.7766,2.8368,2.9439,2.9672,2.9829,2.9917,0.0,0.0,0.0,0.0,0.0,0.0,0.0,0.0,0.0,0.0,0.0,0.0,0.0,0.0,0.0,0.0,0.0,0.0,0.0,0.0,0.0,0.0,0.0,0.0,0.0,0.0,0.0,0.0,0.0,-2.6727,-2.8172,0.0,0.0,0.0,0.0,-2.9702,-2.986,-2.9909,-2.9838,-2.9804,-2.9831,-2.9916,-2.9897,-2.9905,-2.9913,-2.9512,-2.9328,-2.9314,-2.8868,-2.8669,-2.8666,-2.8148,-2.7894,-2.7845,-2.736,-2.7,-2.6877,-2.7742,-2.811,-2.8035,-2.7559,-2.7348,-2.701,-2.4416,-2.1038,-1.7209,-1.3571,-0.8616,-0.3768,-0.3051,-0.3067,-0.3394,-0.2952,-0.3213,0.0,0.0,0.1327,0.334,0.5986,0.6715,0.6911,0.7892,0.8742,0.9338,0.9402,1.004,1.1045,0.0,1.2887,1.2948,1.2948,0.0,1.4177,1.4177,1.5496,1.6531,1.6769,1.7885,1.9003,1.9825,2.079,2.2163,2.3999,2.4879,2.5885,2.7226,2.8214,2.876,2.8842,2.94,2.9531,2.9155,2.9134,0.0,0.0,0.0,0.0,0.0,0.0,0.0,0.0,0.0,0.0,0.0,0.0,0.0,0.0,0.0,0.0,0.0,0.0,0.0,0.0,0.0,0.0,0.0,0.0,0.0,0.0,0.0,0.0,-2.8809,-2.9459,0.0,-2.9698,-3.0,-3.0072,-2.9785,-2.9829,-2.9839,-2.9812,-2.9508,-2.9361,-2.9372,-2.9007,-2.8808,-2.8808,-2.8191,-2.7885,-2.7885,-2.7353,-2.711,-2.711,-2.6909,-2.6485,-2.5866,-2.5664,-2.4915,-2.3819,-2.3787,-2.4172,-2.477,-2.3942,-2.2995,-2.1721,-1.8734,-1.6371,-1.4222,-1.0608,-0.698,-0.354,-0.16,-0.1136,-0.1199,-0.0334,0.0133,0.0662,0.2124,0.3467,0.4686,0.5613,0.6268,0.6915,0.7767,0.8226,0.8742,0.9913,0.9913,1.0104,1.1233,1.1841,1.2389,1.2887,1.3674,1.4392,1.4864,1.5853,1.6701,1.7224,1.8154,1.9334,2.089,2.1397,2.2466,2.4652,2.5102,2.5844,2.7206,2.7625,2.7949,2.821,2.8424,2.8543,2.8529,2.8408,2.8334,0.0,0.0,0.0,0.0,0.0,0.0,0.0,0.0,0.0,0.0,0.0,0.0,0.0,0.0,0.0,0.0,0.0,0.0,0.0,0.0,0.0,0.0,0.0,0.0,0.0,0.0,-2.966,-3.0037,-3.0154,-3.0117,-2.9922,-2.9873,-2.9745,-2.948,-2.9164,-2.8951,-2.8891,-2.8421,-2.8154,-2.8154,-2.7772,-2.7579,-2.7579,-2.6964,-2.6667,-2.6667,-2.6168,-2.5806,-2.5579,-2.5155,-2.449,-2.3616,-2.2924,-2.2104,-2.1142,-1.9494,-1.906,-1.9562,-2.0251,-1.9292,-1.7312,-1.469,-1.3032,-1.1448,-0.7345,-0.447,-0.2166,0.0134,0.0941,0.1074,0.1939,0.2407,0.2943,0.4143,0.4878,0.5415,0.5749,0.6461,0.7307,0.7897,0.8221,0.8742,0.9913,0.9913,0.9977,1.0856,1.1226,1.1717,1.2826,1.3425,1.4154,1.5235,1.6036,1.6765,1.7523,1.8221,1.9465,2.1506,2.1697,2.2579,2.476,2.5105,2.5693,2.679,2.7129,2.7409,2.7695,2.784,2.7901,2.7887,2.7472,2.7243,2.719,0.0,0.0,0.0,0.0,0.0,0.0,0.0,0.0,0.0,0.0,0.0,0.0,0.0,0.0,0.0,0.0,0.0,0.0,0.0,0.0,0.0,0.0,0.0,-2.9606,-2.9958,-3.0182,-3.0176,-3.0166,-3.0032,-2.9687,-2.9338,-2.9045,-2.8778,-2.7878,-2.7291,-2.7078,-2.6582,-2.6269,-2.6269,-2.6269,-2.6252,-2.6236,-2.5891,-2.5707,-2.5691,-2.5271,-2.4753,-2.404,-2.2892,-2.1942,-2.1144,-1.9144,-1.8642,-1.9013,-1.5203,-1.3104,-1.2646,-1.6526,-1.6492,-1.4041,-1.2611,-1.0938,-0.8723,-0.3967,-0.1242,0.0396,0.22,0.2809,0.2941,0.3794,0.3467,0.3141,0.4863,0.5391,0.5588,0.6519,0.7372,0.8027,0.8027,0.8678,0.9338,0.9396,1.004,1.087,1.171,1.117,1.1178,1.2765,1.307,1.3606,1.5167,1.6036,0.0,1.7523,1.8221,1.9453,2.1459,2.1697,2.2412,2.421,2.4871,2.5411,2.5977,2.6807,2.7255,2.7255,2.7619,2.7648,2.7255,2.6402,2.5689,2.5182,0.0,0.0,0.0,0.0,0.0,0.0,0.0,0.0,0.0,0.0,0.0,0.0,0.0,0.0,0.0,0.0,0.0,0.0,0.0,0.0,0.0,0.0,-2.9858,-3.0013,-3.0125,-3.0061,-2.9726,-2.961,-2.9298,-2.8667,-2.819,-2.7805,-2.7593,-2.6987,-2.6578,-2.6533,-2.6151,-2.5942,-2.5942,-2.5635,-2.525,-2.4773,-2.434,-2.3891,-2.3396,-2.2922,-2.2281,-2.155,-2.1233,-2.0135,-1.8486,-1.7919,-1.6524,-1.4515,-1.2814,-1.0884,-0.9252,-1.0977,-1.0066,-0.7648,-0.5853,-0.3325,-0.0453,0.1508,0.251,0.3113,0.4235,0.4563,0.4635,0.4851,0.5245,0.5632,0.6183,0.6776,0.7302,0.7567,0.7827,0.8156,0.8812,0.9139,0.9652,1.0836,1.0856,1.0989,1.2389,1.202,1.1958,1.3606,1.3846,1.4213,1.5235,1.6036,0.0,1.7523,1.8221,1.927,2.0868,2.1424,2.2243,2.3618,2.4277,2.5012,2.5924,2.6229,2.6368,2.6368,2.6454,2.63,2.5786,2.5545,2.5144,0.0,0.0,0.0,0.0,0.0,0.0,0.0,0.0,0.0,0.0,0.0,0.0,0.0,0.0,0.0,0.0,0.0,0.0,0.0,0.0,0.0,0.0,-2.9941,-2.9913,-2.9831,-2.9811,-2.9687,-2.9284,-2.9007,-2.8544,-2.7825,-2.7303,-2.6882,-2.657,-2.5909,-2.5375,-2.5158,-2.4743,-2.4253,-2.3625,-2.3408,-2.2951,-2.2245,-2.1939,-2.1462,-2.0764,-2.0443,-1.9737,-1.877,-1.8422,-1.7221,-1.5419,-1.4802,-1.3261,-1.1092,-0.9166,-0.7283,0.0,0.0,0.0,0.0,0.0,0.1713,0.3934,0.4779,0.537,0.5767,0.6282,0.6408,0.6477,0.6889,0.7089,0.7284,0.7692,0.8156,0.8549,0.8549,0.9052,0.9742,1.0205,1.0338,1.071,1.202,1.1655,1.1593,1.3183,1.3122,0.0,1.4501,1.4451,1.4451,1.5294,1.6312,1.7146,1.7523,1.8501,1.9554,2.0696,2.1342,2.2118,2.3084,2.3903,0.0,0.0,0.0,2.5652,2.5652,2.5652,0.0,0.0,0.0,2.4576,2.4074,2.3054,0.0,0.0,2.1301,1.971,0.0,0.0,0.0,0.0,0.0,0.0,0.0,0.0,0.0,0.0,0.0,0.0,0.0,0.0,0.0,0.0,-2.9823,-2.962,-2.9152,-2.8989,-2.8856,-2.869,-2.8233,-2.7614,-2.6857,-2.6404,-2.5976,-2.544,-2.4507,-2.3731,-2.32,0.0,0.0,0.0,0.0,-1.9875,-1.8988,-1.8988,-1.8514,-1.7686,-1.7686,-1.6927,-1.5517,-1.4773,-1.3561,-1.1881,-1.0512,-0.9229,-0.7807,-0.4696,-0.2613,-0.1621,-0.3489,-0.2603,0.0,0.3241,0.4976,0.584,0.6737,0.0,0.0,0.8404,0.8404,0.8538,0.9262,0.8935,0.8538,0.9256,0.9582,0.9709,0.9709,1.0836,1.1958,1.1958,1.1958,1.2143,1.2948,1.2512,1.2443,1.4025,1.4323,1.456,1.54,1.4923,1.4678,1.54,1.68,1.7743,1.7743,1.8939,2.0055,2.0597,0.0,0.0,2.2558,2.3664,2.4552,2.5067,2.5105,2.5105,2.5105,2.5051,2.4792,2.4307,2.4307,2.4074,2.3595,2.292,2.23,2.1649,2.0471,1.915,0.0,0.0,0.0,0.0,0.0,0.0,0.0,0.0,0.0,0.0,0.0,0.0,0.0,0.0,0.0,-2.9602,-2.8958,-2.8294,-2.7817,-2.7011,-2.6668,-2.7221,-2.6691,-2.5874,-2.4866,-2.434,-2.3823,-2.3197,-2.2041,-2.1274,-2.1179,-2.0509,-1.9699,-1.8773,-1.8721,-1.7792,-1.5828,-1.5763,-1.5022,-1.3678,0.0,0.0,-1.1361,-1.1188,-0.9524,-0.6678,-0.6324,-0.4513,-0.1676,-0.026,0.2085,0.4652,0.289,0.342,0.5264,0.6561,0.7673,0.8601,0.9446,1.026,1.1009,1.1058,1.1073,1.094,1.0431,1.062,0.0,1.0431,1.1253,1.2258,1.2258,1.2512,1.2765,1.2765,1.2765,1.3,1.3786,1.3364,1.3243,1.4874,1.5119,1.5332,1.614,1.614,1.6083,1.6265,1.7512,1.8501,1.8501,1.9267,1.985,2.0003,2.1037,2.1744,2.1899,2.3054,2.3991,2.4511,2.4552,2.4552,2.4552,2.4158,2.3879,2.3752,2.3752,2.3724,2.3595,2.2469,2.1852,2.1697,2.0966,1.9863,0.0,0.0,0.0,0.0,0.0,0.0,0.0,0.0,0.0,0.0,0.0,-2.8777,0.0,0.0,-2.9139,-2.8623,-2.7899,-2.7081,-2.6213,-2.5078,-2.4847,-2.6185,-2.5537,-2.4571,-2.3423,-2.2776,-2.2059,-2.105,-2.0023,-1.932,-1.9037,-1.7827,-1.6689,-1.5563,-1.511,-1.4183,-1.2654,-1.2174,-1.1383,-1.0159,-0.934,-0.8275,-0.7056,-0.6589,-0.4994,-0.2581,-0.2581,-0.084,0.2079,0.3833,0.6369,0.9081,0.8164,0.7861,0.8019,0.8845,0.9731,1.0559,1.148,1.1981,1.235,1.2381,1.2389,1.232,1.1873,1.2066,1.232,1.1873,1.2373,1.3009,1.3009,1.3312,1.3606,1.3606,1.3606,1.3906,1.5089,1.4433,1.4195,1.611,1.6167,1.6156,1.6912,1.7357,1.7468,1.709,1.8015,1.8715,1.8715,1.9359,1.9798,1.9798,2.0939,2.1697,2.1697,2.3113,2.3991,2.3991,2.4266,2.4266,2.3991,2.3752,2.3595,2.3595,2.329,2.3143,2.3143,2.1866,2.1245,2.1245,2.0584,1.9722,0.0,0.0,0.0,0.0,0.0,0.0,0.0,0.0,-2.6032,-2.7483,-2.8464,-2.8983,-2.8758,-2.8631,-2.8294,-2.7453,-2.6554,-2.5562,-2.4483,-2.2993,-2.2596,-2.4163,-2.3707,-2.2863,-2.1773,-2.1003,-2.0132,-1.901,-1.7873,-1.7036,-1.6501,-1.4951,-1.3325,-1.1904,-1.116,-1.0184,-0.8908,-0.817,-0.7331,-0.6258,-0.4662,-0.3501,-0.2613,-0.1756,-0.0389,0.1298,0.1809,0.3421,0.583,0.8106,1.0361,1.2393,1.2393,1.1637,1.0643,1.125,1.1813,1.2477,1.3201,1.3537,1.3657,1.3304,1.3243,1.3243,1.3243,1.3243,1.3243,1.3416,1.3485,1.3485,1.3657,1.4136,1.4678,1.4678,1.4787,1.5187,1.6472,1.5718,1.5409,1.7235,1.7246,1.7146,1.7688,1.8447,1.8661,1.7895,1.8447,1.8927,1.8927,1.9423,1.9798,1.9798,2.0939,2.1791,2.2025,2.3419,2.4074,2.3638,2.3991,2.4032,2.3595,2.3595,2.3595,2.3595,2.3098,2.2875,2.2875,2.1595,2.0979,2.0979,2.0144,1.9475,-0.5701,-0.8712,-1.1682,-1.2104,-1.5525,-1.9242,0.0,0.0,-2.5595,-2.7917,-2.8679,-2.8899,-2.8805,-2.8455,-2.7755,-2.6475,-2.4611,-2.3186,-2.2717,-2.0439,-1.888,-1.912,-1.9648,-1.9762,-1.9111,-1.8307,-1.7549,-1.6783,-1.4658,-1.3405,-1.3304,-1.1753,-1.0092,-0.8444,-0.827,-0.666,-0.3486,-0.3355,-0.2502,-0.0858,0.0131,0.1048,0.191,0.2747,0.4186,0.5986,0.8297,1.0279,1.1881,1.2947,1.3924,1.484,1.484,1.5148,1.5521,1.4974,1.4819,1.4935,1.5003,1.5505,1.5901,1.4501,1.4094,1.4094,1.4094,1.4094,1.4195,1.4857,1.5061,1.5284,1.5958,1.6197,1.6255,1.6255,1.6743,1.7291,1.7468,1.7346,1.7291,1.7578,1.8058,1.8501,1.8555,1.9202,1.9423,1.8715,1.9202,1.9695,1.9695,1.9747,1.9798,1.9798,2.0939,2.2179,2.3304,2.358,2.3681,2.3595,2.3681,2.3681,2.3595,2.3595,2.3595,2.3595,2.3551,2.3508,2.3508,2.2225,2.1615,2.1568,2.037,1.9747,-0.3438,-0.7565,-1.1247,0.0,-1.5786,-1.8983,-2.0334,-2.3096,-2.567,-2.6764,-2.7877,-2.8218,-2.6749,-2.5825,-2.4592,0.0,-2.101,-1.9872,-1.8881,-1.7345,-1.6074,-1.518,-1.5039,-1.5352,-1.639,-1.5419,-1.4427,-1.3688,-1.1852,-1.0478,-0.9936,-0.8355,-0.663,-0.4851,-0.4273,-0.2825,-0.0328,0.0197,0.1053,0.2299,0.4181,0.5288,0.5697,0.7031,0.8611,1.0327,1.1882,1.3467,1.4898,1.5302,1.5894,1.6592,1.6592,1.677,1.7025,1.6208,1.6218,1.6634,1.6634,1.689,1.7024,1.6384,1.6203,1.6203,1.6203,1.5881,1.5718,1.6419,1.6337,1.6208,1.6922,1.7135,1.7135,1.7135,1.7357,1.7743,1.8167,1.7895,1.7852,1.8715,1.8768,1.8821,1.9254,1.9592,1.9695,1.9371,1.9579,1.9798,1.9798,1.9798,2.0093,2.0855,2.171,2.262,2.3508,2.3595,2.3595,2.3595,2.3595,2.3595,2.3595,2.3595,2.3595,2.3595,2.3246,2.2905,2.25,2.1932,2.1315,2.0607,2.0434,2.0144,-0.0,0.0,0.0,-0.8408,-1.0711,-1.2933,-1.392,-1.715,-2.0297,-2.1556,-2.3696,-2.482,-2.3087,-2.1941,-2.0321,-1.7532,-1.6425,-1.5574,-1.4505,-1.3371,-1.2265,-1.1192,-1.0403,-1.0431,-1.183,-1.185,-1.1478,-1.0712,-0.8874,-0.7329,-0.6398,-0.4748,-0.3045,-0.1253,-0.053,0.0726,0.2752,0.361,0.4457,0.5417,0.7751,0.8868,0.8931,1.0629,1.2163,1.3534,1.4363,1.5608,1.7048,1.7048,1.7522,1.8232,1.8232,1.8232,1.8167,1.7566,1.7577,1.7895,1.7895,1.7895,1.7841,1.7688,1.7578,1.7578,1.7578,1.7246,1.6978,1.7688,1.7357,1.6978,1.7688,1.7895,1.7895,1.7895,1.807,1.8328,1.8874,1.8608,1.8501,1.9579,1.9371,1.915,1.9695,1.9798,1.9798,1.9798,1.9798,1.9798,1.9798,1.9952,2.0471,2.1554,2.23,2.292,2.3551,2.3595,2.3595,2.3595,2.3595,2.3595,2.3595,2.3595,2.3595,2.3595,2.3157,2.2725,2.2225,2.1885,2.1232,2.032,2.0446,2.0245,0.0,0.0,0.2393,0.3743,0.3109,0.209,0.1846,-0.1792,-0.6369,-1.0666,-1.469,-1.7486,-1.7693,-1.6776,-1.5142,-1.2471,-1.0947,-1.003,-0.9978,-0.8129,-0.6766,-0.6706,-0.5963,-0.5189,0.0,-0.7305,-0.8902,-0.7978,-0.5575,-0.3753,-0.2838,-0.1125,0.0662,0.2377,0.2444,0.376,0.6404,0.7264,0.8095,0.9041,1.0802,1.1552,1.1613,1.3254,1.4458,1.5293,1.6028,1.7225,1.865,1.865,1.9097,1.9747,1.9747,1.9747,1.9747,1.9695,1.9254,1.8661,1.8661,1.8661,1.8555,1.7841,1.7578,1.7578,1.7578,1.7578,1.7743,1.8447,1.8124,1.7743,1.8501,1.8661,1.8661,1.8661,1.9202,1.9747,1.9747,1.9747,1.9747,1.9798,1.9798,1.9747,1.9798,1.9798,1.9798,1.9798,1.9798,1.9798,1.9798,2.0346,2.1028,2.1649,2.23,2.292,2.3551,2.3595,2.3595,2.3595,2.3595,2.3595,2.3595,2.3595,2.3595,2.3595,2.3595,2.3551,2.3551,2.2317,2.1697,2.1602,2.037,1.9798,0.0,0.0,1.0412,1.1157,0.8306,0.5194,0.4681,0.1033,-0.2676,-0.4164,-0.8624,-1.1851,-1.0573,-1.0615,-1.0137,-0.7814,-0.6516,-0.5608,-0.5077,-0.4374,-0.3706,-0.313,-0.2814,0.0,0.0,0.0,0.0,-0.3524,-0.1633,-0.0066,0.079,0.1971,0.3416,0.5212,0.5277,0.6513,0.9186,0.9427,1.0309,1.172,1.3322,1.4615,1.5656,1.6208,1.6847,1.7566,1.83,1.9169,2.0118,2.0518,2.0815,2.1037,2.1037,2.1037,2.1037,2.1037,2.0913,2.0568,1.9709,1.9423,1.9371,1.915,1.9044,1.9044,1.9044,1.8715,1.8501,1.9202,1.8886,1.8501,1.9254,1.9423,1.9423,1.9423,1.9631,1.9798,1.9798,1.9798,1.9798,1.9798,1.9798,1.9798,1.9798,1.9798,1.9798,1.9798,1.9798,1.9952,2.0396,2.1015,2.1629,2.23,2.2905,2.3377,2.3595,2.3595,2.3595,2.3595,2.3595,2.3595,2.3595,2.3595,2.3595,2.3595,2.3595,2.3421,2.3009,2.2995,2.2729,2.2332,2.1889,2.1663,0.0,1.8087,1.7437,1.8278,1.6069,1.3655,1.3582,1.0185,0.6624,0.5138,0.0155,-0.3735,-0.3113,-0.3792,-0.3781,-0.1794,-0.1225,-0.071,0.013,-0.0065,0.0065,0.0981,0.1046,0.1377,0.0,0.0,0.0,0.0131,0.1702,0.3081,0.3957,0.5175,0.6475,0.7955,0.8265,0.9523,1.1751,1.205,1.303,1.469,1.5658,1.6634,1.7633,1.7841,1.8382,1.9113,1.9787,2.0495,2.1161,2.152,2.1697,2.1697,2.1697,2.1697,2.1697,2.1697,2.1697,2.1554,2.0756,2.0471,2.0421,2.0245,2.0156,2.0105,1.985,1.9475,1.9202,1.9695,1.9475,1.9202,1.9695,1.9798,1.9798,1.9798,1.9798,1.9798,1.9798,1.9798,1.9798,1.9798,1.9798,1.9798,1.9798,2.0003,2.0245,2.0471,2.0471,2.0584,2.0746,2.1547,2.2193,2.2649,2.3246,2.3595,2.3595,2.3595,2.3595,2.3595,2.3595,2.3595,2.3595,2.3595,2.3595,2.3595,2.3849,2.3777,2.3374,2.3775,2.3807,2.3428,2.3117,2.2831,2.3489,2.3275,2.3572,2.4993,2.5958,2.6809,2.7702,2.4759,2.0684,1.6667,1.1173,0.6515,0.0,0.0,0.3554,0.5254,0.4891,0.4632,0.547,0.4826,0.4635,0.0,0.0,0.0,0.0,0.0,0.0,0.3228,0.0,0.5967,0.6794,0.8468,0.9756,1.0607,1.1388,1.2591,1.4164,1.5003,1.6172,1.7688,1.7688,1.7688,1.7743,1.8489,1.9165,1.9825,2.057,2.121,2.1744,2.1791,2.1791,2.1791,2.1791,2.1791,2.1791,2.1791,2.1791,2.1791,2.1791,2.1744,2.1615,2.1028,2.0845,2.0746,2.0093,1.9901,1.985,1.9901,1.985,1.9798,1.9901,1.985,1.9798,1.985,1.9798,1.9798,1.9798,1.9798,1.9798,1.985,1.985,1.985,1.985,2.0396,2.1042,2.1657,2.1799,2.1609,2.0993,2.1941,2.2694,2.274,2.3246,2.3595,2.3595,2.3625,2.3655,2.3655,2.3684,2.3699,2.3699,2.3699,2.3699,2.3699,2.4343,2.4627,2.4627,2.4707,2.4742,2.4785,2.4112,2.3461,2.7588,2.7786,2.8057,2.8493,2.8735,2.8738,2.8305,2.5799,2.2995,2.0921,1.63,1.2189,0.0,0.0,0.0,0.8212,0.8976,0.0,0.9172,0.8931,0.0,0.826,0.0,0.8943,0.8595,0.9662,0.0,0.0,0.9253,0.9536,1.0345,1.145,1.2112,1.2373,1.3107,1.3978,1.5003,1.6342,1.749,1.8436,1.8436,1.8715,1.9254,1.9965,2.0383,2.057,2.1738,2.2314,2.2498,2.2935,2.3128,2.3128,2.3128,2.3128,2.3128,2.3128,2.3128,2.3128,2.3128,2.25,2.1649,2.152,2.1472,2.1424,2.128,2.0904,2.0646,2.1099,2.0521,2.0042,2.0988,2.0521,1.9952,2.0459,2.0144,1.9798,1.9798,1.9798,1.9952,2.0459,2.056,2.056,2.056,2.0696,2.1189,2.2297,2.285,2.2979,2.2278,2.2512,2.2875,2.3334,2.3508,2.3595,2.3595,2.4073,2.4373,2.4373,2.4822,2.5091,2.5091,2.5091,2.5091,2.5091,2.527,2.536,2.536,2.5369,2.5649,2.6124,2.5387,2.5223,2.9647,2.9754,2.9824,2.981,2.9677,2.9324,2.8452,2.6826,2.4942,2.3093,1.9725,0.0,0.0,0.0,0.0,0.0,0.0,0.0,1.205,1.1676,1.1323,0.0,1.1265,0.0,1.0892,1.1712,1.2562,0.0,1.2257,1.1966,1.2712,1.3536,1.4159,1.4495,1.5235,1.6028,1.677,1.7981,1.8915,1.9594,1.9594,2.0004,2.0657,2.1015,2.1355,2.1657,2.2374,2.283,2.3098,2.3465,2.3595,2.3595,2.3595,2.3595,2.3595,2.3595,2.3595,2.364,2.3939,2.3568,2.2887,2.2338,2.2146,2.21,2.1805,2.1472,2.1245,2.1615,2.1183,2.0805,2.1506,2.1183,2.0706,2.1113,2.1116,2.1051,2.1051,2.1299,2.1637,2.1992,2.2042,2.2142,2.244,2.249,2.2846,2.3846,2.4301,2.4373,2.4022,2.3963,2.4101,2.4433,2.4477,2.4477,2.4477,2.4837,2.5061,2.5061,2.5405,2.5615,2.5615,2.5615,2.5615,2.5615,2.5899,2.6033,2.6033,2.6333,2.6662,2.7021,2.6642,2.6462,3.0339,3.0156,2.9971,2.9792,2.9527,2.9111,2.8334,2.7525,2.6269,2.3902,0.0,1.9855,1.81,1.6684,1.5766,1.5548,0.0,1.4542,1.4557,1.3906,1.3433,1.3451,1.3476,1.3476,1.3468,1.3476,1.4049,1.5476,1.4396,1.3862,1.4517,1.5235,1.5924,1.6658,1.7379,1.8112,1.898,1.9619,2.0245,2.0944,2.0944,2.121,2.1697,2.1805,2.2146,2.2694,2.2785,2.3113,2.361,2.3699,2.3729,2.3744,2.3834,2.3864,2.3864,2.3864,2.3864,2.3954,2.4552,2.4716,2.4566,2.3462,2.3091,2.2999,2.2386,2.2136,2.2088,2.2183,2.2088,2.1993,2.2183,2.2088,2.1993,2.2088,2.2457,2.2823,2.2823,2.3376,2.3803,2.3701,2.3752,2.4019,2.4581,2.4679,2.4917,2.5625,2.5734,2.5764,2.5854,2.5719,2.5615,2.5615,2.5615,2.5615,2.5615,2.5689,2.5734,2.5734,2.5824,2.5869,2.5869,2.5869,2.5869,2.5869,2.6437,2.6722,2.6722,2.734,2.767,2.7709,2.7709,2.7432,3.026,3.0185,3.0053,2.9589,2.9172,2.874,2.8121,2.6943,0.0,0.0,0.0,2.1014,1.9558,1.9129,1.8602,1.7357,0.0,0.0,0.0,0.0,1.6546,0.0,0.0,0.0,0.0,0.0,0.0,0.0,1.6935,1.688,1.698,1.7102,1.7544,1.8263,1.8436,1.9125,2.0434,2.0547,2.093,2.1568,2.1568,2.1615,2.1697,2.2253,2.2603,2.274,2.3231,0.0,2.364,2.4223,2.4448,2.4462,2.5046,2.5255,2.5255,2.5255,2.5255,2.527,2.539,2.5435,2.5373,2.5161,2.5116,2.507,2.4961,2.4601,2.4283,2.4805,2.4187,2.3582,2.4648,2.4138,2.3482,2.404,2.3879,2.3548,2.3548,2.4035,2.4369,2.3803,2.417,2.4581,2.4679,2.4679,2.5063,2.6236,2.6422,2.6617,2.7156,2.6288,2.5615,2.5615,2.5615,2.5615,2.5615,2.6108,2.6422,2.6422,2.6931,2.723,2.723,2.723,2.723,2.723,2.7385,2.7445,2.7445,2.7565,2.7859,2.8427,2.8427,2.8659,3.0064,2.9903,2.9701,2.9307,2.8883,2.8467,2.802,0.0,0.0,0.0,0.0,2.2122,2.0581,0.0,0.0,0.0,0.0,0.0,0.0,0.0,0.0,0.0,0.0,0.0,0.0,0.0,0.0,1.8112,1.8167,1.8167,1.8167,1.885,1.9426,1.9799,2.008,2.0568,2.1245,2.1245,2.1582,2.2193,2.2193,2.2562,2.3216,2.352,2.3862,2.4217,2.4865,2.5129,2.516,2.5815,2.6069,2.6115,2.6399,2.6523,2.6523,2.6523,2.6361,2.6108,2.6459,2.6378,2.6183,2.6512,2.6168,2.5615,2.5615,2.5396,2.5254,2.5506,2.5143,2.4839,2.5458,2.5143,2.4776,2.5096,2.5199,2.5307,2.564,2.5979,2.6094,2.5763,2.5979,2.6194,2.6194,2.6194,2.6411,2.7051,2.741,2.7754,2.8068,2.7859,2.741,2.6707,2.6632,2.6632,2.6632,2.6916,2.7096,2.7096,2.7395,2.7625,2.7625,2.7919,2.8113,2.8113,2.8442,2.8622,2.8622,2.8622,2.8786,2.9116,2.9116,2.928,2.9851,2.9587,2.933,2.9067,2.8682,2.8316,2.7982,2.7151,0.0,0.0,2.391,2.304,2.15,0.0,0.0,0.0,0.0,0.0,0.0,0.0,0.0,0.0,0.0,0.0,0.0,0.0,0.0,1.8874,1.9085,1.9137,1.9137,2.0307,2.0979,2.0979,2.1472,2.1758,2.1899,2.2072,2.2451,2.3093,2.3238,2.3924,2.5002,2.5002,2.5364,2.6016,2.6479,2.6682,2.6741,2.7354,2.7612,2.7644,2.7747,2.7853,2.7811,2.7684,2.7427,2.717,2.7442,2.7283,2.7067,2.7445,2.6871,2.6033,2.6033,2.6033,2.6033,2.6033,2.6033,2.6033,2.6033,2.6033,2.6033,2.6033,2.6422,2.6946,2.7505,2.7679,2.7784,2.7784,2.7904,2.8045,2.8045,2.8045,2.8045,2.8045,2.8472,2.8801,2.8801,2.9265,2.9175,2.8113,2.8045,2.8045,2.8045,2.8045,2.8045,2.8045,2.8045,2.8045,2.8045,2.8517,2.8801,2.8801,2.9325,2.9579,2.9579,2.9579,2.9654,2.9774,2.9774,2.9864,2.9767,2.9551,2.933,2.9067,2.8682,2.8316,2.7982,0.0,0.0,2.5287,2.4246,2.3288,2.2634,2.1561,0.0,0.0,0.0,1.9798,0.0,0.0,0.0,0.0,0.0,0.0,0.0,0.0,0.0,1.9631,2.0245,2.0597,2.0597,2.1245,2.1615,2.1615,2.1649,2.1993,2.2603,2.3209,2.3792,2.4447,2.5044,2.5697,2.6313,2.6313,2.6663,2.7221,2.7304,2.7304,0.0,2.8035,2.8324,2.8361,2.8958,2.9214,2.917,2.8592,2.8715,2.9005,2.7969,2.7902,2.8242,2.7745,2.7535,2.7445,2.7445,2.7445,2.7445,2.7445,2.7445,2.7445,2.7445,2.7445,2.7445,2.7445,2.749,2.755,2.761,2.8068,2.8502,2.8502,2.8981,2.94,2.94,2.94,2.94,2.94,2.9445,2.949,2.949,2.9549,2.9535,2.9415,2.94,2.94,2.94,2.94,2.94,2.94,2.94,2.94,2.94,2.946,2.949,2.949,2.9549,2.9579,2.9579,2.9579,2.9864,3.0417,3.0417,3.0746,2.957,2.9353,2.9134,2.904,2.8558,2.8047,2.7926,0.0,0.0,2.5395,2.4839,2.4138,2.295,2.2267,2.1704,0.0,0.0,0.0,0.0,0.0,0.0,0.0,0.0,0.0,0.0,0.0,2.1017,2.2094,2.2779,2.314,2.314,2.2616,2.247,2.2885,2.3241,2.3783,2.4425,2.4737,2.4964,2.5226,2.5864,2.6488,2.7129,2.7469,2.8013,2.8629,2.8988,2.9156,0.0,2.9832,3.0087,3.017,3.0883,3.1165,3.1172,3.1386,3.1356,3.1177,3.0747,3.0179,2.972,2.9469,2.9143,2.8712,2.8308,2.8472,2.8771,2.8771,2.8771,2.8771,2.8771,2.8771,2.8771,2.8771,2.8771,2.8771,2.8771,2.8996,2.919,2.919,2.94,2.9579,2.9579,2.9579,2.9579,2.9579,2.9894,3.0133,3.0133,3.0492,3.0746,3.0746,3.0058,2.9579,2.9579,2.9579,2.9579,2.9579,2.9579,2.9579,2.9579,2.9939,3.0133,3.0133,3.0552,3.0746,3.0746,3.0746,3.1091,3.1704,3.1704,3.2063,2.9434,2.9119,2.8839,2.8839,2.8281,2.7707,0.0,0.0,2.6419,2.5411,2.5221,2.4721,2.326,2.283,2.242,2.1513,0.0,2.066,0.0,0.0,0.0,0.0,0.0,0.0,0.0,2.1666,2.2838,2.3926,2.4418,2.4791,2.4936,2.409,2.3751,2.425,2.4836,2.5379,2.5848,2.623,2.6413,2.6443,2.7081,2.7693,2.8329,2.8769,2.9432,3.0288,3.0707,3.1008,0.0,3.1672,3.185,3.1901,3.2408,3.2611,3.2679,3.3018,3.2971,3.2735,3.236,3.163,3.0848,3.0898,3.0422,2.9813,2.9562,2.9516,2.9579,2.9579,2.9579,2.9579,2.9579,2.9579,2.9579,2.9579,2.9579,2.9579,2.9579,2.9729,2.9864,2.9864,3.0028,3.0163,3.0163,3.0163,3.0163,3.0163,3.0687,3.1091,3.1091,3.1689,3.2108,3.2108,3.1285,3.0657,3.0462,3.0627,3.0731,3.0731,3.0731,3.0731,3.0731,3.115,3.139,3.139,3.1869,3.2108,3.2108,3.2108,3.2347,3.2811,3.2811,3.3051,2.9412,2.8906,2.842,2.842,2.7862,2.7303,0.0,0.0,2.6419,2.5411,2.5221,2.4855,2.3794,2.3098,2.2694,0.0,0.0,0.0,2.0795,0.0,0.0,0.0,0.0,0.0,2.2445,2.3223,2.3955,2.463,2.4679,0.0,2.5553,2.56,2.5585,2.56,2.6182,2.6479,2.6479,2.7723,2.8377,2.8405,2.9038,2.9701,3.0293,3.0293,3.0983,3.2273,3.2273,3.2696,0.0,3.3372,3.3389,3.3389,3.3389,3.3389,3.3305,3.2735,3.2884,3.322,3.2022,3.1582,3.1518,3.1582,3.1114,3.0603,3.1351,3.064,2.9579,2.9579,2.9579,2.9579,2.9579,2.9579,2.9579,2.9579,2.9579,2.9579,2.9579,3.0058,3.0492,3.0492,3.1046,3.1452,3.1452,3.1452,3.1452,3.1452,3.2078,3.2497,3.2497,3.3066,3.3469,3.3469,3.3469,3.3185,3.2542,3.308,3.3455,3.3455,3.3455,3.3455,3.3455,3.3469,3.3469,3.3469,3.3469,3.3469,3.3469,3.3469,3.3484,3.3484,3.3484,3.3484,2.8837,2.8554,2.8324,2.8129,2.7678,2.7303,2.7303,0.0,2.6419,2.5411,2.5221,2.4855,2.3794,2.3465,2.3201,2.2754,0.0,0.0,0.0,0.0,0.0,0.0,0.0,0.0,0.0,0.0,2.5452,2.6589,2.6683,2.6783,2.6946,2.737,2.7204,2.6288,2.6449,2.6803,2.7258,2.8062,2.8451,2.8497,3.0045,3.0888,3.1077,3.2009,3.2648,3.3051,3.3051,3.3186,3.3406,3.3406,3.3406,3.3457,3.3947,3.415,3.4201,3.4488,3.4718,3.4868,3.4476,3.4011,3.3598,3.3646,3.3205,3.2678,3.2902,3.1998,3.0911,3.0911,3.0911,3.0911,3.0911,3.0911,3.0911,3.0911,3.0911,3.0911,3.0911,3.1076,3.1345,3.1794,3.2063,3.2347,3.2796,3.2871,3.2871,3.2871,3.3051,3.3185,3.3185,3.3365,3.3499,3.3499,3.3903,3.3903,3.3245,3.338,3.3499,3.3499,3.3499,3.3499,3.3499,3.3499,3.3499,3.3499,3.3499,3.3499,3.3499,3.3499,3.3724,3.4173,3.4651,3.4876,0.0,2.8112,2.7946,2.7736,2.7348,0.0,0.0,0.0,2.621,2.5373,2.5028,2.4617,2.3752,2.3595,2.3554,2.345,0.0,0.0,0.0,0.0,0.0,0.0,0.0,0.0,0.0,2.6447,2.7078,2.7919,2.8465,2.8738,2.8738,2.9304,2.931,2.8491,2.8451,2.8607,2.9044,2.9924,3.0328,3.0373,3.1605,3.214,3.22,3.3001,3.3558,3.3829,3.3829,3.3981,0.0,3.4235,3.4235,3.4286,3.4742,3.4912,3.4979,3.5453,3.5622,3.5656,3.596,3.5579,3.5102,3.5642,3.5168,3.4345,3.408,3.3029,3.1853,3.1582,3.1661,3.1898,3.1898,3.2078,3.2273,3.2273,3.2273,3.2273,3.2273,3.2273,3.2392,3.2811,3.2886,3.3021,3.3425,3.3499,3.3499,3.3499,3.3709,3.3858,3.3858,3.4098,3.4247,3.4247,3.4622,3.4696,3.4292,3.4247,3.4247,3.4247,3.4247,3.4247,3.4247,3.4247,3.4247,3.4247,3.4247,3.4247,3.4247,3.4247,3.4457,3.4876,3.531,3.5504,0.0,0.0,0.0,0.0,0.0,0.0,0.0,0.0,0.0,0.0,2.4776,2.4241,2.3724,2.364,2.3879,2.4477,0.0,0.0,0.0,0.0,0.0,0.0,0.0,0.0,2.6707,2.7912,2.8667,2.8719,2.9894,3.0612,3.0663,3.1292,3.1677,3.1677,3.1647,3.1566,3.1429,3.2679,3.3364,3.3364,3.3415,3.3491,3.3491,3.3541,3.3931,0.0,3.4573,3.4979,3.5622,3.5622,3.5622,3.5622,3.5622,3.5656,3.5707,3.5707,3.574,3.5893,3.6603,3.6413,3.6092,3.7444,3.6969,3.571,3.5059,3.3861,3.2631,3.1947,3.2167,3.2631,3.2587,3.3036,3.3499,3.3499,3.3499,3.3499,3.3499,3.3499,3.3499,3.3559,3.3559,3.3589,3.3619,3.3634,3.3634,3.3634,3.4158,3.4547,3.4547,3.51,3.5504,3.5554,3.5554,3.5619,3.5683,3.5554,3.5504,3.5504,3.5504,3.5504,3.5504,3.5504,3.5504,3.5504,3.5504,3.5504,3.5504,3.5504,3.5504,3.5504,3.5504,3.5504,0.0,0.0,0.0,0.0,0.0,0.0,0.0,0.0,0.0,0.0,0.0,2.4241,2.3724,2.4029,2.4433,0.0,0.0,0.0,0.0,0.0,0.0,0.0,2.8364,2.8886,2.8886,2.9143,2.9592,3.0089,3.0432,3.0814,3.1341,3.1976,3.2315,3.2315,3.3234,3.3079,3.1577,3.2307,3.2735,3.2735,3.3732,3.4235,3.4252,3.4844,3.5199,3.5351,3.5351,3.5453,3.5622,3.5622,3.5622,3.5622,3.5622,3.5994,3.6502,3.6502,3.6874,3.7398,3.7584,3.754,3.7444,3.779,3.7679,3.7236,3.6544,3.5291,3.4167,3.3994,3.4044,3.4066,3.3427,3.338,3.3499,3.3499,3.3499,3.3499,3.3499,3.3499,3.3649,3.4143,3.4247,3.4412,3.4936,3.504,3.504,3.504,3.516,3.5265,3.5265,3.54,3.5733,3.6275,3.6337,3.6569,3.7175,3.6211,3.5504,3.5504,3.5504,3.5504,3.5504,3.5504,3.5504,3.5504,3.5504,3.5504,3.5504,3.5504,3.5504,3.5504,3.5504,3.5504,0.0,0.0,0.0,0.0,0.0,0.0,0.0,0.0,0.0,0.0,0.0,0.0,2.4103,0.0,0.0,0.0,0.0,0.0,0.0,0.0,0.0,0.0,2.937,2.9579,0.0,3.0159,3.0669,3.1058,3.1921,3.2578,3.2982,3.3578,3.3929,3.3929,3.4617,3.4359,3.2945,3.3611,3.3929,3.3929,3.4678,3.5013,3.503,3.5436,3.5622,3.5622,3.5622,3.5622,3.5639,3.6011,3.6146,3.618,3.6535,3.6924,3.7297,3.7297,3.755,3.7956,3.8294,3.8633,3.8854,3.8506,3.8337,3.827,3.7895,3.7243,3.6414,3.5442,3.5449,3.5571,3.5109,3.5239,3.5486,3.5486,3.5486,3.5367,3.5019,3.4896,3.4956,3.4925,3.4951,3.5168,3.5882,3.6006,3.6006,3.6006,3.6305,3.643,3.607,3.6305,3.66,3.6615,3.6615,3.6631,3.6723,3.5973,3.5604,3.6006,3.6006,3.5831,3.5504,3.5504,3.5504,3.5504,3.5504,3.5504,3.5504,3.5504,3.5504,3.5504,3.5504,3.5504,0.0,0.0,0.0,0.0,0.0,0.0,0.0,0.0,0.0,0.0,0.0,0.0,0.0,0.0,0.0,0.0,0.0,0.0,0.0,0.0,0.0,2.9729,2.9819,0.0,3.0027,3.1091,3.1824,3.2019,3.3647,3.469,3.4901,3.5484,3.5842,3.5977,3.5977,3.5656,3.503,3.5537,3.5791,3.5791,3.591,3.5977,3.5977,3.5977,3.5977,3.5977,3.5977,0.0,3.6011,3.6688,3.6958,3.7009,3.7652,3.7973,3.8075,3.8075,3.8142,3.8328,3.8937,3.9563,4.002,3.9315,3.9086,3.9086,3.9086,3.9086,3.8714,3.6934,3.6761,3.7102,3.699,3.7342,3.7764,3.7648,3.7632,3.7456,3.6722,3.6615,3.6446,3.5958,3.5861,3.6085,3.6676,3.6783,3.6783,3.6783,3.7381,3.7573,3.6843,3.7397,3.7573,3.7008,3.6948,3.6737,3.6243,3.6196,3.6415,3.6904,3.6615,3.6165,3.5504,3.5504,3.5504,3.5504,3.5504,3.5504,3.5504,3.5504,3.5504,3.5504,3.5504,3.5504,2.6725,2.6401,0.0,0.0,0.0,0.0,0.0,0.0,0.0,0.0,0.0,0.0,0.0,0.0,0.0,0.0,0.0,0.0,0.0,0.0,3.0357,3.0357,0.0,3.1438,3.2074,3.2331,3.2935,3.4072,3.443,3.5177,3.6413,3.6557,3.6891,3.7533,3.7567,3.7499,3.7381,3.6857,3.6603,3.6603,3.7246,3.7567,3.7567,3.7567,3.7567,3.7567,0.0,3.7567,3.7567,3.7686,3.7736,3.7736,3.7872,3.8278,3.8819,3.8819,3.9225,3.9766,3.9868,3.9986,4.007,3.9952,3.9901,3.9901,3.9901,3.9901,3.9851,3.9513,3.9013,3.84,3.7817,3.7726,3.7632,3.698,3.6783,3.6722,3.66,3.6615,3.6798,3.7354,3.7472,3.7472,3.7573,3.7632,3.7632,3.7632,3.769,3.7764,3.7632,3.769,3.7978,3.8509,3.8564,3.8799,3.9332,3.9385,3.9156,3.8564,3.6753,3.5619,3.5504,3.5504,3.5504,3.5504,3.5504,3.5504,3.5504,3.5504,3.5504,3.5504,3.5504,3.5504,2.6401,2.6139,0.0,0.0,0.0,0.0,0.0,0.0,0.0,0.0,0.0,0.0,0.0,0.0,0.0,0.0,0.0,2.9729,3.0043,3.0657,3.1061,0.0,0.0,3.1796,3.2547,3.3294,3.4158,3.512,3.5922,3.6693,3.7364,3.7381,3.755,3.7889,3.7905,3.7905,3.7905,3.7956,3.777,3.7398,3.7736,3.7905,3.7905,3.7905,3.7905,3.7905,0.0,3.7905,3.7939,3.8328,3.8481,3.8531,3.892,3.9292,3.958,3.958,3.9783,4.007,4.007,4.007,4.007,4.007,4.007,4.007,4.007,4.007,4.007,4.007,3.9833,3.9489,3.9119,3.9049,3.8941,3.858,3.8509,3.8398,3.793,3.7815,3.7815,3.7806,3.7822,3.7921,3.8318,3.8414,3.8414,3.8414,3.8761,3.8887,3.8469,3.8761,3.8995,3.8908,3.8908,3.887,3.8887,3.8832,3.8707,3.8318,3.6919,3.5894,3.5504,3.5504,3.5504,3.5504,3.5504,3.5504,3.5504,3.5504,3.5504,3.5504,3.5504,3.5504,2.5961,2.5819,2.5929,0.0,0.0,0.0,0.0,0.0,0.0,0.0,0.0,0.0,0.0,0.0,0.0,0.0,3.0193,3.0552,3.0717,3.121,3.1541,3.1749,3.1923,3.2353,3.3256,3.4484,3.547,3.6158,3.7246,3.799,3.8159,3.8159,3.8244,3.8413,3.8413,3.8413,3.8413,3.8971,3.8886,3.8159,3.8328,3.8413,3.8413,3.8413,3.8413,3.8413,3.8413,3.8413,3.8464,3.9005,3.9242,3.9292,3.9868,4.007,4.007,4.007,4.007,4.007,4.007,4.007,4.007,4.007,4.007,4.007,4.007,4.007,4.007,4.007,4.007,4.007,4.007,4.007,4.007,3.9833,3.9833,3.9662,3.9016,3.8908,3.8799,3.843,3.8318,3.8541,3.9086,3.9193,3.9193,3.9193,3.9731,3.9901,3.9262,3.9731,3.9833,3.9262,3.9193,3.8924,3.8374,3.8318,3.8262,3.8092,3.7322,3.6631,3.6085,3.5846,3.5782,3.5782,3.5619,3.5504,3.5504,3.5504,3.5504,3.5504,3.5504,3.5504,2.5411,2.5361,2.555,2.6052,0.0,0.0,2.6364,0.0,0.0,0.0,0.0,0.0,0.0,0.0,0.0,0.0,3.0477,3.0731,3.1317,0.0,3.1764,3.2362,3.3077,3.4029,3.5377,3.6222,3.6953,3.7708,3.7824,3.821,3.887,3.892,3.9225,3.9901,3.9918,3.9918,3.9918,3.9969,3.9631,3.892,3.9597,3.9918,3.9918,3.9918,3.9918,3.9918,3.9918,3.9918,3.9935,3.9969,4.0003,4.0003,4.0054,4.007,4.007,4.007,4.007,4.007,4.007,4.007,4.007,4.007,4.007,4.007,4.007,4.007,4.007,4.007,4.007,4.007,4.007,4.007,3.9901,3.9139,3.8978,3.8962,3.8908,3.8908,3.9086,3.9782,3.9952,3.9952,4.002,4.002,4.002,4.002,4.007,4.007,4.002,4.007,4.007,4.002,4.002,4.002,3.9952,3.9952,3.961,3.8854,3.8133,3.769,3.7648,3.6919,3.6492,3.6492,3.5831,3.5504,3.5504,3.5504,3.5504,3.5504,3.5504,3.5504,2.5368,2.5368,0.0,0.0,0.0,0.0,0.0,0.0,0.0,0.0,0.0,0.0,0.0,0.0,0.0,3.1046,3.115,3.139,3.2048,3.2138,3.2554,3.3719,3.4129,3.4872,3.6234,3.7075,3.7852,3.8533,3.9005,3.9377,3.9648,3.9665,3.9783,4.007,4.007,4.007,4.007,4.007,3.9935,3.9665,3.9952,4.007,4.007,4.007,4.007,4.007,4.007,4.007,4.007,4.007,4.007,4.007,4.007,4.007,4.007,4.007,4.007,4.007,4.007,4.007,4.007,4.007,4.007,4.007,4.007,4.007,4.007,4.007,4.007,4.007,4.007,4.007,4.002,3.9731,3.9662,3.9662,3.9662,3.9662,3.9731,4.002,4.007,4.007,4.007,4.007,4.007,4.007,4.007,4.007,4.007,4.007,4.007,4.007,4.007,4.007,4.007,4.007,3.9952,3.9662,3.8924,3.8246,3.7822,3.7024,3.6615,3.6615,3.5894,3.5504,3.5504,3.5504,3.5504,3.5504,3.5504,3.5504,2.5149,2.5479,0.0,0.0,0.0,0.0,0.0,0.0,0.0,0.0,0.0,0.0,0.0,0.0,0.0,0.0,3.1839,3.2078,3.2736,3.2826,3.3351,3.4806,3.5216,3.5888,3.734,3.8181,3.8839,3.9326,3.9783,4.007,4.007,4.007,4.007,4.007,4.007,4.007,4.007,4.007,4.007,4.007,4.007,4.007,4.007,4.007,4.007,4.007,4.007,4.007,4.007,4.007,4.007,4.007,4.007,4.007,4.007,4.007,4.007,4.007,4.007,4.007,4.007,4.007,4.007,4.007,4.007,4.007,4.007,4.007,4.007,4.007,4.007,4.007,4.007,4.007,4.007,4.007,4.007,4.007,4.007,4.007,4.007,4.007,4.007,4.007,4.007,4.007,4.007,4.007,4.007,4.007,4.007,4.007,4.007,4.007,4.007,4.007,4.007,4.007,3.9594,3.8924,3.8206,3.7381,3.6843,3.66,3.5894,3.5504,3.5504,3.5504,3.5504,3.5504,3.5504,3.5504,2.4762,2.56,0.0,0.0,0.0,0.0,0.0,0.0,0.0,0.0,0.0,0.0,0.0,0.0,0.0,3.2422,3.2527,3.2751,3.341,3.3499,3.403,3.5471,3.6337,3.7397,3.8788,3.961,4.007,4.007,4.007,4.007,4.007,4.007,4.007,4.007,4.007,4.007,4.007,4.007,4.007,4.007,4.007,4.007,4.007,4.007,4.007,4.007,4.007,4.007,4.007,4.007,4.007,4.007,4.007,4.007,4.007,4.007,4.007,4.007,4.007,4.007,4.007,4.007,4.007,4.007,4.007,4.007,4.007,4.007,4.007,4.007,4.007,4.007,4.007,4.007,4.007,4.007,4.007,4.007,4.007,4.007,4.007,4.007,4.007,4.007,4.007,4.007,4.007,4.007,4.0087,4.0104,4.0104,4.0104,4.0104,4.0104,4.0104,4.0104,4.0104,4.0104,4.0104,3.9747,3.8978,3.8206,3.7456,3.66,3.5894,3.5504,3.5519,3.5519,3.5519,3.5534,3.5519,3.5519,2.5796,0.0,0.0,0.0,0.0,0.0,0.0,0.0,0.0,0.0,0.0,0.0,0.0,0.0,0.0,3.3095,3.32,3.3592,3.4819,3.4956,3.5708,3.7713,3.8127,3.8677,3.9645,3.9952,4.007,4.007,4.007,4.007,4.007,4.007,4.007,4.007,4.007,4.007,4.007,4.007,4.007,4.007,4.007,4.007,4.007,4.007,4.007,4.007,4.007,4.007,4.007,4.007,4.007,4.007,4.007,4.007,4.007,4.007,4.007,4.007,4.007,4.007,4.007,4.007,4.007,4.007,4.007,4.007,4.007,4.007,4.007,4.007,4.007,4.007,4.007,4.007,4.007,4.007,4.007,4.007,4.007,4.007,4.007,4.007,4.007,4.007,4.007,4.007,4.007,4.0273,4.0798,4.1322,4.1627,4.1627,4.1627,4.1627,4.1627,4.1627,4.1627,4.1627,4.1627,4.1101,3.9781,3.8486,3.769,3.7456,3.6133,3.5729,3.6193,3.6193,3.6417,3.6836,3.6402,3.6193,2.6303,0.0,0.0,0.0,0.0,0.0,0.0,0.0,0.0,0.0,0.0,0.0,0.0,3.2901,0.0,3.3784,3.3888,3.4393,3.5782,3.5995,3.6715,3.8679,3.8908,3.9209,4.002,4.007,4.007,4.007,4.007,4.007,4.007,4.007,4.007,4.007,4.007,4.007,4.007,4.007,4.0204,4.0417,4.0204,4.0204,4.0417,4.0204,4.007,4.007,4.007,4.007,4.007,4.007,4.007,4.007,4.007,4.007,4.007,4.007,4.007,4.007,4.007,4.007,4.007,4.007,4.007,4.007,4.007,4.007,4.007,4.007,4.007,4.007,4.007,4.007,4.007,4.007,4.007,4.007,4.007,4.007,4.007,4.007,4.007,4.0172,4.0476,4.0527,4.0629,4.0916,4.095,4.1119,4.1576,4.2016,4.2286,4.2286,4.2286,4.2286,4.2286,4.2286,4.2286,4.2286,4.2286,4.188,4.1001,3.9446,3.846,3.816,3.6911,3.6447,3.6851,3.6851,3.7045,3.7404,3.703,3.6851,0.0,0.0,0.0,0.0,0.0,0.0,0.0,0.0,0.0,0.0,0.0,0.0,3.3469,3.3589,3.3799,3.4457,3.4562,3.5057,3.6399,3.6661,3.7247,3.8745,3.8962,3.9315,4.002,4.007,4.007,4.007,4.007,4.007,4.007,4.007,4.007,4.007,4.007,4.007,4.007,4.007,4.0319,4.0827,4.0336,4.0385,4.0827,4.0336,4.007,4.007,4.007,4.007,4.007,4.007,4.007,4.007,4.007,4.007,4.007,4.007,4.007,4.007,4.007,4.007,4.007,4.007,4.007,4.007,4.007,4.007,4.007,4.007,4.007,4.007,4.007,4.0121,4.0172,4.0172,4.0121,4.007,4.007,4.0121,4.0172,4.0172,4.0223,4.0493,4.1187,4.1305,4.1525,4.2185,4.2354,4.2388,4.2388,4.2455,4.2506,4.2506,4.2506,4.2506,4.2506,4.2506,4.2506,4.2506,4.2506,4.2506,4.2506,4.086,3.9579,3.8838,3.7901,3.7434,3.7494,3.7494,3.7524,3.7584,3.7524,3.7494,0.0,2.7432,0.0,0.0,0.0,0.0,0.0,0.0,0.0,0.0,0.0,3.3484,3.4143,3.4262,3.4487,3.5175,3.528,3.5616,3.6477,3.7144,3.7847,3.8799,3.9437,3.9901,4.007,4.007,4.007,4.007,4.007,4.007,4.007,4.007,4.007,4.007,4.007,4.007,4.007,4.007,4.0171,4.0286,4.0171,4.0171,4.0286,4.0171,4.007,4.007,4.007,4.007,4.007,4.007,4.007,4.007,4.007,4.007,4.007,4.007,4.007,4.007,4.007,4.007,4.007,4.007,4.007,4.007,4.007,4.007,4.007,4.007,4.007,4.007,4.007,4.051,4.0967,4.0967,4.051,4.007,4.007,4.0544,4.0967,4.0967,4.1424,4.1863,4.2033,4.2049,4.2117,4.2269,4.2794,4.3166,4.3166,4.3707,4.4096,4.4096,4.4096,4.4096,4.4096,4.4096,4.4096,4.4096,4.4096,4.4096,4.4096,4.14,3.9825,3.964,3.8152,3.7659,3.8182,3.8182,3.8452,3.8975,3.8437,3.8182,0.0,0.0,0.0,0.0,0.0,0.0,0.0,0.0,0.0,0.0,3.3724,3.4173,3.4846,3.4966,3.5085,3.5444,3.5504,3.591,3.704,3.7515,3.8206,3.9332,3.9833,4.007,4.007,4.007,4.007,4.007,4.007,4.007,4.007,4.007,4.007,4.007,4.007,4.007,4.007,4.007,4.0254,4.0497,4.0497,4.0625,4.0908,4.0336,4.007,4.007,4.007,4.007,4.007,4.007,4.007,4.007,4.007,4.007,4.007,4.007,4.007,4.007,4.007,4.007,4.007,4.007,4.007,4.007,4.007,4.007,4.0155,4.051,4.0629,4.0696,4.1052,4.1424,4.1728,4.1728,4.1424,4.1136,4.1136,4.1441,4.1728,4.1728,4.2033,4.2405,4.2777,4.3132,4.3386,4.3386,4.3724,4.3978,4.3978,4.4333,4.4587,4.4587,4.4587,4.4587,4.4587,4.4587,4.4587,4.4587,4.4587,4.4587,4.4587,4.2624,4.1541,4.1541,3.9885,3.9162,3.9512,3.9068,3.9065,3.9409,3.905,3.8886,0.0,0.0,0.0,0.0,0.0,0.0,0.0,0.0,0.0,3.4622,3.4651,3.4831,3.54,3.5504,3.5504,3.5504,3.5619,3.6133,3.7397,3.7806,3.8486,3.9731,4.002,4.007,4.007,4.007,4.007,4.007,4.007,4.007,4.007,4.007,4.007,4.007,4.0204,4.0254,4.0254,4.0336,4.0642,4.1041,4.1041,4.1313,4.175,4.072,4.0254,4.0254,4.0121,4.007,4.007,4.007,4.007,4.007,4.007,4.007,4.007,4.007,4.007,4.007,4.007,4.007,4.007,4.007,4.007,4.0104,4.024,4.0273,4.0426,4.117,4.139,4.1525,4.2134,4.2388,4.2489,4.2489,4.2591,4.2608,4.2354,4.2388,4.2489,4.2489,4.2591,4.2878,4.3504,4.4147,4.4587,4.4587,4.4587,4.4587,4.4587,4.4587,4.4587,4.4587,4.4587,4.4587,4.4587,4.4587,4.4587,4.4587,4.4587,4.4587,4.4587,4.3931,4.3502,4.3502,4.1658,4.069,4.069,3.9793,3.9424,3.9424,3.9424,3.9424,0.0,0.0,0.0,0.0,0.0,0.0,0.0,0.0,0.0,0.0,3.537,3.5385,3.5489,3.5504,3.5504,3.5504,3.6054,3.6554,3.6737,3.7889,3.8854,3.9032,3.9662,4.007,4.007,4.007,4.007,4.007,4.007,4.007,4.007,4.007,4.007,4.007,4.0528,4.078,4.078,4.1313,4.1639,4.1664,4.1664,4.1707,4.1768,4.1087,4.078,4.078,4.0286,4.007,4.007,4.007,4.007,4.007,4.007,4.007,4.007,4.007,4.007,4.007,4.007,4.007,4.007,4.007,4.007,4.0206,4.0849,4.1052,4.1204,4.1948,4.2151,4.2168,4.2269,4.2777,4.3267,4.3267,4.3792,4.391,4.2574,4.2811,4.3267,4.3267,4.3809,4.4299,4.4401,4.4502,4.4587,4.4587,4.4587,4.4587,4.4587,4.4587,4.4587,4.4587,4.4587,4.4587,4.4587,4.4587,4.4587,4.4587,4.4587,4.4587,4.4587,4.4514,4.444,4.444,4.1981,4.069,4.069,3.9793,3.9424,3.9424,3.9424,3.9424,0.0,0.0,0.0,0.0,0.0,0.0,0.0,0.0,3.513,3.5444,3.5504,3.5504,3.5504,3.5504,3.5504,3.5504,3.6117,3.6737,3.7219,3.823,3.9086,3.9542,3.9901,4.007,4.007,4.007,4.007,4.007,4.007,4.007,4.007,4.0368,4.0528,4.0528,4.1087,4.1402,4.1402,4.1664,4.181,4.1793,4.2162,4.2302,4.2302,4.2021,4.1534,4.0856,4.0336,4.007,4.007,4.007,4.007,4.007,4.007,4.007,4.007,4.007,4.007,4.007,4.007,4.007,4.0155,4.0578,4.0713,4.0849,4.1593,4.1813,4.1965,4.2709,4.2929,4.3014,4.3453,4.3826,4.4062,4.4062,4.4333,4.4401,4.3724,4.3826,4.4062,4.4062,4.435,4.4587,4.4587,4.4587,4.4587,4.4587,4.4587,4.4587,4.4587,4.4587,4.4587,4.4587,4.4587,4.4587,4.4587,4.4587,4.4587,4.4587,4.4587,4.4587,4.4587,4.4587,4.4587,4.4587,4.2504,4.1412,4.1412,4.006,3.9424,3.9424,3.9424,3.9424,0.0,0.0,0.0,0.0,0.0,0.0,0.0,0.0,3.5504,0.0,3.5504,3.5504,3.5504,3.5504,3.5554,3.5733,3.6399,3.7203,3.7978,3.8761,3.9437,4.002,4.007,4.007,4.007,4.007,4.007,4.007,4.007,4.007,4.007,4.0625,4.0903,4.0903,4.1621,4.2021,4.2021,4.2144,4.2226,4.2226,4.2675,4.2902,4.2902,4.275,4.2203,4.1313,4.0767,4.0466,4.0286,4.0286,4.0204,4.007,4.007,4.007,4.007,4.007,4.007,4.0104,4.029,4.0358,4.0493,4.1238,4.1474,4.1627,4.2354,4.2574,4.2743,4.3504,4.3707,4.3842,4.4418,4.4587,4.4587,4.4587,4.4587,4.4587,4.4587,4.4587,4.4587,4.4587,4.4587,4.4587,4.4587,4.4587,4.4587,4.4587,4.4587,4.4587,4.4587,4.4587,4.4587,4.4587,4.4587,4.4587,4.4587,4.4587,4.4587,4.4587,4.4587,4.4587,4.4587,4.4587,4.4587,4.4587,4.3092,4.2316,4.2332,4.0585,3.9737,3.9737,3.9481,3.9424,0.0,0.0,0.0,0.0,0.0,0.0,0.0,0.0,3.5504,3.5504,3.5504,3.5504,3.5504,3.5504,3.5733,3.6446,3.7219,3.7978,3.8745,3.9542,4.007,4.0087,4.007,4.007,4.007,4.007,4.007,4.007,4.007,4.007,4.007,4.0625,4.0903,4.0903,4.2021,4.2655,4.2655,4.3178,4.341,4.341,4.3444,4.3444,4.3444,4.2939,4.2673,4.2559,4.1979,4.1402,4.0856,4.0856,4.0577,4.007,4.007,4.007,4.007,4.007,4.007,4.0172,4.0899,4.1136,4.1271,4.1999,4.2236,4.2371,4.3132,4.3352,4.3521,4.4299,4.4519,4.4536,4.457,4.4587,4.4587,4.4587,4.4587,4.4587,4.4587,4.4587,4.4587,4.4587,4.4587,4.4587,4.4587,4.4587,4.4587,4.4587,4.4587,4.4587,4.4587,4.4587,4.4587,4.4587,4.4587,4.4587,4.4587,4.4587,4.4587,4.4587,4.4587,4.4587,4.4587,4.4587,4.4587,4.4587,4.368,4.3229,4.3246,4.1478,4.0622,4.0622,3.9793,3.9424,0.0,0.0,0.0,0.0,0.0,0.0,3.3362,3.4532,3.5504,3.5504,3.5504,3.5504,3.5504,3.5894,3.6275,3.6554,3.7658,3.858,3.8854,3.961,4.007,4.007,4.007,4.007,4.007,4.007,4.007,4.007,4.0417,4.0607,4.0607,4.1178,4.1664,4.2021,4.248,4.2864,4.3214,4.341,4.3339,4.2976,4.3339,4.3339,4.2976,4.3142,4.3214,4.3214,4.2977,4.2109,4.0856,4.0546,4.0286,4.007,4.007,4.007,4.0138,4.0629,4.0798,4.0899,4.1644,4.1914,4.2033,4.2777,4.3014,4.3166,4.3927,4.4164,4.4215,4.4502,4.4587,4.4587,4.4587,4.4587,4.4587,4.4587,4.4587,4.4587,4.4587,4.4587,4.4587,4.4587,4.4587,4.4587,4.4587,4.4587,4.4587,4.4587,4.4587,4.4587,4.4587,4.4587,4.4587,4.4587,4.4587,4.4587,4.4587,4.4587,4.4587,4.4587,4.4587,4.4587,4.4587,4.4587,4.4587,4.4587,4.431,4.3873,4.3306,4.1543,4.069,4.069,3.9809,3.9424,0.0,0.0,0.0,0.0,0.0,3.3161,3.3423,0.0,3.5504,3.5504,3.5504,3.5504,3.5504,3.629,3.7024,3.7024,3.806,3.8962,3.9246,3.9782,4.007,4.007,4.007,4.007,4.007,4.007,4.007,4.007,4.0417,4.0703,4.0903,4.149,4.2144,4.2939,4.2976,4.3142,4.3497,4.3497,4.3321,4.2976,4.3321,4.3321,4.2976,4.3339,4.3497,4.3479,4.3286,4.2562,4.149,4.1122,4.0861,4.0707,4.0965,4.094,4.0863,4.1613,4.175,4.1677,4.2405,4.2675,4.2794,4.3572,4.3809,4.391,4.4418,4.4587,4.4587,4.4587,4.4587,4.4587,4.4587,4.4587,4.4587,4.4587,4.4587,4.4654,4.4908,4.4756,4.4587,4.4587,4.4587,4.4587,4.4587,4.4587,4.4587,4.4587,4.4587,4.4587,4.4587,4.4587,4.4587,4.4587,4.4587,4.4587,4.4587,4.4587,4.4587,4.4587,4.4587,4.4587,4.4587,4.4587,4.4587,4.4587,4.4587,4.4196,4.3306,4.1869,4.1013,4.069,3.9809,3.9424,0.0,0.0,0.0,0.0,0.0,0.0,3.3285,0.0,3.5489,3.5504,3.5504,3.5504,3.5504,3.6768,3.7822,3.7822,3.8469,3.9193,4.002,4.007,4.007,4.007,4.007,4.007,4.007,4.007,4.0138,4.0121,4.0121,4.0368,4.0903,4.1534,4.2346,4.3444,4.3479,4.3497,4.3497,4.3497,4.3497,4.3497,4.3497,4.3497,4.3497,4.3497,4.3497,4.3479,4.2957,4.2747,4.2747,4.2729,4.2378,4.1917,4.2721,4.2703,4.2254,4.3048,4.2944,4.2475,4.32,4.3453,4.3572,4.4333,4.4587,4.4587,4.4587,4.4587,4.4587,4.4587,4.4587,4.4587,4.4587,4.4604,4.4604,4.4604,4.4621,4.484,4.5585,4.5162,4.4637,4.4637,4.4637,4.4637,4.4637,4.4637,4.4637,4.4637,4.4637,4.4637,4.4637,4.4637,4.4637,4.4604,4.4604,4.4604,4.4587,4.4587,4.4587,4.4604,4.4604,4.4621,4.4637,4.4637,4.4621,4.4604,4.4604,4.4155,4.3246,4.2395,4.1543,4.069,3.9809,3.9424,2.7981,0.0,0.0,0.0,0.0,0.0,0.0,0.0,3.4906,3.54,3.5504,3.5668,3.6228,3.71,3.7978,3.8525,3.9262,3.985,4.007,4.007,4.007,4.007,4.007,4.007,4.007,4.007,4.0237,0.0,4.1059,4.1595,4.2162,4.2734,4.2995,4.2939,4.3286,4.3497,4.3497,4.3497,4.3497,4.3497,4.3497,4.3497,4.3497,4.3497,4.3497,4.3516,4.3961,4.4145,4.409,4.3248,4.2814,4.2757,4.3536,4.3766,4.3691,4.4007,4.4006,4.3872,4.4181,4.4265,4.4282,4.4502,4.4587,4.4587,4.4587,4.4587,4.4587,4.4587,4.4587,4.4587,4.4587,4.4993,4.5399,4.5399,4.5788,4.6244,4.6447,4.6329,4.6177,4.6177,4.6177,4.6177,4.6177,4.6177,4.6177,4.6177,4.6177,4.6177,4.6177,4.6177,4.5974,4.5449,4.5399,4.5179,4.4621,4.4587,4.4807,4.5348,4.5399,4.5635,4.616,4.6177,4.5923,4.5399,4.5399,4.4406,4.2395,4.2125,4.1543,4.069,3.9809,3.9424,0.0,0.0,0.0,0.0,0.0,0.0,3.335,3.4008,3.4666,3.537,3.5718,3.6117,3.6492,3.7483,3.8414,3.8854,3.961,4.007,4.007,4.007,4.007,4.007,4.007,4.0204,4.0417,4.0483,4.0689,4.1223,4.1578,4.2062,4.2655,4.3214,4.3375,4.305,4.3339,4.3497,4.3497,4.3497,4.3497,4.3497,4.3497,4.3497,4.3497,4.3846,4.3993,4.4048,4.4856,4.5204,4.5187,4.4856,4.4525,4.4309,4.5101,4.5094,4.4678,4.5098,4.4937,4.4489,4.4567,4.4587,4.4587,4.4587,4.4587,4.4587,4.4587,4.4587,4.4587,4.4587,4.4807,4.5111,4.5432,4.5838,4.6201,4.6493,4.6914,4.7381,4.7993,4.7911,4.75,4.6895,4.6786,4.6786,4.6786,4.6786,4.6786,4.6786,4.6786,4.6786,4.6786,4.6786,4.6633,4.621,4.616,4.5974,4.5534,4.55,4.5686,4.6126,4.616,4.6346,4.6769,4.6786,4.6599,4.616,4.616,4.5086,4.2877,4.2285,4.1503,4.0527,4.0016,3.9978,0.0,0.0,0.0,0.0,0.0,0.0,3.332,3.3948,3.4577,3.5355,3.6117,3.66,3.6722,3.793,3.8908,3.9032,3.961,4.007,4.007,4.007,4.007,4.007,4.007,4.0336,4.0874,4.0938,4.1213,4.1853,4.1979,4.2244,4.275,4.325,4.3497,4.3497,4.3497,4.3497,4.3497,4.3497,4.3497,4.3497,4.3589,4.3626,4.3644,4.447,4.4837,4.4892,4.5681,4.603,4.6104,4.6911,4.6764,4.6104,4.6929,4.6545,4.564,4.6258,4.5833,4.4906,4.4814,4.4814,4.4814,4.4814,4.4814,4.4831,4.4916,4.4933,4.4967,4.4941,4.5354,4.5974,4.6616,4.6895,4.7146,4.7793,4.8062,4.8521,4.9833,4.9591,4.8765,4.7517,4.714,4.7039,4.7039,4.7039,4.7039,4.7039,4.7039,4.7039,4.7039,4.7039,4.7005,4.6921,4.6921,4.6887,4.6802,4.6786,4.6819,4.6904,4.6921,4.6955,4.7039,4.7039,4.7005,4.6921,4.676,4.5777,4.4109,4.2648,4.1439,4.0502,4.0502,4.0816,0.0,0.0,0.0,0.0,0.0,0.0,3.3215,3.3589,3.4038,3.525,3.6117,3.6798,3.7456,3.8302,3.9086,3.9782,4.002,4.007,4.007,4.007,4.007,4.007,4.007,4.0336,4.0874,4.0903,4.1375,4.244,4.2903,4.3232,4.3339,4.3444,4.3497,4.3497,4.3497,4.3497,4.3497,4.3497,4.3497,4.3497,4.4158,4.447,4.4488,4.5296,4.5663,4.5718,4.6526,4.6874,4.6948,4.7737,4.7609,4.6966,4.7755,4.7934,4.766,4.7331,4.7062,4.6774,4.6257,4.6063,4.6063,4.6063,4.6063,4.6186,4.6885,4.7079,4.7119,4.7174,4.6914,4.6616,4.6752,4.7626,4.8515,4.8664,4.9607,5.0523,5.0838,5.0752,5.0612,5.0294,4.935,4.8578,4.8578,4.8578,4.8578,4.8578,4.8578,4.8578,4.8578,4.8578,4.8342,4.7767,4.7699,4.7462,4.6836,4.6786,4.7056,4.7665,4.7699,4.797,4.8545,4.8578,4.8291,4.7716,4.6402,4.5224,4.4109,4.2345,4.1398,4.119,4.119,4.125,0.0,0.0,0.0,3.145,0.0,0.0,0.0,3.3499,3.3982,3.5717,3.6631,3.744,3.8189,3.8978,3.961,4.002,4.007,4.007,4.007,4.007,4.007,4.007,4.0336,4.0703,4.1313,4.1621,4.2144,4.305,4.3339,4.3497,4.3497,4.3497,4.3497,4.3497,4.3497,4.3497,4.3497,4.3901,4.4103,4.4103,4.4911,4.5296,4.5333,4.614,4.6507,4.6544,4.737,4.7719,4.7737,4.8141,4.8067,4.7755,4.8141,4.8132,4.7797,4.753,4.7194,4.6847,4.6524,4.6383,4.6484,4.6908,4.7032,4.7174,4.8019,4.8052,4.7822,4.8219,4.8131,4.7912,4.8288,4.9184,5.0083,5.0433,5.104,5.171,5.2083,5.1874,5.1593,5.1593,5.077,5.005,5.005,4.9722,4.9521,4.9521,4.9212,4.9001,4.9001,4.9001,4.8866,4.8494,4.846,4.8308,4.7936,4.7902,4.8054,4.8443,4.846,4.8612,4.8984,4.9001,4.8832,4.8477,4.7182,4.6307,4.5828,4.3977,4.2698,4.1878,4.1878,4.2043,0.0,0.0,0.0,0.0,0.0,3.2033,0.0,0.0,0.0,3.6245,3.7381,0.0,0.0,0.0,0.0,4.007,0.0,0.0,0.0,4.007,0.0,4.007,4.0577,4.1133,4.175,4.2422,4.3014,4.3463,4.3497,4.3497,4.3497,4.3497,4.3497,4.3497,4.3644,4.3718,4.3718,4.4525,4.4947,4.4947,4.5755,4.614,4.6159,4.6966,4.7352,4.7388,4.8031,4.8306,4.8306,4.8306,4.8306,4.8306,4.8306,4.7977,4.7572,4.7572,4.7237,4.6774,4.6934,4.7033,4.7176,4.7997,4.84,4.865,4.9323,4.9103,4.8732,4.9344,4.941,4.9458,5.0084,5.077,5.1444,5.1952,5.2224,5.249,5.306,5.2725,5.2317,5.2317,5.1874,5.1411,5.1138,5.0608,5.0185,5.0185,4.9722,4.9376,4.9212,4.9212,4.9152,4.9001,4.9001,4.9001,4.9001,4.9001,4.9001,4.9001,4.9001,4.9001,4.9001,4.9001,4.9001,4.9001,4.8225,4.7803,4.7589,4.6064,4.4518,4.2846,4.2692,4.2821,0.0,0.0,0.0,0.0,3.1973,0.0,0.0,0.0,3.5581,3.6445,0.0,0.0,0.0,0.0,0.0,0.0,0.0,0.0,4.007,4.007,4.007,4.007,4.0577,4.1133,4.175,4.2772,4.3444,4.3497,4.3497,4.3497,4.3497,4.3497,4.3497,4.3497,4.4195,4.4562,4.4562,4.5369,4.5755,4.5773,4.6599,4.6966,4.7003,4.781,4.8159,4.8177,4.8269,4.8306,4.8306,4.8306,4.8306,4.8306,4.8306,4.8267,4.821,4.821,4.8172,4.8184,4.8974,4.9248,4.9376,5.02,5.0931,5.1535,5.1627,5.161,5.1652,5.1694,5.1301,5.0875,5.0964,5.1494,5.2018,5.2065,5.2599,5.3103,5.3164,5.3146,5.306,5.306,5.2999,5.2572,5.131,5.1034,5.0981,5.0981,5.0929,5.0626,4.9976,4.9879,4.9664,4.9046,4.9001,4.9001,4.9001,4.9001,4.9001,4.9001,4.9001,4.9001,4.9001,4.9001,4.9001,4.9001,4.8877,4.8433,4.7589,4.7389,4.6368,4.4478,4.3587,4.3254,0.0,0.0,0.0,0.0,0.0,0.0,3.3922,0.0,3.606,0.0,0.0,0.0,0.0,0.0,0.0,0.0,4.007,0.0,0.0,0.0,4.0204,0.0,0.0,0.0,4.2696,4.3232,4.3497,4.3497,4.3497,4.3497,4.3497,4.3938,4.4195,4.4195,4.4984,4.5406,4.5406,4.6195,4.6617,4.6617,4.7425,4.781,4.7829,4.8159,4.8306,4.8306,4.8306,4.8306,4.8306,4.8306,4.8306,4.8306,4.8306,4.8306,4.8306,4.8306,4.8618,4.9095,4.9462,4.9903,5.0417,5.1224,5.2032,5.2711,5.2711,5.2389,5.2112,5.2112,5.1904,5.1692,5.1692,5.2196,5.2725,5.2725,5.298,5.3206,5.3206,5.3206,5.3206,5.3206,5.3206,5.2999,5.2417,5.197,5.1692,5.1692,5.1343,5.0981,5.0662,5.0241,4.9879,4.9622,4.9195,4.9001,4.9001,4.9001,4.9001,4.9001,4.9001,4.9001,4.9001,4.9001,4.9001,4.9001,4.9001,4.8798,4.8433,4.7868,4.6884,4.5561,4.4646,4.3849,3.1405,0.0,0.0,0.0,0.0,0.0,0.0,0.0,0.0,0.0,0.0,0.0,0.0,0.0,0.0,0.0,0.0,4.007,0.0,4.0204,0.0,0.0,0.0,0.0,0.0,4.3497,4.3497,4.3497,4.3497,4.3589,4.3809,4.4378,4.48,4.5021,4.581,4.6232,4.6232,4.704,4.7443,4.7462,4.8031,4.8306,4.8306,4.8306,4.8306,4.8306,4.8306,4.8306,4.8306,4.8306,4.8306,4.8324,4.8563,4.8655,4.8655,4.8655,4.9187,4.9958,5.016,5.0784,5.1555,5.2142,5.2729,5.3206,5.3206,5.2831,5.2381,5.2381,5.2381,5.2381,5.2381,5.2813,5.3206,5.3206,5.3206,5.3206,5.3206,5.3206,5.3206,5.3206,5.3206,5.3206,5.3206,5.2769,5.2381,5.2381,5.1988,5.1611,5.1393,5.0911,5.0445,5.0016,4.9563,4.9212,4.9001,4.9001,4.9001,4.9001,4.9001,4.9001,4.9001,4.9001,4.9001,4.9001,4.9001,4.9001,4.9001,4.8306,4.7373,4.6173,4.5227,4.4297,0.0,0.0,0.0,3.2317,0.0,0.0,0.0,0.0,3.8821,0.0,0.0,0.0,0.0,0.0,0.0,0.0,0.0,0.0,0.0,0.0,0.0,0.0,0.0,0.0,0.0,4.3497,4.3497,4.3497,4.3497,4.3828,4.4635,4.469,4.5057,4.5847,4.6654,4.7076,4.7076,4.7865,4.8269,4.8269,4.8306,4.8306,4.8306,4.8306,4.8306,4.8306,4.8306,4.8306,4.8306,4.8306,4.8306,4.8379,4.9224,4.9536,4.9536,4.9536,5.0068,5.0875,5.1646,5.2454,5.3133,5.317,5.3188,5.3206,5.3206,5.3164,5.3164,5.3164,5.3164,5.3164,5.3164,5.3164,5.3206,5.3206,5.3206,5.3206,5.3206,5.3206,5.3206,5.3206,5.3206,5.3206,5.3206,5.3164,5.3164,5.3164,5.3164,5.2875,5.2159,5.2047,5.1526,5.0129,4.9976,4.9722,4.9063,4.9001,4.9001,4.9001,4.9001,4.9001,4.9001,4.9001,4.9001,4.9001,4.9001,4.9001,4.9001,4.9001,4.8015,4.6173,4.5227,4.4297,0.0,0.0,3.2243,3.2452,0.0,0.0,0.0,0.0,0.0,0.0,0.0,0.0,0.0,0.0,0.0,0.0,0.0,0.0,0.0,0.0,0.0,0.0,0.0,0.0,0.0,0.0,4.3497,4.3497,4.3497,4.3846,4.4672,4.5204,4.5865,4.6673,4.748,4.7902,4.7902,4.8159,4.8306,4.8306,4.8306,4.8306,4.8306,4.8306,4.8306,4.8306,4.8306,4.8306,4.8343,4.8912,4.915,4.9242,5.0068,5.071,5.1114,5.0582,5.0894,5.1701,5.2527,5.2986,5.3206,5.3206,5.3206,5.3206,5.3206,5.3206,5.3206,5.3206,5.3206,5.3206,5.3206,5.3206,5.3206,5.3206,5.3206,5.3206,5.3206,5.3206,5.3206,5.3206,5.3206,5.3206,5.3206,5.3206,5.3206,5.3206,5.3206,5.3103,5.2875,5.2381,5.1741,5.0823,5.0297,4.9722,4.9063,4.9001,4.9001,4.9001,4.9001,4.9001,4.9001,4.9001,4.9001,4.9001,4.9001,4.9001,4.9001,4.9001,4.8353,4.7088,4.6189,4.484,3.1824,3.2402,0.0,3.347,3.5015,0.0,3.7374,0.0,0.0,0.0,0.0,0.0,0.0,0.0,0.0,0.0,0.0,0.0,0.0,4.1508,0.0,0.0,0.0,0.0,0.0,0.0,4.3497,4.3497,4.3754,4.4287,4.5094,4.5902,4.6709,4.7517,4.8031,4.8306,4.8306,4.8306,4.8306,4.8306,4.8306,4.8306,4.8306,4.8306,4.8471,4.8765,4.8765,4.893,4.9242,4.9793,5.0013,5.0105,5.0912,5.1536,5.194,5.1426,5.1738,5.2509,5.3023,5.3206,5.3206,5.3206,5.3206,5.3206,5.3206,5.3206,5.328,5.3555,5.3427,5.328,5.3555,5.3427,5.3206,5.3206,5.3206,5.3206,5.3206,5.3206,5.3206,5.3206,5.3206,5.3206,5.3206,5.3206,5.3206,5.3206,5.3206,5.3206,5.3206,5.2787,5.2242,5.1544,5.0823,5.0033,4.9046,4.9001,4.9001,4.9001,4.9001,4.9001,4.9001,4.9001,4.9001,4.9001,4.9001,4.9001,4.9001,4.9001,4.8513,4.7589,4.6692,4.531]},{"header":{"parameterUnit":"m.s-1","parameterCategory":1,"la1":30.6,"la2":29.2853,"lo1":-89.7004,"lo2":-87.6739,"dx":0.0162,"dy":0.0183,"nx":112,"ny":82,"refTime":"2023-02-02T06:00:00:Z","depth":0,"parameterNumber":3,"parameterNumberName":"V-component_of_WINDS"},"data":[0.0,0.0,0.0,0.0,0.0,0.0,0.0,0.0,0.0,0.0,0.0,0.0,0.0,0.0,0.0,0.0,0.0,0.0,0.0,0.0,0.0,0.0,0.0,0.0,0.0,0.0,0.0,0.0,0.0,0.0,0.0,0.0,0.0,0.0,0.0,0.0,0.0,0.0,0.0,0.0,0.0,0.0,0.0,0.0,0.0,0.0,0.0,0.0,0.0,0.0,0.0,0.0,0.0,0.0,0.0,0.0,0.0,0.0,0.0,0.0,0.0,0.0,0.0,0.0,0.0,0.0,0.0,0.0,0.0,0.0,0.0,0.0,0.0,0.0,0.0,0.0,0.0,0.0,0.0,0.0,0.0,0.0,0.0,0.0,0.0,0.0,0.0,0.0,0.0,0.0,-0.7947,-0.8429,-0.9072,-0.9496,-0.9599,-1.139,-1.2812,-1.3517,0.0,0.0,0.0,0.0,0.0,0.0,0.0,0.0,0.0,0.0,0.0,0.0,0.0,0.0,0.0,0.0,0.0,0.0,0.0,0.0,0.0,0.0,0.0,0.0,0.0,0.0,0.0,0.0,0.0,0.0,0.0,0.0,0.0,0.0,0.0,0.0,0.0,0.0,0.0,0.0,0.0,0.0,0.0,0.0,0.0,0.0,0.0,0.0,0.0,0.0,0.0,0.0,0.0,0.0,0.0,0.0,0.0,0.0,0.0,0.0,0.0,0.0,0.0,0.0,0.0,0.0,0.0,0.0,0.0,0.0,0.0,0.0,0.0,0.0,0.0,0.0,0.0,0.0,0.0,0.0,0.0,0.0,0.0,0.0,0.0,0.0,0.0,0.0,0.0,0.0,0.0,0.0,0.0,0.0,0.0,0.0,0.0,0.0,0.0,0.0,0.0,0.0,0.0,0.0,-0.83,-0.7657,-0.7842,-0.8237,-0.8842,-1.023,-1.1648,-1.286,0.0,0.0,0.0,0.0,0.0,0.0,0.0,0.0,0.0,0.0,0.0,0.0,0.0,0.0,0.0,0.0,0.0,0.0,0.0,0.0,0.0,0.0,0.0,0.0,0.0,0.0,0.0,0.0,0.0,0.0,0.0,0.0,0.0,0.0,0.0,0.0,0.0,0.0,0.0,0.0,0.0,0.0,0.0,0.0,0.0,0.0,0.0,0.0,0.0,0.0,0.0,0.0,0.0,0.0,0.0,0.0,0.0,0.0,0.0,0.0,0.0,0.0,0.0,0.0,0.0,0.0,0.0,0.0,0.0,0.0,0.0,0.0,0.0,0.0,0.0,0.0,0.0,0.0,0.0,0.0,0.0,0.0,0.0,0.0,0.0,0.0,0.0,0.0,0.0,0.0,0.0,0.0,0.0,0.0,0.0,0.0,0.0,0.0,0.0,0.0,0.0,0.0,0.0,-0.5458,-0.5341,-0.576,-0.6853,-0.7551,-0.7587,-0.9214,-1.0637,-1.1617,-1.3465,0.0,0.0,0.0,0.0,0.0,0.0,0.0,0.0,0.0,0.0,0.0,0.0,0.0,0.0,0.0,0.0,0.0,0.0,0.0,0.0,0.0,0.0,0.0,0.0,0.0,0.0,0.0,0.0,0.0,0.0,0.0,0.0,0.0,0.0,0.0,0.0,0.0,0.0,0.0,0.0,0.0,0.0,0.0,0.0,0.0,0.0,0.0,0.0,0.0,0.0,0.0,0.0,0.0,0.0,0.0,0.0,0.0,0.0,0.0,0.0,0.0,0.0,0.0,0.0,0.0,0.0,0.0,0.0,0.0,0.0,0.0,0.0,0.0,0.0,0.0,0.0,0.0,0.0,0.0,0.0,0.0,0.0,0.0,0.0,0.0,0.0,0.0,0.0,0.0,0.0,0.0,0.0,0.0,0.0,0.0,0.0,0.0,0.0,0.0,0.0,0.0,0.0,-0.2384,-0.2151,-0.3317,-0.5233,-0.6455,-0.6431,-0.833,-0.9717,-1.0202,-1.23,0.0,0.0,0.0,0.0,0.0,0.0,0.0,0.0,0.0,0.0,0.0,0.0,0.0,0.0,0.0,0.0,0.0,0.0,0.0,0.0,0.0,0.0,0.0,0.0,0.0,0.0,0.0,0.0,0.0,0.0,0.0,0.0,0.0,0.0,0.0,0.0,0.0,0.0,0.0,0.0,0.0,0.0,0.0,0.0,0.0,0.0,0.0,0.0,0.0,0.0,0.0,0.0,0.0,0.0,0.0,0.0,0.0,0.0,0.0,0.0,0.0,0.0,0.0,0.0,0.0,0.0,0.0,0.0,0.0,0.0,0.0,0.0,0.0,0.0,0.0,0.0,0.0,0.0,0.0,0.0,0.0,0.0,0.0,0.0,0.0,0.0,0.0,0.0,0.0,0.0,0.0,0.0,0.0,0.0,0.0,0.0,0.0,0.0,0.0,0.0,0.0,0.0,-0.0221,-0.0221,-0.0278,-0.2258,-0.4239,-0.5791,-0.7694,-0.8783,-0.8829,-1.1347,0.0,0.0,0.0,0.0,0.0,0.0,0.0,0.0,0.0,0.0,0.0,0.0,0.0,0.0,0.0,0.0,0.0,0.0,0.0,0.0,0.0,0.0,0.0,0.0,0.0,0.0,0.0,0.0,0.0,0.0,0.0,0.0,0.0,0.0,0.0,0.0,0.0,0.0,0.0,0.0,0.0,0.0,0.0,0.0,0.0,0.0,0.0,0.0,0.0,0.0,0.0,0.0,0.0,0.0,0.0,0.0,0.0,0.0,0.0,0.0,0.0,0.0,0.0,0.0,0.0,0.0,0.0,0.0,0.0,0.0,0.0,0.0,0.0,0.0,0.0,0.0,0.0,0.0,0.0,0.0,0.0,0.0,0.0,0.0,0.0,0.0,0.0,0.0,0.0,0.0,0.0,0.0,0.0,0.0,0.0,0.0,0.0,0.0,0.0,0.0,0.0,0.0,0.4139,0.3528,0.0,-0.0,-0.186,-0.3487,-0.5662,-0.7233,-0.7976,0.0,0.0,0.0,0.0,0.0,0.0,0.0,0.0,0.0,0.0,0.0,0.0,0.0,0.0,0.0,0.0,0.0,0.0,0.0,0.0,0.0,0.0,0.0,0.0,0.0,0.0,0.0,0.0,0.0,0.0,0.0,0.0,0.0,0.0,0.0,0.0,0.0,0.0,0.0,0.0,0.0,0.0,0.0,0.0,0.0,0.0,0.0,0.0,0.0,0.0,0.0,0.0,0.0,0.0,0.0,0.0,0.0,0.0,0.0,0.0,0.0,0.0,0.0,0.0,0.0,0.0,0.0,0.0,0.0,0.0,0.0,0.0,0.0,0.0,0.0,0.0,0.0,0.0,0.0,0.0,0.0,0.0,0.0,0.0,0.0,0.0,0.0,0.0,0.0,0.0,0.0,0.0,0.0,0.0,0.0,0.0,0.0,0.0,0.0,0.0,0.0,0.0,0.7558,0.716,0.623,0.0,0.2344,0.0546,-0.0716,-0.3406,-0.5491,-0.6528,0.0,0.0,0.0,0.0,0.0,0.0,0.0,0.0,0.0,0.0,0.0,0.0,0.0,0.0,0.0,0.0,0.0,0.0,0.0,0.0,0.0,0.0,0.0,0.0,0.0,0.0,0.0,0.0,0.0,0.0,0.0,0.0,0.0,0.0,0.0,0.0,0.0,0.0,0.0,0.0,0.0,0.0,0.0,0.0,0.0,0.0,0.0,0.0,0.0,0.0,0.0,0.0,0.0,0.0,0.0,0.0,0.0,0.0,0.0,0.0,0.0,0.0,0.0,0.0,0.0,0.0,0.0,0.0,0.0,0.0,0.0,0.0,0.0,0.0,0.0,0.0,0.0,0.0,0.0,0.0,0.0,0.0,0.0,0.0,0.0,0.0,0.0,0.0,0.0,0.0,0.0,0.0,0.0,0.0,0.0,0.0,0.0,0.0,0.0,0.0,0.0,0.0,0.9655,0.8443,0.7553,0.7452,0.4981,0.3021,0.2259,-0.1149,-0.3629,0.0,0.0,0.0,0.0,0.0,0.0,0.0,0.0,0.0,0.0,0.0,0.0,0.0,0.0,0.0,0.0,0.0,0.0,0.0,0.0,0.0,0.0,0.0,0.0,0.0,0.0,0.0,0.0,0.0,0.0,0.0,0.0,0.0,0.0,0.0,0.0,0.0,0.0,0.0,0.0,0.0,0.0,0.0,0.0,0.0,0.0,0.0,0.0,0.0,0.0,0.0,0.0,0.0,0.0,0.0,0.0,0.0,0.0,0.0,0.0,0.0,0.0,0.0,0.0,0.0,0.0,0.0,0.0,0.0,0.0,0.0,0.0,0.0,0.0,0.0,0.0,0.0,0.0,0.0,0.0,0.0,0.0,0.0,0.0,0.0,0.0,0.0,0.0,0.0,0.0,0.0,0.0,0.0,0.0,0.0,0.0,0.0,0.0,0.0,0.0,0.0,0.0,0.0,1.1725,1.0202,0.8947,0.8357,0.7042,0.5295,0.3187,0.0551,-0.1766,-0.352,0.0,0.0,0.0,0.0,0.0,0.0,0.0,0.0,0.0,0.0,0.0,0.0,0.0,0.0,0.0,0.0,0.0,0.0,0.0,0.0,0.0,0.0,0.0,0.0,0.0,0.0,0.0,0.0,0.0,0.0,0.0,0.0,0.0,0.0,0.0,0.0,0.0,0.0,0.0,0.0,0.0,0.0,0.0,0.0,0.0,0.0,0.0,0.0,0.0,0.0,0.0,0.0,0.0,0.0,0.0,0.0,0.0,0.0,0.0,0.0,0.0,0.0,0.0,0.0,0.0,0.0,0.0,0.0,0.0,0.0,0.0,0.0,0.0,0.0,0.0,0.0,0.0,0.0,0.0,0.0,0.0,0.0,0.0,0.0,0.0,0.0,0.0,0.0,0.0,0.0,0.0,0.0,0.0,0.0,0.0,0.0,0.0,0.0,0.0,0.0,0.0,0.0,1.4373,1.2388,1.0839,1.0402,0.8908,0.6929,0.453,0.2471,0.0386,-0.1818,0.0,0.0,0.0,0.0,0.0,0.0,0.0,0.0,0.0,0.0,0.0,0.0,0.0,0.0,0.0,0.0,0.0,0.0,0.0,0.0,0.0,0.0,0.0,0.0,0.0,0.0,0.0,0.0,0.0,0.0,0.0,0.0,0.0,0.0,0.0,0.0,0.0,0.0,0.0,0.0,0.0,0.0,0.0,0.0,0.0,0.0,0.0,0.0,0.0,0.0,0.0,0.0,0.0,0.0,0.0,0.0,0.0,0.0,0.0,0.0,0.0,0.0,0.0,0.0,0.0,0.0,0.0,0.0,0.0,0.0,0.0,0.0,0.0,0.0,0.0,0.0,0.0,0.0,0.0,0.0,0.0,0.0,0.0,0.0,0.0,0.0,0.0,0.0,0.0,0.0,0.0,0.0,0.0,0.0,0.0,0.0,0.0,0.0,0.0,0.0,0.0,0.0,1.7196,1.471,1.2946,1.2898,1.0487,0.8155,0.6294,0.4473,0.2528,0.0444,0.0,0.0,0.0,0.0,0.0,0.0,0.0,0.0,0.0,0.0,0.0,0.0,0.0,0.0,0.0,0.0,0.0,0.0,0.0,0.0,0.0,0.0,0.0,0.0,0.0,0.0,0.0,0.0,0.0,0.0,0.0,0.0,0.0,0.0,0.0,0.0,0.0,0.0,0.0,0.0,0.0,0.0,0.0,0.0,0.0,0.0,0.0,0.0,0.0,0.0,0.0,0.0,0.0,0.0,0.0,0.0,0.0,0.0,0.0,0.0,-1.7514,0.0,0.0,0.0,0.0,0.0,0.0,0.0,0.0,0.0,0.0,0.0,0.0,0.0,0.0,0.0,0.0,0.0,0.0,0.0,0.0,0.0,0.0,0.0,0.0,0.0,0.0,0.0,0.0,0.0,0.0,0.0,0.0,0.0,0.0,0.0,0.0,0.0,0.0,0.0,0.0,0.0,1.8281,1.5862,1.3971,1.3471,1.1514,0.9687,0.8214,0.5712,0.377,0.2692,0.0509,0.0,0.0,0.0,0.0,0.0,0.0,0.0,0.0,0.0,0.0,0.0,0.0,0.0,0.0,0.0,0.0,0.0,0.0,0.0,0.0,0.0,0.0,0.0,0.0,0.0,0.0,0.0,0.0,0.0,0.0,0.0,0.0,0.0,0.0,0.0,0.0,0.0,0.0,0.0,0.0,0.0,0.0,0.0,0.0,0.0,0.0,0.0,0.0,0.0,0.0,0.0,0.0,0.0,0.0,0.0,0.0,0.0,0.0,0.0,0.0,-1.5594,0.0,0.0,0.0,0.0,0.0,0.0,0.0,0.0,0.0,0.0,0.0,0.0,0.0,0.0,0.0,0.0,0.0,0.0,0.0,0.0,0.0,0.0,0.0,0.0,0.0,0.0,0.0,0.0,0.0,0.0,0.0,0.0,0.0,0.0,0.0,0.0,0.0,0.0,0.0,0.0,1.9334,1.7035,1.5269,1.4991,1.2979,1.1172,0.976,0.7745,0.5824,0.4116,0.2525,0.0,0.0,0.0,0.0,0.0,0.0,0.0,0.0,0.0,0.0,0.0,0.0,0.0,0.0,0.0,0.0,0.0,0.0,0.0,0.0,0.0,0.0,0.0,0.0,0.0,0.0,0.0,0.0,0.0,0.0,0.0,0.0,0.0,0.0,0.0,0.0,0.0,0.0,0.0,0.0,0.0,0.0,0.0,0.0,0.0,0.0,0.0,0.0,0.0,0.0,0.0,0.0,0.0,-0.8561,-0.8032,-0.6565,-0.5717,-0.5349,-0.5592,-0.9145,-1.1195,-1.1922,-1.0777,0.0,0.0,0.0,0.0,0.0,0.0,0.0,0.0,0.0,0.0,0.0,0.0,0.0,0.0,0.0,0.0,0.0,0.0,0.0,0.0,0.0,0.0,0.0,0.0,2.6133,2.5765,2.6649,0.0,0.0,0.0,0.0,0.0,0.0,0.0,0.0,0.0,0.0,0.0,2.0509,1.838,1.6778,1.6549,1.4506,1.2619,1.129,0.9806,0.8045,0.5829,0.4455,0.3313,0.0,0.0,0.0,0.0,0.0,0.0,0.0,0.0,0.0,0.0,0.0,0.0,0.0,0.0,0.0,0.0,0.0,0.0,0.0,0.0,0.0,0.0,0.0,0.0,0.0,0.0,0.0,0.0,0.0,0.0,0.0,0.0,-2.4006,-2.3473,0.0,0.0,0.0,0.0,0.0,0.0,0.0,0.0,0.0,0.0,0.0,0.0,0.0,-0.784,-0.6137,-0.6854,-0.6329,-0.4549,-0.3867,-0.3033,-0.2087,-0.125,-0.0858,-0.0858,-0.0653,0.0,-0.7395,-0.7171,0.0,0.0,0.0,0.0,0.0,0.0,0.0,0.0,0.0,0.0,0.0,0.0,0.0,0.0,0.0,0.0,0.0,0.0,0.0,0.0,0.0,0.0,2.7719,2.7734,2.7619,2.7624,0.0,2.7974,2.7872,2.8128,2.7734,0.0,0.0,0.0,0.0,0.0,0.0,0.0,2.1917,2.0024,1.8316,1.719,1.5528,1.4084,1.3111,1.1157,0.9762,0.9163,0.6466,0.4475,0.3605,0.215,0.0,0.0,0.0,0.0,0.0,0.0,0.0,0.0,0.0,0.0,0.0,0.0,0.0,0.0,0.0,0.0,0.0,0.0,0.0,0.0,0.0,0.0,0.0,0.0,0.0,0.0,0.0,0.0,0.0,-2.131,-1.9742,-1.8598,-1.7142,-1.5797,0.0,0.0,0.0,0.0,0.0,0.0,0.0,0.0,0.0,-0.2885,-0.317,-0.2586,-0.0853,-0.116,-0.045,0.1238,0.1168,0.156,0.2422,0.2829,0.3222,0.3663,0.4064,0.3174,0.1334,-0.0582,-0.1615,-0.1972,0.0,0.0,0.0,0.0,-0.0645,0.0307,0.577,0.8182,0.9482,1.3123,0.0,0.0,0.0,0.0,0.0,0.0,0.0,0.0,0.0,0.0,2.8981,2.8518,2.8585,2.8676,2.8453,2.8391,2.8449,0.0,2.8236,2.8066,2.8492,0.0,0.0,0.0,0.0,2.2991,2.2705,2.115,1.9754,1.882,1.7505,1.6066,1.4552,1.319,1.1738,1.0003,0.8618,0.737,0.6221,0.5257,0.4238,0.0,0.0,0.0,0.0,0.0,0.0,0.0,0.0,0.0,0.0,0.0,0.0,0.0,0.0,0.0,0.0,0.0,0.0,0.0,0.0,0.0,0.0,0.0,0.0,0.0,0.0,0.0,0.0,-1.7682,-1.5887,-1.444,-1.3141,-1.1774,0.0,0.0,0.0,0.0,0.0,0.0,-0.105,-0.0913,-0.0261,0.1321,0.1372,0.1958,0.3298,0.3721,0.4628,0.5917,0.5682,0.594,0.6621,0.6797,0.7218,0.7765,0.8001,0.8538,0.9001,0.5619,0.4201,0.4215,0.4338,0.3643,0.2887,0.6082,0.6502,0.6699,1.4732,1.7893,1.8762,2.1304,2.5375,2.8739,2.5843,0.0,0.0,0.0,0.0,3.047,2.9858,2.9785,2.9706,2.9167,2.9217,2.9251,2.8766,2.8753,2.8824,0.0,2.8464,2.8264,2.8264,0.0,0.0,0.0,0.0,2.3726,2.3426,2.2169,2.0994,2.0002,1.8884,1.752,1.5777,1.4838,1.3414,1.1212,1.0451,0.9699,0.865,0.7812,0.7024,0.6359,0.0,0.0,0.0,0.0,0.0,0.0,0.0,0.0,0.0,0.0,0.0,0.0,0.0,0.0,0.0,0.0,0.0,0.0,0.0,0.0,0.0,0.0,0.0,0.0,0.0,0.0,0.0,0.0,0.0,-1.2605,-0.9907,0.0,0.0,0.0,0.0,-0.0518,0.0456,0.1764,0.3466,0.3593,0.3994,0.5006,0.5003,0.5071,0.514,0.6746,0.7585,0.7718,0.931,1.0082,1.0151,1.0875,1.1199,1.1321,1.1968,1.2806,1.3327,0.9892,0.846,0.8571,0.9288,0.9483,0.9964,1.431,1.7036,1.9197,2.4232,2.7326,2.9113,2.9648,2.9804,2.9788,2.9972,2.9945,0.0,0.0,3.0401,3.0501,3.0094,2.998,2.9935,2.9712,2.9514,2.9392,2.9372,2.916,2.8773,0.0,2.7954,2.7926,2.7926,0.0,2.7234,2.7234,2.6438,2.5455,2.4285,2.3204,2.186,2.0087,1.8884,1.7787,1.6804,1.5471,1.4496,1.4022,1.1759,1.0468,1.0355,0.8849,0.8259,0.8983,0.9116,0.0,0.0,0.0,0.0,0.0,0.0,0.0,0.0,0.0,0.0,0.0,0.0,0.0,0.0,0.0,0.0,0.0,0.0,0.0,0.0,0.0,0.0,0.0,0.0,0.0,0.0,0.0,0.0,-0.725,-0.546,0.0,-0.1686,-0.0131,0.1247,0.241,0.3861,0.4993,0.5593,0.6677,0.7457,0.7802,0.8868,0.943,0.943,1.1034,1.1836,1.1836,1.2973,1.3517,1.3517,1.3785,1.438,1.5312,1.5573,1.6569,1.7949,1.7203,1.5923,1.4518,1.5847,1.6631,1.7433,2.0715,2.2532,2.3787,2.6931,2.8795,2.9908,3.0524,3.0623,3.0523,3.0584,3.0468,3.0325,3.0375,3.0428,3.0442,3.0285,3.0136,2.9954,2.9765,2.9662,2.9514,2.9203,2.9203,2.9138,2.87,2.8412,2.8156,2.7954,2.7577,2.721,2.6954,2.6385,2.5717,2.4944,2.4201,2.3041,2.1258,2.0663,1.9615,1.7503,1.6852,1.5915,1.4314,1.3399,1.2663,1.212,1.1556,1.11,1.0809,1.1334,1.152,0.0,0.0,0.0,0.0,0.0,0.0,0.0,0.0,0.0,0.0,0.0,0.0,0.0,0.0,0.0,0.0,0.0,0.0,0.0,0.0,0.0,0.0,0.0,0.0,0.0,0.0,-0.523,-0.2892,-0.158,0.0066,0.2421,0.3668,0.4844,0.6065,0.7746,0.8851,0.9109,1.0485,1.1232,1.1232,1.2292,1.286,1.286,1.4187,1.4858,1.4858,1.5646,1.6125,1.6374,1.6808,1.763,1.8785,1.9321,2.0254,2.1421,2.2623,2.212,2.0614,2.1062,2.171,2.2561,2.4691,2.5714,2.633,2.8401,2.9468,3.0039,3.0605,3.0806,3.0762,3.0603,3.0589,3.0562,3.0442,3.0372,3.0321,3.0279,3.0075,2.9861,2.9731,2.9643,2.9514,2.9203,2.9203,2.9181,2.8845,2.8682,2.8464,2.7982,2.7678,2.7334,2.6791,2.6297,2.5815,2.5259,2.4736,2.3719,2.1885,2.1697,2.069,1.8155,1.7743,1.6845,1.508,1.4501,1.3965,1.3433,1.313,1.2862,1.2562,1.3622,1.4031,1.3705,0.0,0.0,0.0,0.0,0.0,0.0,0.0,0.0,0.0,0.0,0.0,0.0,0.0,0.0,0.0,0.0,0.0,0.0,0.0,0.0,0.0,0.0,0.0,-0.6226,-0.4077,-0.178,-0.0066,0.1713,0.3488,0.5301,0.6976,0.8673,1.0474,1.205,1.3237,1.4096,1.4811,1.5243,1.5243,1.5243,1.531,1.53,1.61,1.6536,1.6525,1.7368,1.8066,1.8782,1.9988,2.0914,2.1611,2.3224,2.3754,2.3584,2.5681,2.6573,2.6513,2.4733,2.445,2.52,2.6292,2.6904,2.7456,2.9145,2.9935,3.0232,3.0507,3.0574,3.0542,3.035,3.0428,3.0522,3.0276,3.0186,3.0151,3.0023,2.9845,2.9696,2.9696,2.9533,2.9392,2.9353,2.916,2.8881,2.8446,2.8725,2.8743,2.801,2.7869,2.7589,2.6808,2.6297,0.0,2.5259,2.4736,2.3704,2.1932,2.1697,2.0899,1.8915,1.807,1.7302,1.6549,1.5089,1.4264,1.4264,1.3545,1.3485,1.4264,1.5786,1.6922,1.7633,0.0,0.0,0.0,0.0,0.0,0.0,0.0,0.0,0.0,0.0,0.0,0.0,0.0,0.0,0.0,0.0,0.0,0.0,0.0,0.0,0.0,0.0,-0.1957,-0.3486,-0.0855,0.1839,0.3584,0.5288,0.7305,0.9731,1.0821,1.1874,1.3014,1.3974,1.4657,1.4859,1.5636,1.6054,1.6054,1.6648,1.7192,1.7671,1.8425,1.9004,1.9458,2.0191,2.0868,2.1456,2.1797,2.2659,2.3875,2.4328,2.5203,2.6322,2.7017,2.7809,2.8476,2.7689,2.7846,2.8544,2.8766,2.9186,2.9684,3.0021,3.0208,3.025,3.0133,3.0085,3.0114,3.0199,3.0133,3.0023,3.0054,2.9946,2.9842,2.9796,2.9729,2.9661,2.9513,2.9434,2.927,2.879,2.8845,2.8815,2.8156,2.8316,2.8342,2.7589,2.747,2.7303,2.6791,2.6297,0.0,2.5259,2.4736,2.3903,2.2575,2.1993,2.1108,1.9556,1.8797,1.7841,1.6595,1.6073,1.5843,1.5843,1.5661,1.5881,1.6666,1.7069,1.7688,0.0,0.0,0.0,0.0,0.0,0.0,0.0,0.0,0.0,0.0,0.0,0.0,0.0,0.0,0.0,0.0,0.0,0.0,0.0,0.0,0.0,0.0,-0.0065,0.1699,0.1759,0.3528,0.5301,0.6693,0.8386,1.0319,1.2461,1.3391,1.4218,1.5032,1.6033,1.6795,1.7049,1.7813,1.8443,1.8961,1.9382,1.9951,2.0563,2.1002,2.1462,2.1977,2.2408,2.3007,2.3703,2.39,2.4708,2.5916,2.6296,2.704,2.7979,2.8422,2.8941,0.0,0.0,0.0,0.0,0.0,3.0166,3.0391,3.0171,3.0071,3.0017,2.9874,2.9827,2.9832,2.984,2.9813,2.9766,2.9744,2.9661,2.957,2.957,2.9379,2.9116,2.902,2.8993,2.8837,2.8316,2.8489,2.8515,2.7794,2.7823,0.0,2.7129,2.7178,2.7178,2.6758,2.6104,2.554,2.5259,2.4552,2.3721,2.2785,2.21,2.1266,2.0244,1.927,0.0,0.0,0.0,1.6978,1.6978,1.6978,0.0,0.0,0.0,1.8436,1.915,2.0218,0.0,0.0,2.2058,2.349,0.0,0.0,0.0,0.0,0.0,0.0,0.0,0.0,0.0,0.0,0.0,0.0,0.0,0.0,0.0,0.0,0.2872,0.5557,0.8016,0.8587,0.896,0.96,1.1193,1.2877,1.4431,1.5321,1.6074,1.6838,1.83,1.9389,1.9991,0.0,0.0,0.0,0.0,2.2965,2.3553,2.3553,2.3804,2.4232,2.4232,2.4745,2.5698,2.6111,2.676,2.7653,2.8494,2.8832,2.8885,2.965,2.9866,2.9682,2.9482,2.975,3.0234,3.0198,3.0139,3.0043,2.9775,0.0,0.0,2.9551,2.9551,2.9533,2.9375,2.9456,2.9533,2.9357,2.9272,2.923,2.923,2.879,2.8342,2.8342,2.8342,2.8264,2.7926,2.8102,2.8112,2.7378,2.7224,2.7098,2.6674,2.6922,2.7034,2.6674,2.5746,2.5105,2.5105,2.4241,2.3377,2.2875,0.0,0.0,2.0944,1.9594,1.8501,1.7797,1.7743,1.7743,1.7743,1.7786,1.8178,1.8821,1.8821,1.915,1.9798,2.0547,2.1161,2.1744,2.2935,2.4074,0.0,0.0,0.0,0.0,0.0,0.0,0.0,0.0,0.0,0.0,0.0,0.0,0.0,0.0,0.0,0.3635,0.6885,0.9674,1.1594,1.3541,1.4329,1.3203,1.4492,1.609,1.7574,1.8425,1.912,1.9725,2.1008,2.1839,2.1931,2.248,2.3065,2.36,2.3641,2.4155,2.5208,2.5226,2.5629,2.6415,0.0,0.0,2.7428,2.7519,2.8056,2.8927,2.9126,2.9323,2.9523,2.9745,2.981,2.9795,3.0017,3.0021,2.9852,2.9594,2.9406,2.927,2.907,2.8772,2.8494,2.8621,2.8658,2.8688,2.8856,2.8787,0.0,2.8856,2.8567,2.8192,2.8192,2.8102,2.801,2.801,2.801,2.788,2.75,2.7707,2.7765,2.6971,2.6723,2.6556,2.621,2.621,2.6245,2.6156,2.5243,2.4552,2.4552,2.4006,2.3551,2.3421,2.2363,2.1649,2.152,2.0307,1.9254,1.8555,1.8501,1.8501,1.8501,1.9044,1.9423,1.9579,1.9579,1.9643,1.9798,2.0953,2.1568,2.1697,2.2483,2.3463,0.0,0.0,0.0,0.0,0.0,0.0,0.0,0.0,0.0,0.0,0.0,-0.7375,0.0,0.0,0.429,0.7804,1.0431,1.2772,1.483,1.6678,1.7157,1.5424,1.6584,1.8016,1.9394,2.015,2.0933,2.1893,2.2732,2.3333,2.3614,2.4202,2.4859,2.5647,2.5781,2.6258,2.7136,2.7184,2.7482,2.8103,2.8118,2.8389,2.8837,2.8827,2.9066,2.9497,2.9497,2.9597,2.9732,2.9616,2.9336,2.9022,2.9192,2.9336,2.9415,2.9157,2.8873,2.8622,2.8413,2.8226,2.8067,2.8139,2.8156,2.8166,2.8314,2.8254,2.8166,2.8314,2.8121,2.7897,2.7897,2.7754,2.7589,2.7589,2.7589,2.7439,2.6807,2.7144,2.7269,2.616,2.6125,2.6108,2.5672,2.5373,2.5297,2.5577,2.491,2.4389,2.4389,2.3906,2.3595,2.3595,2.2455,2.1697,2.1697,2.0181,1.9254,1.9254,1.8874,1.8874,1.9254,1.9579,1.9798,1.9798,2.0156,2.0295,2.0295,2.1582,2.2193,2.2193,2.286,2.3608,0.0,0.0,0.0,0.0,0.0,0.0,0.0,0.0,-1.5719,-1.2742,-0.8838,-0.4785,-0.0816,0.3833,0.818,1.1653,1.3749,1.5665,1.7706,1.9208,1.9556,1.8043,1.8858,1.9962,2.1118,2.1749,2.2557,2.3686,2.4265,2.4788,2.5288,2.5896,2.6726,2.7707,2.7973,2.8364,2.8913,2.8968,2.9131,2.944,2.9438,2.9579,2.9866,2.9772,2.9724,2.9718,2.9574,2.945,2.9309,2.8985,2.8466,2.7835,2.7835,2.8095,2.8466,2.8379,2.817,2.7861,2.7677,2.7601,2.7542,2.7736,2.7765,2.7765,2.7765,2.7765,2.7765,2.766,2.7648,2.7648,2.7542,2.7299,2.7034,2.7034,2.6952,2.6707,2.598,2.642,2.6556,2.5433,2.5449,2.554,2.5144,2.4592,2.443,2.4973,2.4592,2.4225,2.4225,2.3879,2.3595,2.3595,2.2455,2.1602,2.1363,1.9825,1.915,1.9747,1.9254,1.9202,1.9798,1.9798,1.9798,1.9798,2.0346,2.0597,2.0597,2.188,2.2498,2.2498,2.3275,2.3837,-3.003,-2.9176,-2.8204,-2.8004,-2.5967,-2.3447,0.0,0.0,-1.5761,-1.0438,-0.6621,-0.2465,0.3218,0.7293,1.0863,1.4151,1.6915,1.8944,2.001,2.2014,2.3314,2.3092,2.2903,2.3036,2.3705,2.4184,2.4716,2.5477,2.6444,2.7035,2.7128,2.7857,2.85,2.897,2.9081,2.9432,3.0013,3.0028,3.0111,3.0261,3.0039,3.0001,3.0154,2.9894,2.9785,2.9755,2.9175,2.8433,2.7653,2.7452,2.7035,2.6499,2.6499,2.6369,2.6219,2.6602,2.6734,2.6669,2.6653,2.6455,2.6333,2.7129,2.7365,2.7365,2.7365,2.7365,2.7269,2.6802,2.6756,2.6741,2.6298,2.6175,2.6139,2.6139,2.5783,2.5395,2.5297,2.5357,2.5395,2.5221,2.4855,2.4552,2.4511,2.4032,2.3879,2.4389,2.4032,2.3681,2.3681,2.3638,2.3595,2.3595,2.2455,2.1232,2.008,1.9786,1.9695,1.9798,1.9695,1.9695,1.9798,1.9798,1.9798,1.9798,1.985,1.9901,1.9901,2.1183,2.1805,2.1852,2.3024,2.3638,-3.0176,-2.9252,-2.8191,0.0,-2.6015,-2.3758,-2.219,-1.8371,-1.3793,-0.8955,-0.3423,0.2407,0.8562,1.2456,1.5742,0.0,2.0919,2.2265,2.3212,2.443,2.5353,2.5899,2.6048,2.5933,2.536,2.5916,2.657,2.7156,2.7921,2.8402,2.8452,2.9138,2.9599,2.9783,2.9931,3.0024,3.0076,3.0156,3.0157,3.0049,2.9747,2.961,2.9653,2.9285,2.8839,2.8374,2.7993,2.7309,2.6466,2.637,2.6064,2.5671,2.5671,2.5579,2.548,2.5938,2.5955,2.5737,2.5737,2.564,2.5598,2.5966,2.6057,2.6057,2.6057,2.63,2.642,2.5898,2.6019,2.6191,2.5689,2.5524,2.5524,2.5524,2.5373,2.5105,2.4776,2.4973,2.5028,2.4389,2.4348,2.4307,2.3991,2.3767,2.3681,2.3921,2.3752,2.3595,2.3595,2.3595,2.3319,2.256,2.171,2.0818,1.9901,1.9798,1.9798,1.9798,1.9798,1.9798,1.9798,1.9798,1.9798,1.9798,2.0207,2.0534,2.089,2.1459,2.2072,2.2786,2.2995,2.3275,-2.9726,0.0,0.0,-2.7289,-2.5858,-2.407,-2.1955,-1.6203,-0.9845,-0.4828,0.1865,0.8486,1.3872,1.7219,2.0144,2.3056,2.4236,2.5045,2.5768,2.6528,2.7228,2.7876,2.8388,2.8274,2.7207,2.7582,2.8055,2.8461,2.9025,2.9393,2.947,2.9978,3.0238,3.0208,3.0347,3.0265,2.9952,2.9939,2.9825,2.9586,2.9183,2.9007,2.8987,2.8429,2.7808,2.7145,2.6871,2.6235,2.5394,2.5394,2.5141,2.4752,2.4752,2.4752,2.4776,2.5086,2.5102,2.4973,2.4973,2.4973,2.5012,2.5144,2.5221,2.5221,2.5221,2.5449,2.5652,2.5144,2.5373,2.5652,2.5144,2.4973,2.4973,2.4973,2.4871,2.4657,2.4266,2.4471,2.4552,2.3752,2.3921,2.4074,2.3681,2.3595,2.3595,2.3595,2.3595,2.3595,2.3595,2.3465,2.2935,2.1838,2.1161,2.0547,1.985,1.9798,1.9798,1.9798,1.9798,1.9798,1.9798,1.9798,1.9798,1.9798,2.0308,2.0733,2.1183,2.1506,2.2179,2.3069,2.3009,2.3187,0.0,0.0,-2.7356,-2.6218,-2.579,-2.4501,-2.0091,-1.2173,-0.3696,0.3517,1.0143,1.5607,1.8644,2.0996,2.3096,2.5013,2.6267,2.7006,2.7046,2.835,2.9307,2.9341,2.964,2.9806,0.0,2.9298,2.9119,2.9264,2.9716,3.002,3.016,3.0311,3.0325,3.02,3.0214,3.0078,2.9808,2.9409,2.9191,2.9117,2.8511,2.8236,2.8211,2.7478,2.6908,2.6488,2.6027,2.5298,2.4415,2.4415,2.4116,2.3638,2.3638,2.3638,2.3638,2.3681,2.3991,2.443,2.443,2.443,2.4511,2.5012,2.5221,2.5221,2.5221,2.5221,2.5105,2.4592,2.4831,2.5105,2.4552,2.443,2.443,2.443,2.4032,2.3638,2.3638,2.3638,2.3638,2.3595,2.3595,2.3638,2.3595,2.3595,2.3595,2.3595,2.3595,2.3595,2.3595,2.3098,2.2452,2.1744,2.1161,2.0547,1.985,1.9798,1.9798,1.9798,1.9798,1.9798,1.9798,1.9798,1.9798,1.9798,1.9798,1.985,1.985,2.1086,2.1697,2.1791,2.3024,2.3595,0.0,0.0,-2.5136,-2.4063,-2.3952,-2.143,-1.1232,-0.4912,0.046,0.6261,1.3029,1.8965,2.2417,2.4413,2.6067,2.7708,2.8222,2.8516,2.8794,2.9265,2.9652,2.9777,2.9907,0.0,0.0,0.0,0.0,2.9773,2.9916,3.0058,3.0185,3.0072,2.9982,2.994,2.9929,2.9684,2.9133,2.9015,2.8713,2.8294,2.7467,2.6779,2.6184,2.5938,2.5575,2.5086,2.4507,2.3884,2.3245,2.2788,2.2517,2.2363,2.2363,2.2363,2.2363,2.2363,2.2426,2.2743,2.3593,2.3879,2.3921,2.4074,2.4158,2.4158,2.4158,2.4389,2.4552,2.4032,2.4282,2.4552,2.3991,2.3879,2.3879,2.3879,2.3709,2.3595,2.3595,2.3595,2.3595,2.3595,2.3595,2.3595,2.3595,2.3595,2.3595,2.3595,2.3595,2.3465,2.3054,2.2438,2.1819,2.1161,2.0534,2.0055,1.9798,1.9798,1.9798,1.9798,1.9798,1.9798,1.9798,1.9798,1.9798,1.9798,1.9798,2.0003,2.0446,2.0434,2.1103,2.2332,2.2766,2.3435,0.0,-2.0715,-1.9883,-1.7651,-1.7008,-1.4452,-0.5112,0.2422,0.8555,1.248,1.7812,2.2623,2.5356,2.6981,2.8244,2.934,2.9525,2.9581,2.9746,2.9844,2.9922,2.9964,2.9962,3.0027,0.0,0.0,0.0,3.0078,2.9971,2.994,3.0053,2.9729,2.9513,2.9432,2.9306,2.888,2.8196,2.8048,2.7628,2.6916,2.6319,2.5737,2.5182,2.5012,2.4617,2.4028,2.3477,2.2862,2.23,2.1899,2.1697,2.1697,2.1697,2.1697,2.1697,2.1697,2.1697,2.1838,2.2651,2.2935,2.298,2.3187,2.329,2.3334,2.3551,2.3837,2.4032,2.3681,2.3837,2.4032,2.3681,2.3595,2.3595,2.3595,2.3595,2.3595,2.3595,2.3595,2.3595,2.3595,2.3595,2.3595,2.3595,2.3421,2.3187,2.2935,2.2935,2.286,2.274,2.1927,2.1245,2.0845,2.0207,1.9798,1.9798,1.9798,1.9798,1.9798,1.9798,1.9798,1.9798,1.9798,1.9798,1.9798,2.0012,2.0308,2.0771,2.0759,2.1342,2.2525,2.2816,2.3539,-1.8187,-1.5997,-1.1946,-0.7701,-0.5636,-0.3887,-0.1331,0.9566,1.9629,2.143,2.4098,2.6375,0.0,0.0,2.9474,2.9794,3.0034,3.0095,2.9874,3.0045,3.0114,0.0,0.0,0.0,0.0,0.0,0.0,3.0081,0.0,2.966,2.9722,2.9289,2.8947,2.875,2.8366,2.7788,2.7065,2.6653,2.6007,2.5144,2.5144,2.5144,2.5105,2.4536,2.3987,2.3419,2.2846,2.2253,2.1649,2.1602,2.1602,2.1602,2.1602,2.1602,2.1602,2.1602,2.1602,2.1602,2.1602,2.1649,2.1805,2.2452,2.2649,2.274,2.3319,2.3508,2.3551,2.3508,2.3551,2.3595,2.3508,2.3551,2.3595,2.3551,2.3595,2.3595,2.3595,2.3595,2.3595,2.3551,2.3551,2.3551,2.3551,2.3054,2.2466,2.1846,2.1704,2.1894,2.2512,2.1561,2.0795,2.0746,2.0207,1.9798,1.9798,1.9823,1.9849,1.9849,1.9874,1.9886,1.9886,1.9886,1.9886,1.9886,2.0426,2.0756,2.0756,2.1859,2.2376,2.2415,2.3082,2.377,-0.9567,-0.7968,-0.6092,-0.1556,0.2957,0.6966,0.9334,1.5273,2.0344,2.0649,2.3279,2.5844,0.0,0.0,0.0,2.8875,2.8687,0.0,2.8871,2.8987,0.0,2.9287,0.0,2.9025,2.9252,2.8876,0.0,0.0,2.8907,2.8918,2.8617,2.8341,2.8192,2.8121,2.7635,2.7139,2.6653,2.59,2.5211,2.4576,2.4576,2.4389,2.3991,2.3376,2.3039,2.2846,2.1738,2.1175,2.0979,2.0471,2.0283,2.0283,2.0283,2.0283,2.0283,2.0283,2.0283,2.0283,2.0283,2.089,2.1744,2.1899,2.1946,2.1993,2.2132,2.2515,2.283,2.2331,2.2891,2.3363,2.2409,2.2891,2.3465,2.3024,2.3275,2.3595,2.3595,2.3595,2.3465,2.3024,2.2934,2.2934,2.2934,2.2785,2.2623,2.2394,2.197,2.1522,2.1326,2.0993,2.0597,2.0105,1.9901,1.9798,1.9798,2.02,2.0451,2.0451,2.0828,2.1054,2.1054,2.1054,2.1054,2.1054,2.1204,2.128,2.128,2.1572,2.1906,2.2312,2.306,2.3727,-0.2659,-0.1364,-0.0065,0.3858,0.7399,1.0456,1.2445,1.541,1.8205,1.9636,2.2004,0.0,0.0,0.0,0.0,0.0,0.0,0.0,2.7878,2.8016,2.8202,0.0,2.8415,0.0,2.856,2.8276,2.7887,0.0,2.8022,2.819,2.7733,2.7449,2.7199,2.6977,2.6521,2.6027,2.5579,2.4863,2.421,2.3664,2.3664,2.3318,2.2741,2.2438,2.2114,2.1846,2.114,2.0646,2.0346,1.9952,1.9798,1.9798,1.9798,1.9798,1.9798,1.9798,1.9798,1.9836,2.0087,2.0669,2.1249,2.1291,2.1293,2.1342,2.1615,2.1946,2.2193,2.1805,2.2225,2.2606,2.1885,2.2225,2.2696,2.2346,2.2744,2.3175,2.3175,2.3346,2.3406,2.3073,2.3025,2.2929,2.2637,2.2588,2.2451,2.214,2.1785,2.1469,2.1159,2.1108,2.095,2.0592,2.0539,2.0539,2.0539,2.084,2.1029,2.1029,2.1317,2.1493,2.1493,2.1493,2.1493,2.1493,2.1732,2.1845,2.1845,2.2096,2.2372,2.2673,2.3058,2.3618,0.2588,0.3769,0.515,0.8122,0.9168,0.9882,1.152,1.3202,1.532,1.8674,0.0,2.2541,2.4461,2.5448,2.5981,2.6135,0.0,2.6507,2.6811,2.7,2.7239,2.7578,2.7631,2.7631,2.7613,2.7631,2.7278,2.6404,2.7075,2.7352,2.6877,2.6521,2.6114,2.5651,2.5287,2.4816,2.4184,2.3694,2.3187,2.2558,2.2558,2.2253,2.1697,2.1615,2.1293,2.0795,2.0696,2.0359,1.9811,1.9886,1.9911,1.9924,1.9999,2.0024,2.0024,2.0024,2.0024,2.01,2.0602,2.0832,2.0797,2.0849,2.0882,2.0983,2.1524,2.1753,2.1801,2.1704,2.1801,2.1897,2.1704,2.1801,2.1897,2.1801,2.2262,2.2724,2.2724,2.2971,2.3289,2.3393,2.3341,2.3094,2.2524,2.2417,2.2239,2.1693,2.1594,2.1619,2.1694,2.1581,2.1493,2.1493,2.1493,2.1493,2.1493,2.1556,2.1594,2.1594,2.1669,2.1707,2.1707,2.1707,2.1707,2.1707,2.2184,2.2422,2.2422,2.284,2.3115,2.3251,2.3251,2.3637,0.52,0.6416,0.7007,0.8765,0.9761,1.0746,1.2373,1.4477,0.0,0.0,0.0,2.2144,2.3516,2.3941,2.4353,2.5255,0.0,0.0,0.0,0.0,2.5724,0.0,0.0,0.0,0.0,0.0,0.0,0.0,2.5587,2.5623,2.5533,2.5475,2.5173,2.4681,2.4576,2.4044,2.2995,2.292,2.2543,2.1852,2.1852,2.1805,2.1697,2.121,2.0894,2.0746,2.0194,0.0,1.9836,2.0326,2.0514,2.0618,2.1016,2.1192,2.1192,2.1192,2.1192,2.1204,2.1305,2.1343,2.1385,2.1395,2.1357,2.1411,2.1508,2.1861,2.2154,2.1658,2.226,2.2872,2.1807,2.2313,2.2975,2.2418,2.276,2.3242,2.3242,2.2908,2.2724,2.3289,2.2936,2.2524,2.2417,2.2417,2.2369,2.221,2.2171,2.2334,2.2786,2.2058,2.1493,2.1493,2.1493,2.1493,2.1493,2.1907,2.2171,2.2171,2.2598,2.2849,2.2849,2.2849,2.2849,2.2849,2.2877,2.2927,2.2927,2.3027,2.3376,2.3853,2.3853,2.4155,0.7218,0.8083,0.8517,0.9664,1.0584,1.1502,1.2696,0.0,0.0,0.0,0.0,2.1178,2.2757,0.0,0.0,0.0,0.0,0.0,0.0,0.0,0.0,0.0,0.0,0.0,0.0,0.0,0.0,2.4816,2.4776,2.4776,2.4776,2.4236,2.3776,2.3492,2.3201,2.2743,2.2193,2.2193,2.1866,2.1245,2.1245,2.1225,2.118,2.0901,2.0926,2.1144,2.0316,1.9989,2.0013,1.9808,1.9733,1.9769,2.0074,2.0169,2.0169,2.0169,2.0411,2.086,2.1141,2.1551,2.197,2.2246,2.1958,2.1493,2.1493,2.169,2.1856,2.1592,2.1953,2.2268,2.1648,2.1953,2.2309,2.2008,2.2393,2.2887,2.3188,2.2985,2.2884,2.3197,2.2985,2.277,2.277,2.277,2.2757,2.2698,2.3,2.3288,2.3552,2.3376,2.3,2.241,2.2347,2.2347,2.2347,2.2585,2.2736,2.2736,2.2987,2.3078,2.3078,2.3427,2.359,2.359,2.3866,2.4017,2.4017,2.4017,2.4155,2.4431,2.4431,2.4569,0.8348,0.8975,0.953,1.0364,1.1226,1.202,1.2826,1.4209,0.0,0.0,1.9105,2.0205,2.1974,0.0,0.0,0.0,0.0,0.0,0.0,0.0,0.0,0.0,0.0,0.0,0.0,0.0,0.0,2.4266,2.4101,2.4059,2.4059,2.3054,2.2498,2.2498,2.1946,2.1663,2.152,2.1595,2.1399,2.0793,2.0923,2.0797,2.061,2.061,2.0724,2.088,2.0226,1.9925,1.9878,1.9332,1.9066,1.9088,1.9248,1.9232,1.9293,1.9475,1.9835,2.0381,2.1153,2.1799,2.2312,2.2927,2.2548,2.1845,2.1845,2.1845,2.1845,2.1845,2.1845,2.1845,2.1845,2.1845,2.1845,2.1845,2.2171,2.2611,2.2977,2.3226,2.3314,2.3314,2.3414,2.3428,2.3428,2.3428,2.3428,2.3428,2.3891,2.4167,2.4167,2.4556,2.4481,2.359,2.3428,2.3428,2.3428,2.3428,2.3428,2.3428,2.3428,2.3428,2.3428,2.3929,2.4167,2.4167,2.4607,2.482,2.482,2.482,2.4883,2.4983,2.4983,2.5059,0.7837,0.8683,0.953,1.0364,1.1226,1.202,1.2826,0.0,0.0,1.7379,1.8773,1.9978,2.0832,2.1941,0.0,0.0,0.0,2.3595,0.0,0.0,0.0,0.0,0.0,0.0,0.0,0.0,0.0,2.3709,2.3187,2.2875,2.2875,2.2193,2.1805,2.1805,2.1744,2.1424,2.0894,2.1361,2.1329,2.0696,2.1201,2.0995,2.0282,2.0282,1.982,1.9149,1.903,1.903,0.0,1.9449,1.9649,1.9767,2.0277,2.0456,2.052,2.135,2.1151,2.0785,2.2348,2.2494,2.2065,2.2871,2.3002,2.2927,2.2927,2.2927,2.2927,2.2927,2.2927,2.2927,2.2927,2.2927,2.2927,2.2927,2.2965,2.3015,2.3065,2.3552,2.3916,2.3916,2.4318,2.4669,2.4669,2.4669,2.4669,2.4669,2.4707,2.4745,2.4745,2.4795,2.4782,2.4682,2.4669,2.4669,2.4669,2.4669,2.4669,2.4669,2.4669,2.4669,2.4669,2.472,2.4745,2.4745,2.4795,2.482,2.482,2.482,2.5059,2.5523,2.5523,2.5799,0.8549,0.9396,1.0174,1.0498,1.1538,1.2634,1.2948,0.0,0.0,1.7291,1.8047,1.8943,2.0484,2.1224,2.1799,0.0,0.0,0.0,0.0,0.0,0.0,0.0,0.0,0.0,0.0,0.0,2.3756,2.3487,2.2879,2.2542,2.2542,2.165,2.1323,2.1622,2.1297,2.1134,2.1232,2.1409,2.1415,2.1167,2.0851,2.0694,2.063,2.0141,1.9889,1.9861,1.9369,1.9115,0.0,1.8822,1.8709,1.8761,1.9204,1.938,1.9479,2.0091,2.046,2.0733,2.133,2.2128,2.2805,2.3128,2.3599,2.4092,2.3753,2.3891,2.4142,2.4142,2.4142,2.4142,2.4142,2.4142,2.4142,2.4142,2.4142,2.4142,2.4142,2.433,2.4494,2.4494,2.4669,2.482,2.482,2.482,2.482,2.482,2.5084,2.5285,2.5285,2.5586,2.5799,2.5799,2.5222,2.482,2.482,2.482,2.482,2.482,2.482,2.482,2.482,2.5121,2.5285,2.5285,2.5636,2.5799,2.5799,2.5799,2.6088,2.6603,2.6603,2.6904,0.9139,1.0098,1.0926,1.0926,1.2151,1.3364,0.0,0.0,1.5796,1.7302,1.7578,1.8209,2.0131,2.0646,2.1091,2.1988,0.0,2.2844,0.0,0.0,0.0,0.0,0.0,0.0,0.0,2.3645,2.3342,2.3105,2.2671,2.2322,2.2159,2.1407,2.1199,2.1549,2.0932,2.0736,2.1119,2.1052,2.101,2.094,2.05,2.0398,2.0488,1.9865,1.9759,1.9952,1.9375,1.9188,0.0,1.8656,1.8389,1.8418,1.8711,1.8828,1.8867,1.9449,1.9909,2.0257,2.0815,2.184,2.2931,2.2863,2.3875,2.4906,2.4261,2.4439,2.482,2.482,2.482,2.482,2.482,2.482,2.482,2.482,2.482,2.482,2.482,2.4946,2.5059,2.5059,2.5197,2.531,2.531,2.531,2.531,2.531,2.5749,2.6088,2.6088,2.659,2.6942,2.6942,2.6251,2.5724,2.5561,2.5699,2.5787,2.5787,2.5787,2.5787,2.5787,2.6138,2.6339,2.6339,2.6741,2.6942,2.6942,2.6942,2.7143,2.7532,2.7532,2.7733,0.9274,1.0521,1.1772,1.1772,1.2992,1.4213,0.0,0.0,1.5796,1.7302,1.7578,1.8058,1.9527,2.0346,2.0795,0.0,0.0,0.0,2.2694,0.0,0.0,0.0,0.0,0.0,2.4494,2.3839,2.3133,2.247,2.2417,0.0,2.1536,2.1481,2.1468,2.1481,2.064,2.0226,2.0226,1.9958,1.9778,1.9705,2.0333,2.0128,1.9299,1.9299,1.908,1.8633,1.8633,1.8877,0.0,1.9268,1.9277,1.9277,1.9277,1.9277,1.9423,2.0257,2.0053,1.9568,2.1296,2.1909,2.1967,2.1909,2.3553,2.5453,2.4494,2.4481,2.482,2.482,2.482,2.482,2.482,2.482,2.482,2.482,2.482,2.482,2.482,2.5222,2.5586,2.5586,2.605,2.6508,2.6508,2.6508,2.6508,2.6508,2.6917,2.7268,2.7268,2.7745,2.8084,2.8084,2.8084,2.7846,2.7306,2.7758,2.8072,2.8072,2.8072,2.8072,2.8072,2.8084,2.8084,2.8084,2.8084,2.8084,2.8084,2.8084,2.8097,2.8097,2.8097,2.8097,1.071,1.1392,1.195,1.2451,1.3425,1.4213,1.4213,0.0,1.5796,1.7302,1.7578,1.8058,1.9527,1.9952,2.0258,2.0759,0.0,0.0,0.0,0.0,0.0,0.0,0.0,0.0,0.0,0.0,2.3221,2.291,2.289,2.2774,2.2611,2.2065,2.1834,2.2058,2.1803,2.1802,2.2172,2.1533,2.1245,2.1183,2.0457,1.9963,1.9703,1.9424,1.9231,1.9082,1.9082,1.916,1.9287,1.9287,1.9287,1.9316,1.96,1.9717,1.9746,2.0416,2.045,2.0232,2.0818,2.1459,2.2028,2.1955,2.2928,2.407,2.3796,2.4776,2.5937,2.5937,2.5937,2.5937,2.5937,2.5937,2.5937,2.5937,2.5937,2.5937,2.5937,2.6076,2.6302,2.6678,2.6904,2.7143,2.7519,2.7582,2.7582,2.7582,2.7733,2.7846,2.7846,2.7996,2.8109,2.8109,2.8448,2.8448,2.7896,2.8009,2.8109,2.8109,2.8109,2.8109,2.8109,2.8109,2.8109,2.8109,2.8109,2.8109,2.8109,2.8109,2.8298,2.8674,2.9076,2.9264,0.0,1.2443,1.281,1.3304,1.4085,0.0,0.0,0.0,1.614,1.7357,1.7852,1.8382,1.9579,1.9798,2.0028,2.0656,0.0,0.0,0.0,0.0,0.0,0.0,0.0,0.0,0.0,2.3605,2.3539,2.3427,2.3257,2.3168,2.3168,2.2384,2.1987,2.2159,2.1634,2.1557,2.1886,2.1246,2.0941,2.0875,2.0038,1.9696,1.9636,1.9439,1.9375,1.9531,1.9531,1.9619,0.0,1.9766,1.9766,1.9795,2.0059,2.0156,2.0195,2.0469,2.0566,2.0586,2.0762,2.1484,2.2255,2.2056,2.2947,2.4161,2.4534,2.523,2.6025,2.6383,2.6684,2.6766,2.6766,2.6917,2.708,2.708,2.708,2.708,2.708,2.708,2.718,2.7532,2.7595,2.7708,2.8047,2.8109,2.8109,2.8109,2.8285,2.8411,2.8411,2.8612,2.8737,2.8737,2.9051,2.9114,2.8775,2.8737,2.8737,2.8737,2.8737,2.8737,2.8737,2.8737,2.8737,2.8737,2.8737,2.8737,2.8737,2.8737,2.8913,2.9264,2.9628,2.9792,0.0,0.0,0.0,0.0,0.0,0.0,0.0,0.0,0.0,0.0,1.8167,1.8939,1.9643,1.9836,2.0037,2.063,0.0,0.0,0.0,0.0,0.0,0.0,0.0,0.0,2.4366,2.4157,2.4054,2.3992,2.3567,2.3278,2.3211,2.2321,2.1771,2.1771,2.0552,1.9917,2.0023,1.9636,1.936,1.936,1.9389,1.9336,1.9336,1.9365,1.959,0.0,1.9961,2.0195,2.0566,2.0566,2.0566,2.0566,2.0566,2.0586,2.0615,2.0615,2.0635,2.0723,2.1133,2.1879,2.2553,2.2056,2.3213,2.5004,2.5942,2.5749,2.5266,2.6218,2.6872,2.726,2.7344,2.772,2.8109,2.8109,2.8109,2.8109,2.8109,2.8109,2.8109,2.816,2.816,2.8185,2.821,2.8222,2.8222,2.8222,2.8662,2.8988,2.8988,2.9453,2.9792,2.9702,2.9702,2.9624,2.9546,2.9702,2.9792,2.9792,2.9792,2.9792,2.9792,2.9792,2.9792,2.9792,2.9792,2.9792,2.9792,2.9792,2.9792,2.9792,2.9792,2.9792,0.0,0.0,0.0,0.0,0.0,0.0,0.0,0.0,0.0,0.0,0.0,1.8939,1.9643,2.0162,2.0501,0.0,0.0,0.0,0.0,0.0,0.0,0.0,2.444,2.4671,2.4671,2.4671,2.4285,2.3508,2.3352,2.301,2.2252,2.1366,2.0885,2.0885,2.0266,2.037,2.1399,2.0681,2.0257,2.0257,1.9969,1.9766,1.9775,2.0117,2.0322,2.041,2.041,2.0469,2.0566,2.0566,2.0566,2.0566,2.0566,2.0781,2.1074,2.1074,2.1289,2.1592,2.1699,2.1892,2.2056,2.1928,2.2195,2.2818,2.3732,2.5057,2.6217,2.644,2.6598,2.6856,2.7678,2.8009,2.8109,2.8109,2.8109,2.8109,2.8109,2.8109,2.8235,2.8649,2.8737,2.8875,2.9315,2.9402,2.9402,2.9402,2.9503,2.9591,2.9591,2.9704,2.9456,2.8597,2.8518,2.8187,2.7383,2.8803,2.9792,2.9792,2.9792,2.9792,2.9792,2.9792,2.9792,2.9792,2.9792,2.9792,2.9792,2.9792,2.9792,2.9792,2.9792,2.9792,0.0,0.0,0.0,0.0,0.0,0.0,0.0,0.0,0.0,0.0,0.0,0.0,2.0135,0.0,0.0,0.0,0.0,0.0,0.0,0.0,0.0,0.0,2.4644,2.482,0.0,2.4641,2.4287,2.3724,2.3086,2.2495,2.1934,2.1084,2.0589,2.0589,2.0391,2.0442,2.0988,2.0698,2.0589,2.0589,2.0325,2.0215,2.0225,2.0459,2.0566,2.0566,2.0566,2.0566,2.0576,2.0791,2.0869,2.0889,2.1094,2.1318,2.1533,2.1533,2.168,2.1914,2.2109,2.2305,2.2546,2.3022,2.3264,2.3337,2.3794,2.4767,2.5735,2.575,2.5873,2.6201,2.6818,2.7162,2.7353,2.7353,2.7353,2.7507,2.798,2.8133,2.8307,2.9176,2.9327,2.9249,2.9057,2.9028,2.9028,2.9028,2.8621,2.8462,2.8949,2.8621,2.8211,2.8096,2.8096,2.8108,2.8051,2.9131,2.9611,2.9028,2.9028,2.9275,2.9792,2.9792,2.9792,2.9792,2.9792,2.9792,2.9792,2.9792,2.9792,2.9792,2.9792,2.9792,0.0,0.0,0.0,0.0,0.0,0.0,0.0,0.0,0.0,0.0,0.0,0.0,0.0,0.0,0.0,0.0,0.0,0.0,0.0,0.0,0.0,2.4946,2.5021,0.0,2.4863,2.451,2.42,2.391,2.2695,2.1993,2.1915,2.1111,2.0693,2.0771,2.0771,2.0586,2.0225,2.0518,2.0664,2.0664,2.0732,2.0771,2.0771,2.0771,2.0771,2.0771,2.0771,0.0,2.0791,2.1182,2.1338,2.1367,2.1738,2.1924,2.1982,2.1982,2.2021,2.2129,2.248,2.2842,2.3222,2.4211,2.4542,2.4542,2.4542,2.4542,2.4545,2.4562,2.5029,2.5499,2.5661,2.6147,2.6565,2.673,2.6719,2.6964,2.7924,2.8096,2.8347,2.9118,2.93,2.8961,2.8016,2.7844,2.7844,2.7844,2.7035,2.6801,2.7763,2.7046,2.6801,2.751,2.7591,2.7936,2.87,2.8791,2.845,2.7683,2.8096,2.8767,2.9792,2.9792,2.9792,2.9792,2.9792,2.9792,2.9792,2.9792,2.9792,2.9792,2.9792,2.9792,1.5352,1.5864,0.0,0.0,0.0,0.0,0.0,0.0,0.0,0.0,0.0,0.0,0.0,0.0,0.0,0.0,0.0,0.0,0.0,0.0,2.5473,2.5473,0.0,2.5915,2.5059,2.492,2.4149,2.2445,2.2146,2.1768,2.1342,2.1213,2.1299,2.167,2.1689,2.165,2.1582,2.1279,2.1133,2.1133,2.1504,2.1689,2.1689,2.1689,2.1689,2.1689,0.0,2.1689,2.1689,2.1758,2.1787,2.1787,2.1865,2.21,2.2412,2.2412,2.2646,2.2959,2.3018,2.3086,2.3135,2.3299,2.3387,2.3387,2.3387,2.3387,2.3357,2.3391,2.4142,2.5176,2.6113,2.6416,2.6719,2.7614,2.7844,2.7924,2.8084,2.8096,2.7855,2.7139,2.6976,2.6976,2.6801,2.6719,2.6719,2.6719,2.6637,2.6565,2.6719,2.6637,2.6224,2.5368,2.5284,2.4957,2.4221,2.4135,2.4467,2.5284,2.7947,2.9624,2.9792,2.9792,2.9792,2.9792,2.9792,2.9792,2.9792,2.9792,2.9792,2.9792,2.9792,2.9792,1.5864,1.6255,0.0,0.0,0.0,0.0,0.0,0.0,0.0,0.0,0.0,0.0,0.0,0.0,0.0,0.0,0.0,2.4946,2.5209,2.5724,2.6063,0.0,0.0,2.6094,2.5087,2.4748,2.3918,2.2482,2.2121,2.183,2.1572,2.1582,2.168,2.1875,2.1885,2.1885,2.1885,2.1914,2.1807,2.1592,2.1787,2.1885,2.1885,2.1885,2.1885,2.1885,0.0,2.1885,2.1904,2.2129,2.2217,2.2246,2.2471,2.2685,2.2852,2.2852,2.2969,2.3135,2.3135,2.3135,2.3135,2.3135,2.3135,2.3135,2.3135,2.3135,2.3135,2.3135,2.3464,2.3963,2.4563,2.4638,2.4808,2.5294,2.5368,2.5535,2.6191,2.6356,2.6356,2.6472,2.6483,2.6307,2.5724,2.5546,2.5546,2.5546,2.5052,2.4893,2.5462,2.5052,2.4723,2.4787,2.4787,2.4882,2.4893,2.4978,2.5136,2.5724,2.7695,2.9197,2.9792,2.9792,2.9792,2.9792,2.9792,2.9792,2.9792,2.9792,2.9792,2.9792,2.9792,2.9792,1.6539,1.7008,1.7407,0.0,0.0,0.0,0.0,0.0,0.0,0.0,0.0,0.0,0.0,0.0,0.0,0.0,2.5335,2.5636,2.5774,2.6189,2.6584,2.664,2.6432,2.5966,2.506,2.4371,2.3589,2.2594,2.2159,2.1934,2.2031,2.2031,2.208,2.2178,2.2178,2.2178,2.2178,2.25,2.2451,2.2031,2.2129,2.2178,2.2178,2.2178,2.2178,2.2178,2.2178,2.2178,2.2207,2.2519,2.2656,2.2685,2.3018,2.3135,2.3135,2.3135,2.3135,2.3135,2.3135,2.3135,2.3135,2.3135,2.3135,2.3135,2.3135,2.3135,2.3135,2.3135,2.3135,2.3135,2.3135,2.3135,2.3135,2.3464,2.3464,2.3714,2.4617,2.4787,2.4957,2.5557,2.5724,2.5389,2.4542,2.4372,2.4372,2.4372,2.3637,2.3387,2.4296,2.3637,2.3464,2.4296,2.4372,2.4798,2.5641,2.5724,2.5808,2.6058,2.7116,2.8108,2.8961,2.9287,2.9365,2.9365,2.9624,2.9792,2.9792,2.9792,2.9792,2.9792,2.9792,2.9792,1.7302,1.8426,1.9253,1.8669,0.0,0.0,1.9957,0.0,0.0,0.0,0.0,0.0,0.0,0.0,0.0,0.0,2.5573,2.5787,2.6395,0.0,2.6653,2.7155,2.6311,2.5526,2.5002,2.3975,2.2979,2.1991,2.1948,2.206,2.2441,2.2471,2.2646,2.3037,2.3047,2.3047,2.3047,2.3076,2.2881,2.2471,2.2861,2.3047,2.3047,2.3047,2.3047,2.3047,2.3047,2.3047,2.3057,2.3076,2.3096,2.3096,2.3125,2.3135,2.3135,2.3135,2.3135,2.3135,2.3135,2.3135,2.3135,2.3135,2.3135,2.3135,2.3135,2.3135,2.3135,2.3135,2.3135,2.3135,2.3135,2.3135,2.3387,2.4457,2.4713,2.4702,2.4787,2.4787,2.4542,2.3551,2.3299,2.3299,2.3222,2.3222,2.3222,2.3222,2.3135,2.3135,2.3222,2.3135,2.3135,2.3222,2.3222,2.3222,2.3299,2.3299,2.38,2.4872,2.5964,2.6637,2.673,2.7695,2.8255,2.8255,2.9275,2.9792,2.9792,2.9792,2.9792,2.9792,2.9792,2.9792,1.8515,1.9203,0.0,0.0,0.0,0.0,0.0,0.0,0.0,0.0,0.0,0.0,0.0,0.0,0.0,2.605,2.6138,2.6339,2.6892,2.6967,2.6955,2.6822,2.6426,2.5569,2.4097,2.3847,2.3309,2.2359,2.2519,2.2734,2.2891,2.29,2.2969,2.3135,2.3135,2.3135,2.3135,2.3135,2.3057,2.29,2.3066,2.3135,2.3135,2.3135,2.3135,2.3135,2.3135,2.3135,2.3135,2.3135,2.3135,2.3135,2.3135,2.3135,2.3135,2.3135,2.3135,2.3135,2.3135,2.3135,2.3135,2.3135,2.3135,2.3135,2.3135,2.3135,2.3135,2.3135,2.3135,2.3135,2.3135,2.3135,2.3222,2.3637,2.3714,2.3714,2.3714,2.3714,2.3637,2.3222,2.3135,2.3135,2.3135,2.3135,2.3135,2.3135,2.3135,2.3135,2.3135,2.3135,2.3135,2.3135,2.3135,2.3135,2.3135,2.3135,2.3299,2.3714,2.4798,2.5797,2.6483,2.7522,2.8096,2.8096,2.9197,2.9792,2.9792,2.9792,2.9792,2.9792,2.9792,2.9792,1.9648,2.0176,0.0,0.0,0.0,0.0,0.0,0.0,0.0,0.0,0.0,0.0,0.0,0.0,0.0,0.0,2.6716,2.6917,2.7469,2.7544,2.7371,2.6828,2.6417,2.5599,2.3903,2.3742,2.3453,2.2705,2.2969,2.3135,2.3135,2.3135,2.3135,2.3135,2.3135,2.3135,2.3135,2.3135,2.3135,2.3135,2.3135,2.3135,2.3135,2.3135,2.3135,2.3135,2.3135,2.3135,2.3135,2.3135,2.3135,2.3135,2.3135,2.3135,2.3135,2.3135,2.3135,2.3135,2.3135,2.3135,2.3135,2.3135,2.3135,2.3135,2.3135,2.3135,2.3135,2.3135,2.3135,2.3135,2.3135,2.3135,2.3135,2.3135,2.3135,2.3135,2.3135,2.3135,2.3135,2.3135,2.3135,2.3135,2.3135,2.3135,2.3135,2.3135,2.3135,2.3135,2.3135,2.3135,2.3135,2.3135,2.3135,2.3135,2.3135,2.3135,2.3135,2.3135,2.379,2.4798,2.5891,2.7035,2.7763,2.8084,2.9197,2.9792,2.9792,2.9792,2.9792,2.9792,2.9792,2.9792,2.0503,2.1481,0.0,0.0,0.0,0.0,0.0,0.0,0.0,0.0,0.0,0.0,0.0,0.0,0.0,2.7205,2.7293,2.7482,2.8034,2.8109,2.7928,2.7341,2.6279,2.5344,2.483,2.38,2.3135,2.3135,2.3135,2.3135,2.3135,2.3135,2.3135,2.3135,2.3135,2.3135,2.3135,2.3135,2.3135,2.3135,2.3135,2.3135,2.3135,2.3135,2.3135,2.3135,2.3135,2.3135,2.3135,2.3135,2.3135,2.3135,2.3135,2.3135,2.3135,2.3135,2.3135,2.3135,2.3135,2.3135,2.3135,2.3135,2.3135,2.3135,2.3135,2.3135,2.3135,2.3135,2.3135,2.3135,2.3135,2.3135,2.3135,2.3135,2.3135,2.3135,2.3135,2.3135,2.3135,2.3135,2.3135,2.3135,2.3135,2.3135,2.3135,2.3135,2.3135,2.3135,2.3144,2.3154,2.3154,2.3154,2.3154,2.3154,2.3154,2.3154,2.3154,2.3154,2.3154,2.3647,2.4713,2.5891,2.6964,2.8084,2.9197,2.9792,2.9804,2.9804,2.9804,2.9817,2.9804,2.9804,2.155,0.0,0.0,0.0,0.0,0.0,0.0,0.0,0.0,0.0,0.0,0.0,0.0,0.0,0.0,2.777,2.7858,2.7815,2.7572,2.7557,2.703,2.5678,2.5236,2.464,2.3704,2.3299,2.3135,2.3135,2.3135,2.3135,2.3135,2.3135,2.3135,2.3135,2.3135,2.3135,2.3135,2.3135,2.3135,2.3135,2.3135,2.3135,2.3135,2.3135,2.3135,2.3135,2.3135,2.3135,2.3135,2.3135,2.3135,2.3135,2.3135,2.3135,2.3135,2.3135,2.3135,2.3135,2.3135,2.3135,2.3135,2.3135,2.3135,2.3135,2.3135,2.3135,2.3135,2.3135,2.3135,2.3135,2.3135,2.3135,2.3135,2.3135,2.3135,2.3135,2.3135,2.3135,2.3135,2.3135,2.3135,2.3135,2.3135,2.3135,2.3135,2.3135,2.3135,2.3252,2.3555,2.3857,2.4033,2.4033,2.4033,2.4033,2.4033,2.4033,2.4033,2.4033,2.4033,2.3849,2.3667,2.5473,2.6637,2.6964,2.887,2.998,3.0369,3.0369,3.0557,3.0909,3.0545,3.0369,2.2071,0.0,0.0,0.0,0.0,0.0,0.0,0.0,0.0,0.0,0.0,0.0,0.0,2.7607,0.0,2.8348,2.8436,2.8225,2.7705,2.762,2.6921,2.4999,2.4787,2.4382,2.3222,2.3135,2.3135,2.3135,2.3135,2.3135,2.3135,2.3135,2.3135,2.3135,2.3135,2.3135,2.3135,2.3135,2.2862,2.2403,2.2862,2.2862,2.2403,2.2862,2.3135,2.3135,2.3135,2.3135,2.3135,2.3135,2.3135,2.3135,2.3135,2.3135,2.3135,2.3135,2.3135,2.3135,2.3135,2.3135,2.3135,2.3135,2.3135,2.3135,2.3135,2.3135,2.3135,2.3135,2.3135,2.3135,2.3135,2.3135,2.3135,2.3135,2.3135,2.3135,2.3135,2.3135,2.3135,2.3135,2.3135,2.3193,2.3369,2.3398,2.3457,2.3623,2.3643,2.374,2.4004,2.4258,2.4414,2.4414,2.4414,2.4414,2.4414,2.4414,2.4414,2.4414,2.4414,2.418,2.3672,2.5862,2.7307,2.7725,2.9492,3.0583,3.0922,3.0922,3.1085,3.1386,3.1072,3.0922,0.0,0.0,0.0,0.0,0.0,0.0,0.0,0.0,0.0,0.0,0.0,0.0,2.8084,2.8185,2.836,2.8913,2.9001,2.8771,2.8183,2.8004,2.7186,2.5041,2.4702,2.4211,2.3222,2.3135,2.3135,2.3135,2.3135,2.3135,2.3135,2.3135,2.3135,2.3135,2.3135,2.3135,2.3135,2.3135,2.258,2.148,2.2589,2.2501,2.148,2.2589,2.3135,2.3135,2.3135,2.3135,2.3135,2.3135,2.3135,2.3135,2.3135,2.3135,2.3135,2.3135,2.3135,2.3135,2.3135,2.3135,2.3135,2.3135,2.3135,2.3135,2.3135,2.3135,2.3135,2.3135,2.3135,2.3135,2.3135,2.3164,2.3193,2.3193,2.3164,2.3135,2.3135,2.3164,2.3193,2.3193,2.3223,2.3379,2.3779,2.3848,2.3975,2.4355,2.4453,2.4473,2.4473,2.4512,2.4541,2.4541,2.4541,2.4541,2.4541,2.4541,2.4541,2.4541,2.4541,2.4541,2.4541,2.6662,2.8362,2.94,3.0692,3.1411,3.1461,3.1461,3.1486,3.1537,3.1486,3.1461,0.0,2.3846,0.0,0.0,0.0,0.0,0.0,0.0,0.0,0.0,0.0,2.8097,2.8649,2.875,2.8938,2.9515,2.9603,2.9229,2.8243,2.736,2.6378,2.4957,2.4049,2.3387,2.3135,2.3135,2.3135,2.3135,2.3135,2.3135,2.3135,2.3135,2.3135,2.3135,2.3135,2.3135,2.3135,2.3135,2.296,2.2677,2.296,2.296,2.2677,2.296,2.3135,2.3135,2.3135,2.3135,2.3135,2.3135,2.3135,2.3135,2.3135,2.3135,2.3135,2.3135,2.3135,2.3135,2.3135,2.3135,2.3135,2.3135,2.3135,2.3135,2.3135,2.3135,2.3135,2.3135,2.3135,2.3135,2.3135,2.3389,2.3652,2.3652,2.3389,2.3135,2.3135,2.3408,2.3652,2.3652,2.3916,2.417,2.4268,2.4277,2.4316,2.4404,2.4707,2.4922,2.4922,2.5234,2.5459,2.5459,2.5459,2.5459,2.5459,2.5459,2.5459,2.5459,2.5459,2.5459,2.5459,2.7014,2.8015,2.8275,3.0348,3.1599,3.2039,3.2039,3.2265,3.2704,3.2252,3.2039,0.0,0.0,0.0,0.0,0.0,0.0,0.0,0.0,0.0,0.0,2.8298,2.8674,2.9239,2.934,2.944,2.9741,2.9792,2.9209,2.7533,2.6883,2.5891,2.4221,2.3464,2.3135,2.3135,2.3135,2.3135,2.3135,2.3135,2.3135,2.3135,2.3135,2.3135,2.3135,2.3135,2.3135,2.3135,2.3135,2.2775,2.2217,2.2217,2.1943,2.1409,2.2589,2.3135,2.3135,2.3135,2.3135,2.3135,2.3135,2.3135,2.3135,2.3135,2.3135,2.3135,2.3135,2.3135,2.3135,2.3135,2.3135,2.3135,2.3135,2.3135,2.3135,2.3135,2.3135,2.3184,2.3389,2.3457,2.3496,2.3701,2.3916,2.4092,2.4092,2.3916,2.375,2.375,2.3926,2.4092,2.4092,2.4268,2.4482,2.4697,2.4902,2.5049,2.5049,2.5244,2.5391,2.5391,2.5596,2.5742,2.5742,2.5742,2.5742,2.5742,2.5742,2.5742,2.5742,2.5742,2.5742,2.5742,2.7024,2.7757,2.7757,3.0055,3.1431,3.1712,3.2349,3.278,3.3068,3.2767,3.2629,0.0,0.0,0.0,0.0,0.0,0.0,0.0,0.0,0.0,2.9051,2.9076,2.9227,2.9704,2.9792,2.9792,2.9792,2.9624,2.887,2.7046,2.6472,2.5473,2.3637,2.3222,2.3135,2.3135,2.3135,2.3135,2.3135,2.3135,2.3135,2.3135,2.3135,2.3135,2.3135,2.2862,2.2775,2.2775,2.2589,2.1952,2.1025,2.1025,2.0486,1.9579,2.1765,2.2775,2.2775,2.3047,2.3135,2.3135,2.3135,2.3135,2.3135,2.3135,2.3135,2.3135,2.3135,2.3135,2.3135,2.3135,2.3135,2.3135,2.3135,2.3135,2.3154,2.3232,2.3252,2.334,2.3769,2.3896,2.3975,2.4326,2.4473,2.4531,2.4531,2.459,2.46,2.4453,2.4473,2.4531,2.4531,2.459,2.4756,2.5117,2.5488,2.5742,2.5742,2.5742,2.5742,2.5742,2.5742,2.5742,2.5742,2.5742,2.5742,2.5742,2.5742,2.5742,2.5742,2.5742,2.5742,2.5742,2.6658,2.7315,2.7315,2.9852,3.1223,3.1223,3.2513,3.3081,3.3081,3.3081,3.3081,0.0,0.0,0.0,0.0,0.0,0.0,0.0,0.0,0.0,0.0,2.9679,2.9691,2.9779,2.9792,2.9792,2.9792,2.8937,2.8176,2.7936,2.6284,2.4872,2.4628,2.3714,2.3135,2.3135,2.3135,2.3135,2.3135,2.3135,2.3135,2.3135,2.3135,2.3135,2.3135,2.212,2.1569,2.1569,2.0486,1.9861,1.9761,1.9761,1.967,1.9588,2.0935,2.1569,2.1569,2.2677,2.3135,2.3135,2.3135,2.3135,2.3135,2.3135,2.3135,2.3135,2.3135,2.3135,2.3135,2.3135,2.3135,2.3135,2.3135,2.3135,2.3213,2.3584,2.3701,2.3789,2.4219,2.4336,2.4346,2.4404,2.4697,2.498,2.498,2.5283,2.5352,2.458,2.4717,2.498,2.498,2.5293,2.5576,2.5635,2.5693,2.5742,2.5742,2.5742,2.5742,2.5742,2.5742,2.5742,2.5742,2.5742,2.5742,2.5742,2.5742,2.5742,2.5742,2.5742,2.5742,2.5742,2.583,2.5917,2.5917,2.9396,3.1223,3.1223,3.2513,3.3081,3.3081,3.3081,3.3081,0.0,0.0,0.0,0.0,0.0,0.0,0.0,0.0,2.9478,2.9741,2.9792,2.9792,2.9792,2.9792,2.9792,2.9792,2.8858,2.7936,2.729,2.5786,2.4542,2.3877,2.3387,2.3135,2.3135,2.3135,2.3135,2.3135,2.3135,2.3135,2.3135,2.2492,2.212,2.212,2.0935,2.0305,2.0305,1.9761,1.9497,1.9488,1.8772,1.8503,1.8503,1.9039,2.0034,2.1382,2.2589,2.3135,2.3135,2.3135,2.3135,2.3135,2.3135,2.3135,2.3135,2.3135,2.3135,2.3135,2.3135,2.3135,2.3184,2.3428,2.3506,2.3584,2.4014,2.4141,2.4228,2.4658,2.4785,2.4834,2.5088,2.5303,2.5439,2.5439,2.5596,2.5635,2.5244,2.5303,2.5439,2.5439,2.5605,2.5742,2.5742,2.5742,2.5742,2.5742,2.5742,2.5742,2.5742,2.5742,2.5742,2.5742,2.5742,2.5742,2.5742,2.5742,2.5742,2.5742,2.5742,2.5742,2.5742,2.5742,2.5742,2.5742,2.8669,3.0226,3.0226,3.2152,3.3081,3.3081,3.3081,3.3081,0.0,0.0,0.0,0.0,0.0,0.0,0.0,0.0,2.9792,0.0,2.9792,2.9792,2.9792,2.9792,2.9702,2.9456,2.8438,2.7279,2.6224,2.5052,2.4049,2.3222,2.3135,2.3135,2.3135,2.3135,2.3135,2.3135,2.3135,2.3135,2.3135,2.1943,2.1293,2.1293,1.9852,1.9039,1.9039,1.8764,1.858,1.858,1.7677,1.7225,1.7225,1.7598,1.868,2.0486,2.1676,2.2315,2.2677,2.2677,2.2862,2.3135,2.3135,2.3135,2.3135,2.3135,2.3135,2.3154,2.3262,2.3301,2.3379,2.3809,2.3945,2.4033,2.4453,2.458,2.4678,2.5117,2.5234,2.5312,2.5644,2.5742,2.5742,2.5742,2.5742,2.5742,2.5742,2.5742,2.5742,2.5742,2.5742,2.5742,2.5742,2.5742,2.5742,2.5742,2.5742,2.5742,2.5742,2.5742,2.5742,2.5742,2.5742,2.5742,2.5742,2.5742,2.5742,2.5742,2.5742,2.5742,2.5742,2.5742,2.5742,2.5742,2.7851,2.8947,2.8958,3.1424,3.2612,3.2612,3.2982,3.3081,0.0,0.0,0.0,0.0,0.0,0.0,0.0,0.0,2.9792,2.9792,2.9792,2.9792,2.9792,2.9792,2.9456,2.8347,2.729,2.6224,2.5041,2.3877,2.3135,2.3144,2.3135,2.3135,2.3135,2.3135,2.3135,2.3135,2.3135,2.3135,2.3135,2.1943,2.1293,2.1293,1.9039,1.7777,1.7777,1.6574,1.6015,1.6015,1.592,1.592,1.592,1.7131,1.7785,1.7956,1.9131,2.0305,2.1382,2.1382,2.2031,2.3135,2.3135,2.3135,2.3135,2.3135,2.3135,2.3193,2.3613,2.375,2.3828,2.4248,2.4385,2.4463,2.4902,2.5029,2.5127,2.5576,2.5703,2.5713,2.5732,2.5742,2.5742,2.5742,2.5742,2.5742,2.5742,2.5742,2.5742,2.5742,2.5742,2.5742,2.5742,2.5742,2.5742,2.5742,2.5742,2.5742,2.5742,2.5742,2.5742,2.5742,2.5742,2.5742,2.5742,2.5742,2.5742,2.5742,2.5742,2.5742,2.5742,2.5742,2.5742,2.5742,2.703,2.7673,2.7683,3.0135,3.1311,3.1311,3.2513,3.3081,0.0,0.0,0.0,0.0,0.0,0.0,2.8243,2.8976,2.9792,2.9792,2.9792,2.9792,2.9792,2.9197,2.8597,2.8176,2.6614,2.5294,2.4872,2.38,2.3135,2.3135,2.3135,2.3135,2.3135,2.3135,2.3135,2.3135,2.2403,2.1933,2.1933,2.0755,1.9761,1.9039,1.8141,1.7318,1.648,1.6015,1.6204,1.7037,1.6204,1.6204,1.7037,1.6669,1.648,1.648,1.6929,1.8748,2.1382,2.2129,2.2677,2.3135,2.3135,2.3135,2.3174,2.3457,2.3555,2.3613,2.4043,2.4199,2.4268,2.4697,2.4834,2.4922,2.5361,2.5498,2.5527,2.5693,2.5742,2.5742,2.5742,2.5742,2.5742,2.5742,2.5742,2.5742,2.5742,2.5742,2.5742,2.5742,2.5742,2.5742,2.5742,2.5742,2.5742,2.5742,2.5742,2.5742,2.5742,2.5742,2.5742,2.5742,2.5742,2.5742,2.5742,2.5742,2.5742,2.5742,2.5742,2.5742,2.5742,2.5742,2.5742,2.5742,2.61,2.6754,2.7589,3.0045,3.1223,3.1223,3.2525,3.3081,0.0,0.0,0.0,0.0,0.0,2.8448,2.817,0.0,2.9792,2.9792,2.9792,2.9792,2.9792,2.8609,2.7522,2.7522,2.6036,2.4702,2.4286,2.3551,2.3135,2.3135,2.3135,2.3135,2.3135,2.3135,2.3135,2.3135,2.2403,2.1756,2.1293,2.0124,1.8764,1.7131,1.7037,1.6669,1.5832,1.5832,1.6197,1.7037,1.6197,1.6197,1.7037,1.6204,1.5832,1.5825,1.6292,1.7848,2.0124,2.0953,2.1498,2.1872,2.2011,2.2344,2.2767,2.3186,2.3621,2.4062,2.4482,2.4639,2.4707,2.5156,2.5293,2.5352,2.5644,2.5742,2.5742,2.5742,2.5742,2.5742,2.5742,2.5742,2.5742,2.5742,2.5742,2.5781,2.5928,2.584,2.5742,2.5742,2.5742,2.5742,2.5742,2.5742,2.5742,2.5742,2.5742,2.5742,2.5742,2.5742,2.5742,2.5742,2.5742,2.5742,2.5742,2.5742,2.5742,2.5742,2.5742,2.5742,2.5742,2.5742,2.5742,2.5742,2.5742,2.6294,2.7589,2.959,3.0765,3.1223,3.2525,3.3081,0.0,0.0,0.0,0.0,0.0,0.0,2.8303,0.0,2.9779,2.9792,2.9792,2.9792,2.9792,2.7959,2.6483,2.6483,2.5462,2.4372,2.3222,2.3135,2.3135,2.3135,2.3135,2.3135,2.3135,2.3135,2.3057,2.3047,2.3047,2.2492,2.1293,2.0034,1.8303,1.592,1.5825,1.5832,1.5832,1.5832,1.5832,1.5832,1.5832,1.5832,1.5832,1.5832,1.5832,1.5825,1.7138,1.7707,1.7707,1.7699,1.8427,1.9546,1.9808,2.0712,2.1996,2.229,2.3196,2.44,2.4941,2.5088,2.5156,2.5596,2.5742,2.5742,2.5742,2.5742,2.5742,2.5742,2.5742,2.5742,2.5742,2.5752,2.5752,2.5752,2.5762,2.5889,2.6318,2.6074,2.5771,2.5771,2.5771,2.5771,2.5771,2.5771,2.5771,2.5771,2.5771,2.5771,2.5771,2.5771,2.5771,2.5752,2.5752,2.5752,2.5742,2.5742,2.5742,2.5752,2.5752,2.5762,2.5771,2.5771,2.5762,2.5752,2.5752,2.64,2.7683,2.8866,3.0045,3.1223,3.2525,3.3081,2.5752,0.0,0.0,0.0,0.0,0.0,0.0,0.0,2.9289,2.9704,2.9792,2.9534,2.8688,2.7452,2.6224,2.5378,2.4296,2.3474,2.3135,2.3135,2.3135,2.3135,2.3135,2.3135,2.3135,2.3135,2.2765,0.0,2.1033,1.9951,1.8772,1.7483,1.6936,1.7131,1.6292,1.5832,1.5832,1.5832,1.5832,1.5832,1.5832,1.5832,1.5832,1.5832,1.5832,1.5838,1.6436,1.6725,1.6814,1.8581,1.9512,1.9824,2.0186,2.0525,2.0957,2.2302,2.303,2.3573,2.4996,2.5557,2.5566,2.5693,2.5742,2.5742,2.5742,2.5742,2.5742,2.5742,2.5742,2.5742,2.5742,2.5977,2.6211,2.6211,2.6435,2.6699,2.6816,2.6748,2.666,2.666,2.666,2.666,2.666,2.666,2.666,2.666,2.666,2.666,2.666,2.666,2.6543,2.624,2.6211,2.6084,2.5762,2.5742,2.5869,2.6182,2.6211,2.6348,2.665,2.666,2.6514,2.6211,2.6211,2.7079,2.8866,2.9223,3.0045,3.1223,3.2525,3.3081,0.0,0.0,0.0,0.0,0.0,0.0,2.7984,2.8536,2.9089,2.9679,2.9443,2.8858,2.8255,2.686,2.5546,2.4872,2.38,2.3135,2.3135,2.3135,2.3135,2.3135,2.3135,2.2862,2.2403,2.2325,2.1863,2.0666,1.9943,1.8948,1.7777,1.648,1.6109,1.685,1.6204,1.5832,1.5832,1.5832,1.5832,1.5832,1.5832,1.5832,1.5832,1.5959,1.6012,1.6032,1.6326,1.6453,1.6558,1.8123,1.8671,1.858,1.8913,1.9724,2.0834,2.1996,2.3144,2.4281,2.5344,2.5742,2.5742,2.5742,2.5742,2.5742,2.5742,2.5742,2.5742,2.5742,2.5869,2.6045,2.623,2.6465,2.654,2.5904,2.5871,2.5994,2.5518,2.5878,2.6465,2.6939,2.7012,2.7012,2.7012,2.7012,2.7012,2.7012,2.7012,2.7012,2.7012,2.7012,2.6924,2.668,2.665,2.6543,2.6289,2.6269,2.6377,2.6631,2.665,2.6758,2.7002,2.7012,2.6904,2.665,2.665,2.7764,3.0023,2.9609,3.0432,3.2381,3.3134,3.3545,0.0,0.0,0.0,0.0,0.0,0.0,2.7959,2.8486,2.9013,2.9666,2.8858,2.8084,2.7924,2.6191,2.4787,2.4628,2.38,2.3135,2.3135,2.3135,2.3135,2.3135,2.3135,2.2589,2.1391,2.1311,2.0773,1.9405,1.9131,1.8588,1.7598,1.6386,1.5832,1.5832,1.5832,1.5832,1.5832,1.5832,1.5832,1.5832,1.5865,1.5879,1.5885,1.6186,1.6319,1.6339,1.6627,1.6754,1.678,1.7074,1.7021,1.678,1.7081,1.8687,2.0799,2.1325,2.2976,2.502,2.5226,2.5226,2.5226,2.5226,2.5226,2.5235,2.5283,2.5293,2.5312,2.5556,2.6053,2.6543,2.6914,2.6939,2.6538,2.5145,2.4754,2.4456,2.3503,2.4321,2.5521,2.6475,2.6943,2.7158,2.7158,2.7158,2.7158,2.7158,2.7158,2.7158,2.7158,2.7158,2.7139,2.709,2.709,2.707,2.7021,2.7012,2.7031,2.708,2.709,2.7109,2.7158,2.7158,2.7139,2.709,2.7133,2.8466,3.0886,3.028,3.1368,3.3985,3.3985,3.4248,0.0,0.0,0.0,0.0,0.0,0.0,2.7871,2.8185,2.8561,2.9578,2.8858,2.7855,2.6964,2.5714,2.4542,2.3551,2.3222,2.3135,2.3135,2.3135,2.3135,2.3135,2.3135,2.2589,2.1391,2.1293,2.0404,1.8234,1.7117,1.6379,1.6204,1.592,1.5832,1.5832,1.5832,1.5832,1.5832,1.5832,1.5832,1.5832,1.6072,1.6186,1.6192,1.6486,1.662,1.664,1.6934,1.7061,1.7088,1.7375,1.7328,1.7094,1.7382,1.7803,1.8414,1.9605,2.0341,2.0947,2.2064,2.2466,2.2466,2.2466,2.2466,2.2526,2.2741,2.2835,2.3109,2.4557,2.5871,2.6914,2.6992,2.6399,2.566,2.5333,2.4598,2.3963,2.3706,2.3936,2.4141,2.4395,2.6378,2.8047,2.8047,2.8047,2.8047,2.8047,2.8047,2.8047,2.8047,2.8047,2.791,2.7578,2.7539,2.7402,2.7041,2.7012,2.7168,2.7519,2.7539,2.7695,2.8027,2.8047,2.7881,2.7549,2.8158,2.9229,3.0886,3.2787,3.3975,3.4562,3.4562,3.4613,0.0,0.0,0.0,2.6389,0.0,0.0,0.0,2.8109,2.8263,2.8795,2.8108,2.6953,2.588,2.4713,2.38,2.3222,2.3135,2.3135,2.3135,2.3135,2.3135,2.3135,2.2589,2.1756,2.0486,1.9852,1.8764,1.685,1.6204,1.5832,1.5832,1.5832,1.5832,1.5832,1.5832,1.5832,1.5832,1.5979,1.6052,1.6052,1.6346,1.6486,1.65,1.6794,1.6927,1.6941,1.7241,1.7368,1.7375,1.7522,1.7495,1.7382,1.7522,1.7996,1.8708,1.9324,2.0033,2.0735,2.1448,2.1752,2.1676,2.1874,2.1932,2.1998,2.2264,2.2791,2.3713,2.4834,2.5592,2.6285,2.6492,2.5604,2.4427,2.3651,2.3126,2.2484,2.1707,2.2153,2.2702,2.2702,2.4488,2.6054,2.6054,2.6717,2.7168,2.7168,2.7843,2.8291,2.8291,2.8291,2.8213,2.7998,2.7978,2.7891,2.7676,2.7656,2.7744,2.7969,2.7978,2.8066,2.8281,2.8291,2.8193,2.7988,2.9055,2.9929,3.0621,3.329,3.473,3.514,3.514,3.5278,0.0,0.0,0.0,0.0,0.0,2.6879,0.0,0.0,0.0,2.8064,2.7035,0.0,0.0,0.0,0.0,2.3135,0.0,0.0,0.0,2.3135,0.0,2.3135,2.2031,2.0845,1.9579,1.8226,1.6943,1.5927,1.5832,1.5832,1.5832,1.5832,1.5832,1.5832,1.5885,1.5912,1.5912,1.6206,1.6359,1.6359,1.6653,1.6794,1.68,1.7094,1.7235,1.7248,1.7482,1.7582,1.7582,1.7582,1.7582,1.7582,1.7582,1.8297,1.922,1.922,1.993,2.0947,2.1019,2.0941,2.1004,2.137,2.1423,2.1534,2.1703,2.2897,2.4297,2.4602,2.4905,2.52,2.5519,2.4488,2.3039,2.1919,2.1365,2.0809,1.9707,2.0371,2.1137,2.1137,2.2153,2.3159,2.371,2.482,2.5709,2.5709,2.6717,2.7511,2.7843,2.7843,2.795,2.8291,2.8291,2.8291,2.8291,2.8291,2.8291,2.8291,2.8291,2.8291,2.8291,2.8291,2.8291,2.8291,2.9408,3.0016,3.0317,3.2555,3.416,3.532,3.5506,3.5931,0.0,0.0,0.0,0.0,2.6829,0.0,0.0,0.0,2.755,2.7965,0.0,0.0,0.0,0.0,0.0,0.0,0.0,0.0,2.3135,2.3135,2.3135,2.3135,2.2031,2.0845,1.9579,1.739,1.592,1.5832,1.5832,1.5832,1.5832,1.5832,1.5832,1.5832,1.6086,1.6219,1.6219,1.6513,1.6653,1.666,1.6961,1.7094,1.7108,1.7402,1.7528,1.7535,1.7569,1.7582,1.7582,1.7582,1.7582,1.7582,1.7582,1.7687,1.7786,1.7786,1.7891,1.8135,1.8311,1.8413,1.8461,1.8769,1.9042,1.9268,1.9302,2.059,2.1925,2.2076,2.2975,2.3994,2.4036,2.2927,2.1813,2.1699,2.0587,1.9591,1.9482,1.9475,1.9707,1.9707,1.9815,2.0709,2.3383,2.3933,2.4044,2.4044,2.4156,2.4829,2.6155,2.6381,2.6825,2.8174,2.8291,2.8291,2.8291,2.8291,2.8291,2.8291,2.8291,2.8291,2.8291,2.8291,2.8291,2.8291,2.8504,2.9102,3.0317,3.0628,3.2017,3.4594,3.5771,3.6295,0.0,0.0,0.0,0.0,0.0,0.0,2.7225,0.0,2.705,0.0,0.0,0.0,0.0,0.0,0.0,0.0,2.3135,0.0,0.0,0.0,2.2862,0.0,0.0,0.0,1.7576,1.6379,1.5832,1.5832,1.5832,1.5832,1.5832,1.5992,1.6086,1.6086,1.6373,1.6526,1.6526,1.6814,1.6967,1.6967,1.7261,1.7402,1.7408,1.7528,1.7582,1.7582,1.7582,1.7582,1.7582,1.7582,1.7582,1.7582,1.7582,1.7582,1.7582,1.7582,1.7695,1.7869,1.8003,1.8163,1.835,1.8644,1.8938,1.9185,1.9185,2.0373,2.1586,2.1586,2.2032,2.2476,2.2476,2.1487,2.0371,2.0371,1.9809,1.9366,1.9366,1.9366,1.9366,1.9366,1.9366,1.9815,2.1045,2.1926,2.2476,2.2476,2.3263,2.4044,2.471,2.5599,2.6381,2.6943,2.7833,2.8291,2.8291,2.8291,2.8291,2.8291,2.8291,2.8291,2.8291,2.8291,2.8291,2.8291,2.8291,2.8601,2.9102,2.9911,3.1327,3.3254,3.4569,3.5667,2.6352,0.0,0.0,0.0,0.0,0.0,0.0,0.0,0.0,0.0,0.0,0.0,0.0,0.0,0.0,0.0,0.0,2.3135,0.0,2.2862,0.0,0.0,0.0,0.0,0.0,1.5832,1.5832,1.5832,1.5832,1.5865,1.5945,1.6152,1.6306,1.6386,1.6673,1.6827,1.6827,1.7121,1.7268,1.7275,1.7482,1.7582,1.7582,1.7582,1.7582,1.7582,1.7582,1.7582,1.7582,1.7582,1.7582,1.7589,1.7675,1.7709,1.7709,1.7709,1.7903,1.8183,1.8257,1.8484,1.8764,1.8978,1.9192,1.9366,1.9366,2.0148,2.1031,2.1031,2.1031,2.1031,2.1031,2.0141,1.9366,1.9366,1.9366,1.9366,1.9366,1.9366,1.9366,1.9366,1.9366,1.9366,1.9366,2.0256,2.1031,2.1031,2.1934,2.271,2.3151,2.4147,2.5151,2.6036,2.7051,2.7843,2.8291,2.8291,2.8291,2.8291,2.8291,2.8291,2.8291,2.8291,2.8291,2.8291,2.8291,2.8291,2.8291,2.9313,3.0618,3.2331,3.3773,3.5078,0.0,0.0,0.0,2.7118,0.0,0.0,0.0,0.0,2.4851,0.0,0.0,0.0,0.0,0.0,0.0,0.0,0.0,0.0,0.0,0.0,0.0,0.0,0.0,0.0,0.0,1.5832,1.5832,1.5832,1.5832,1.5952,1.6246,1.6266,1.64,1.6687,1.6981,1.7134,1.7134,1.7422,1.7569,1.7569,1.7582,1.7582,1.7582,1.7582,1.7582,1.7582,1.7582,1.7582,1.7582,1.7582,1.7582,1.7609,1.7916,1.8029,1.8029,1.8029,1.8223,1.8517,1.8798,1.9092,1.9339,1.9352,1.9359,1.9366,1.9366,1.9482,1.9482,1.9482,1.9482,1.9482,1.9482,1.9482,1.9366,1.9366,1.9366,1.9366,1.9366,1.9366,1.9366,1.9366,1.9366,1.9366,1.9366,1.9482,1.9482,1.9482,1.9482,2.0033,2.1472,2.1692,2.2806,2.5818,2.6155,2.6717,2.8184,2.8291,2.8291,2.8291,2.8291,2.8291,2.8291,2.8291,2.8291,2.8291,2.8291,2.8291,2.8291,2.8291,2.9713,3.2331,3.3773,3.5078,0.0,0.0,2.7055,2.7231,0.0,0.0,0.0,0.0,0.0,0.0,0.0,0.0,0.0,0.0,0.0,0.0,0.0,0.0,0.0,0.0,0.0,0.0,0.0,0.0,0.0,0.0,1.5832,1.5832,1.5832,1.5959,1.6259,1.6453,1.6693,1.6987,1.7281,1.7435,1.7435,1.7528,1.7582,1.7582,1.7582,1.7582,1.7582,1.7582,1.7582,1.7582,1.7582,1.7582,1.7595,1.7802,1.7889,1.7923,1.8223,1.8457,1.8604,1.841,1.8524,1.8818,1.9118,1.9285,1.9366,1.9366,1.9366,1.9366,1.9366,1.9366,1.9366,1.9366,1.9366,1.9366,1.9366,1.9366,1.9366,1.9366,1.9366,1.9366,1.9366,1.9366,1.9366,1.9366,1.9366,1.9366,1.9366,1.9366,1.9366,1.9366,1.9366,1.9591,2.0033,2.1031,2.2363,2.4378,2.5489,2.6717,2.8184,2.8291,2.8291,2.8291,2.8291,2.8291,2.8291,2.8291,2.8291,2.8291,2.8291,2.8291,2.8291,2.8291,2.9197,3.1019,3.2342,3.4252,2.6703,2.671,0.0,2.7225,2.6747,0.0,2.5447,0.0,0.0,0.0,0.0,0.0,0.0,0.0,0.0,0.0,0.0,0.0,0.0,2.0133,0.0,0.0,0.0,0.0,0.0,0.0,1.5832,1.5832,1.5925,1.6119,1.6413,1.6707,1.7001,1.7295,1.7482,1.7582,1.7582,1.7582,1.7582,1.7582,1.7582,1.7582,1.7582,1.7582,1.7642,1.7749,1.7749,1.7809,1.7923,1.8123,1.8203,1.8237,1.8531,1.8758,1.8905,1.8718,1.8831,1.9112,1.9299,1.9366,1.9366,1.9366,1.9366,1.9366,1.9366,1.9366,1.9392,1.9492,1.9446,1.9392,1.9492,1.9446,1.9366,1.9366,1.9366,1.9366,1.9366,1.9366,1.9366,1.9366,1.9366,1.9366,1.9366,1.9366,1.9366,1.9366,1.9366,1.9366,1.9366,2.0263,2.1373,2.2814,2.4378,2.6045,2.8174,2.8291,2.8291,2.8291,2.8291,2.8291,2.8291,2.8291,2.8291,2.8291,2.8291,2.8291,2.8291,2.8291,2.9006,3.0317,3.1051,3.2769]}]]